[[{"header":{"parameterUnit":"m.s-1","parameterCategory":1,"la1":30.6,"la2":29.2853,"lo1":-89.7004,"lo2":-87.6739,"dy":0.0162,"dx":0.0183,"nx":112,"ny":82,"refTime":"2024-04-11T06:00:00:Z","depth":0,"parameterNumber":2,"parameterNumberName":"U-component_of_WINDS"},"data":[0.0,0.0,0.0,0.0,0.0,0.0,0.0,0.0,0.0,0.0,0.0,0.0,0.0,0.0,0.0,0.0,0.0,0.0,0.0,0.0,0.0,0.0,0.0,0.0,0.0,0.0,0.0,0.0,0.0,0.0,0.0,0.0,0.0,0.0,0.0,0.0,0.0,0.0,0.0,0.0,0.0,0.0,0.0,0.0,0.0,0.0,0.0,0.0,0.0,0.0,0.0,0.0,0.0,0.0,0.0,0.0,0.0,0.0,0.0,0.0,0.0,0.0,0.0,0.0,0.0,0.0,0.0,0.0,0.0,0.0,0.0,0.0,0.0,0.0,0.0,0.0,0.0,0.0,0.0,0.0,0.0,0.0,0.0,0.0,0.0,0.0,0.0,0.0,0.0,0.0,-4.123,-4.3711,-4.8887,-5.2461,-5.3203,-5.3418,-5.1465,-4.6601,0.0,0.0,0.0,0.0,0.0,0.0,0.0,0.0,0.0,0.0,0.0,0.0,0.0,0.0,0.0,0.0,0.0,0.0,0.0,0.0,0.0,0.0,0.0,0.0,0.0,0.0,0.0,0.0,0.0,0.0,0.0,0.0,0.0,0.0,0.0,0.0,0.0,0.0,0.0,0.0,0.0,0.0,0.0,0.0,0.0,0.0,0.0,0.0,0.0,0.0,0.0,0.0,0.0,0.0,0.0,0.0,0.0,0.0,0.0,0.0,0.0,0.0,0.0,0.0,0.0,0.0,0.0,0.0,0.0,0.0,0.0,0.0,0.0,0.0,0.0,0.0,0.0,0.0,0.0,0.0,0.0,0.0,0.0,0.0,0.0,0.0,0.0,0.0,0.0,0.0,0.0,0.0,0.0,0.0,0.0,0.0,0.0,0.0,0.0,0.0,0.0,0.0,0.0,0.0,-4.3574,-4.7558,-5.0762,-5.2656,-5.2793,-5.1875,-4.9863,-4.6523,0.0,0.0,0.0,0.0,0.0,0.0,0.0,0.0,0.0,0.0,0.0,0.0,0.0,0.0,0.0,0.0,0.0,0.0,0.0,0.0,0.0,0.0,0.0,0.0,0.0,0.0,0.0,0.0,0.0,0.0,0.0,0.0,0.0,0.0,0.0,0.0,0.0,0.0,0.0,0.0,0.0,0.0,0.0,0.0,0.0,0.0,0.0,0.0,0.0,0.0,0.0,0.0,0.0,0.0,0.0,0.0,0.0,0.0,0.0,0.0,0.0,0.0,0.0,0.0,0.0,0.0,0.0,0.0,0.0,0.0,0.0,0.0,0.0,0.0,0.0,0.0,0.0,0.0,0.0,0.0,0.0,0.0,0.0,0.0,0.0,0.0,0.0,0.0,0.0,0.0,0.0,0.0,0.0,0.0,0.0,0.0,0.0,0.0,0.0,0.0,0.0,0.0,0.0,-4.0547,-4.2352,-4.5047,-4.6987,-4.8101,-4.8316,-4.8484,-4.7458,-4.4603,-4.4645,0.0,0.0,0.0,0.0,0.0,0.0,0.0,0.0,0.0,0.0,0.0,0.0,0.0,0.0,0.0,0.0,0.0,0.0,0.0,0.0,0.0,0.0,0.0,0.0,0.0,0.0,0.0,0.0,0.0,0.0,0.0,0.0,0.0,0.0,0.0,0.0,0.0,0.0,0.0,0.0,0.0,0.0,0.0,0.0,0.0,0.0,0.0,0.0,0.0,0.0,0.0,0.0,0.0,0.0,0.0,0.0,0.0,0.0,0.0,0.0,0.0,0.0,0.0,0.0,0.0,0.0,0.0,0.0,0.0,0.0,0.0,0.0,0.0,0.0,0.0,0.0,0.0,0.0,0.0,0.0,0.0,0.0,0.0,0.0,0.0,0.0,0.0,0.0,0.0,0.0,0.0,0.0,0.0,0.0,0.0,0.0,0.0,0.0,0.0,0.0,0.0,0.0,-4.0281,-4.049,-4.1995,-4.3087,-4.3969,-4.4085,-4.5055,-4.476,-4.2568,-4.2856,0.0,0.0,0.0,0.0,0.0,0.0,0.0,0.0,0.0,0.0,0.0,0.0,0.0,0.0,0.0,0.0,0.0,0.0,0.0,0.0,0.0,0.0,0.0,0.0,0.0,0.0,0.0,0.0,0.0,0.0,0.0,0.0,0.0,0.0,0.0,0.0,0.0,0.0,0.0,0.0,0.0,0.0,0.0,0.0,0.0,0.0,0.0,0.0,0.0,0.0,0.0,0.0,0.0,0.0,0.0,0.0,0.0,0.0,0.0,0.0,0.0,0.0,0.0,0.0,0.0,0.0,0.0,0.0,0.0,0.0,0.0,0.0,0.0,0.0,0.0,0.0,0.0,0.0,0.0,0.0,0.0,0.0,0.0,0.0,0.0,0.0,0.0,0.0,0.0,0.0,0.0,0.0,0.0,0.0,0.0,0.0,0.0,0.0,0.0,0.0,0.0,0.0,-3.8661,-3.9789,-4.1535,-4.2707,-4.3087,-4.2642,-4.255,-4.2174,-4.1298,-4.0877,0.0,0.0,0.0,0.0,0.0,0.0,0.0,0.0,0.0,0.0,0.0,0.0,0.0,0.0,0.0,0.0,0.0,0.0,0.0,0.0,0.0,0.0,0.0,0.0,0.0,0.0,0.0,0.0,0.0,0.0,0.0,0.0,0.0,0.0,0.0,0.0,0.0,0.0,0.0,0.0,0.0,0.0,0.0,0.0,0.0,0.0,0.0,0.0,0.0,0.0,0.0,0.0,0.0,0.0,0.0,0.0,0.0,0.0,0.0,0.0,0.0,0.0,0.0,0.0,0.0,0.0,0.0,0.0,0.0,0.0,0.0,0.0,0.0,0.0,0.0,0.0,0.0,0.0,0.0,0.0,0.0,0.0,0.0,0.0,0.0,0.0,0.0,0.0,0.0,0.0,0.0,0.0,0.0,0.0,0.0,0.0,0.0,0.0,0.0,0.0,0.0,0.0,-3.5835,-3.6306,-3.6831,-3.7331,-3.7564,-3.7316,-3.838,-3.9275,-3.9385,0.0,0.0,0.0,0.0,0.0,0.0,0.0,0.0,0.0,0.0,0.0,0.0,0.0,0.0,0.0,0.0,0.0,0.0,0.0,0.0,0.0,0.0,0.0,0.0,0.0,0.0,0.0,0.0,0.0,0.0,0.0,0.0,0.0,0.0,0.0,0.0,0.0,0.0,0.0,0.0,0.0,0.0,0.0,0.0,0.0,0.0,0.0,0.0,0.0,0.0,0.0,0.0,0.0,0.0,0.0,0.0,0.0,0.0,0.0,0.0,0.0,0.0,0.0,0.0,0.0,0.0,0.0,0.0,0.0,0.0,0.0,0.0,0.0,0.0,0.0,0.0,0.0,0.0,0.0,0.0,0.0,0.0,0.0,0.0,0.0,0.0,0.0,0.0,0.0,0.0,0.0,0.0,0.0,0.0,0.0,0.0,0.0,0.0,0.0,0.0,0.0,0.0,-3.2684,-3.32,-3.3534,-3.3748,-3.4082,-3.4242,-3.4042,-3.5166,-3.633,-3.7207,0.0,0.0,0.0,0.0,0.0,0.0,0.0,0.0,0.0,0.0,0.0,0.0,0.0,0.0,0.0,0.0,0.0,0.0,0.0,0.0,0.0,0.0,0.0,0.0,0.0,0.0,0.0,0.0,0.0,0.0,0.0,0.0,0.0,0.0,0.0,0.0,0.0,0.0,0.0,0.0,0.0,0.0,0.0,0.0,0.0,0.0,0.0,0.0,0.0,0.0,0.0,0.0,0.0,0.0,0.0,0.0,0.0,0.0,0.0,0.0,0.0,0.0,0.0,0.0,0.0,0.0,0.0,0.0,0.0,0.0,0.0,0.0,0.0,0.0,0.0,0.0,0.0,0.0,0.0,0.0,0.0,0.0,0.0,0.0,0.0,0.0,0.0,0.0,0.0,0.0,0.0,0.0,0.0,0.0,0.0,0.0,0.0,0.0,0.0,0.0,0.0,0.0,-3.0568,-3.1049,-3.1784,-3.3253,-3.3948,-3.4068,-3.3467,-3.3196,-3.3612,0.0,0.0,0.0,0.0,0.0,0.0,0.0,0.0,0.0,0.0,0.0,0.0,0.0,0.0,0.0,0.0,0.0,0.0,0.0,0.0,0.0,0.0,0.0,0.0,0.0,0.0,0.0,0.0,0.0,0.0,0.0,0.0,0.0,0.0,0.0,0.0,0.0,0.0,0.0,0.0,0.0,0.0,0.0,0.0,0.0,0.0,0.0,0.0,0.0,0.0,0.0,0.0,0.0,0.0,0.0,0.0,0.0,0.0,0.0,0.0,0.0,0.0,0.0,0.0,0.0,0.0,0.0,0.0,0.0,0.0,0.0,0.0,0.0,0.0,0.0,0.0,0.0,0.0,0.0,0.0,0.0,0.0,0.0,0.0,0.0,0.0,0.0,0.0,0.0,0.0,0.0,0.0,0.0,0.0,0.0,0.0,0.0,0.0,0.0,0.0,0.0,0.0,0.0,-3.0875,-3.0996,-3.1557,-3.3227,-3.3774,-3.3855,-3.344,-3.3048,-3.3401,-3.5306,0.0,0.0,0.0,0.0,0.0,0.0,0.0,0.0,0.0,0.0,0.0,0.0,0.0,0.0,0.0,0.0,0.0,0.0,0.0,0.0,0.0,0.0,0.0,0.0,0.0,0.0,0.0,0.0,0.0,0.0,0.0,0.0,0.0,0.0,0.0,0.0,0.0,0.0,0.0,0.0,0.0,0.0,0.0,0.0,0.0,0.0,0.0,0.0,0.0,0.0,0.0,0.0,0.0,0.0,0.0,0.0,0.0,0.0,0.0,0.0,0.0,0.0,0.0,0.0,0.0,0.0,0.0,0.0,0.0,0.0,0.0,0.0,0.0,0.0,0.0,0.0,0.0,0.0,0.0,0.0,0.0,0.0,0.0,0.0,0.0,0.0,0.0,0.0,0.0,0.0,0.0,0.0,0.0,0.0,0.0,0.0,0.0,0.0,0.0,0.0,0.0,0.0,-3.1183,-3.1049,-3.1463,-3.3227,-3.3587,-3.3668,-3.3601,-3.2946,-3.2926,-3.3998,0.0,0.0,0.0,0.0,0.0,0.0,0.0,0.0,0.0,0.0,0.0,0.0,0.0,0.0,0.0,0.0,0.0,0.0,0.0,0.0,0.0,0.0,0.0,0.0,0.0,0.0,0.0,0.0,0.0,0.0,0.0,0.0,0.0,0.0,0.0,0.0,0.0,0.0,0.0,0.0,0.0,0.0,0.0,0.0,0.0,0.0,0.0,0.0,0.0,0.0,0.0,0.0,0.0,0.0,0.0,0.0,0.0,0.0,0.0,0.0,0.0,0.0,0.0,0.0,0.0,0.0,0.0,0.0,0.0,0.0,0.0,0.0,0.0,0.0,0.0,0.0,0.0,0.0,0.0,0.0,0.0,0.0,0.0,0.0,0.0,0.0,0.0,0.0,0.0,0.0,0.0,0.0,0.0,0.0,0.0,0.0,0.0,0.0,0.0,0.0,0.0,0.0,-3.153,-3.1236,-3.1543,-3.3267,-3.3507,-3.3641,-3.3908,-3.3133,-3.2372,-3.1784,0.0,0.0,0.0,0.0,0.0,0.0,0.0,0.0,0.0,0.0,0.0,0.0,0.0,0.0,0.0,0.0,0.0,0.0,0.0,0.0,0.0,0.0,0.0,0.0,0.0,0.0,0.0,0.0,0.0,0.0,0.0,0.0,0.0,0.0,0.0,0.0,0.0,0.0,0.0,0.0,0.0,0.0,0.0,0.0,0.0,0.0,0.0,0.0,0.0,0.0,0.0,0.0,0.0,0.0,0.0,0.0,0.0,0.0,0.0,0.0,-1.4496,-1.4428,0.0,0.0,0.0,0.0,0.0,0.0,0.0,0.0,0.0,0.0,0.0,0.0,0.0,0.0,0.0,0.0,0.0,0.0,0.0,0.0,0.0,0.0,0.0,0.0,0.0,0.0,0.0,0.0,0.0,0.0,0.0,0.0,0.0,0.0,0.0,0.0,0.0,0.0,0.0,0.0,-3.2158,-3.1851,-3.2078,-3.3627,-3.4202,-3.4402,-3.4242,-3.3614,-3.2973,-3.2398,-3.2042,0.0,0.0,0.0,0.0,0.0,0.0,0.0,0.0,0.0,0.0,0.0,0.0,0.0,0.0,0.0,0.0,0.0,0.0,0.0,0.0,0.0,0.0,0.0,0.0,0.0,0.0,0.0,0.0,0.0,0.0,0.0,0.0,0.0,0.0,0.0,0.0,0.0,0.0,0.0,0.0,0.0,0.0,0.0,0.0,0.0,0.0,0.0,0.0,0.0,0.0,0.0,0.0,0.0,0.0,0.0,0.0,0.0,0.0,0.0,-1.5533,-1.5296,0.0,0.0,0.0,0.0,0.0,0.0,0.0,0.0,0.0,0.0,0.0,0.0,0.0,0.0,0.0,0.0,0.0,0.0,0.0,0.0,0.0,0.0,0.0,0.0,0.0,0.0,0.0,0.0,0.0,0.0,0.0,0.0,0.0,0.0,0.0,0.0,0.0,0.0,0.0,0.0,-3.2799,-3.2452,-3.2599,-3.3948,-3.4362,-3.4549,-3.4536,-3.4108,-3.348,-3.2599,-3.2238,0.0,0.0,0.0,0.0,0.0,0.0,0.0,0.0,0.0,0.0,0.0,0.0,0.0,0.0,0.0,0.0,0.0,0.0,0.0,0.0,0.0,0.0,0.0,0.0,0.0,0.0,0.0,0.0,0.0,0.0,0.0,0.0,0.0,0.0,0.0,0.0,0.0,0.0,0.0,0.0,0.0,0.0,0.0,0.0,0.0,0.0,0.0,0.0,0.0,0.0,0.0,0.0,0.0,-1.6449,-1.6822,-1.7473,-1.765,-1.7684,-1.7595,-1.7161,-1.672,-1.6341,-1.6714,0.0,0.0,0.0,0.0,0.0,0.0,0.0,0.0,0.0,0.0,0.0,0.0,0.0,0.0,0.0,0.0,0.0,0.0,0.0,0.0,0.0,0.0,-1.6795,-1.7114,-1.7372,-1.8265,-2.1316,0.0,0.0,0.0,0.0,0.0,0.0,0.0,0.0,0.0,0.0,0.0,-3.344,-3.324,-3.344,-3.4576,-3.4696,-3.4803,-3.5044,-3.479,-3.4122,-3.2933,-3.3253,-3.2572,0.0,0.0,0.0,0.0,0.0,0.0,0.0,0.0,0.0,0.0,0.0,0.0,0.0,0.0,0.0,0.0,0.0,0.0,0.0,0.0,0.0,0.0,0.0,0.0,0.0,0.0,0.0,0.0,0.0,0.0,0.0,0.0,-1.3959,-1.4527,0.0,0.0,0.0,0.0,0.0,0.0,0.0,0.0,0.0,0.0,0.0,0.0,0.0,-1.6361,-1.6897,-1.7032,-1.7277,-1.7629,-1.7894,-1.8213,-1.8565,-1.885,-1.9094,-1.9345,-1.9522,0.0,-1.7249,-1.7311,0.0,0.0,0.0,0.0,0.0,0.0,0.0,0.0,0.0,0.0,0.0,0.0,0.0,0.0,0.0,0.0,0.0,0.0,0.0,0.0,0.0,0.0,-1.7446,-1.7243,-1.7609,-1.8108,-1.8295,-2.0404,-2.2052,-2.2021,-2.3886,-2.639,0.0,0.0,0.0,0.0,0.0,0.0,-3.4175,-3.4576,-3.5204,-3.6112,-3.6219,-3.6233,-3.6273,-3.6006,-3.5338,-3.4162,-3.3921,-3.3454,-3.2612,-3.1637,0.0,0.0,0.0,0.0,0.0,0.0,0.0,0.0,0.0,0.0,0.0,0.0,0.0,0.0,0.0,0.0,0.0,0.0,0.0,0.0,0.0,0.0,0.0,0.0,0.0,0.0,0.0,0.0,0.0,-1.4062,-1.4082,-1.4163,-1.4652,-1.4984,0.0,0.0,0.0,0.0,0.0,0.0,0.0,0.0,0.0,-1.6815,-1.6985,-1.727,-1.7684,-1.7935,-1.8321,-1.8884,-1.9183,-1.9522,-1.9908,-2.0187,-2.0505,-2.0811,-2.1109,-2.0736,-1.9875,-1.9149,-1.8198,-1.7206,0.0,0.0,0.0,0.0,-1.7982,-1.8021,-1.8335,-1.8409,-1.8518,-1.8742,0.0,0.0,0.0,0.0,0.0,0.0,0.0,-1.7758,-1.7704,-1.8036,-1.8423,-1.8552,-1.904,-1.9413,-1.9203,-1.9946,-2.0827,-2.1218,-2.2442,-2.4315,-2.7197,-2.7719,0.0,0.0,0.0,-2.9762,-3.0048,-3.1797,-3.3292,-3.3961,-3.5624,-3.6754,-3.6767,-3.6473,-3.6032,-3.5351,-3.4723,-3.4028,-3.3267,-3.2732,-3.2305,0.0,0.0,0.0,0.0,0.0,0.0,0.0,0.0,0.0,0.0,0.0,0.0,0.0,0.0,0.0,0.0,0.0,0.0,0.0,0.0,0.0,0.0,0.0,0.0,0.0,0.0,0.0,0.0,-1.4238,-1.4618,-1.4434,-1.5106,-1.5479,0.0,0.0,0.0,0.0,0.0,0.0,-1.6937,-1.7121,-1.7467,-1.8036,-1.8158,-1.8389,-1.8782,-1.9027,-1.9481,-2.0119,-2.0417,-2.077,-2.1177,-2.1475,-2.174,-2.1971,-2.2181,-2.2235,-2.2038,-2.054,-1.93,-1.7891,-1.579,-1.5348,-1.6215,-1.6068,-1.722,-1.918,-1.9341,-1.9712,-2.0052,-1.9568,-1.9361,-1.925,-1.8708,0.0,0.0,0.0,0.0,-1.8375,-1.8816,-1.9128,-1.9447,-1.9888,-2.0417,-2.0804,-2.0702,-2.0404,-2.0394,-2.0591,-2.1048,-2.2146,-2.4664,-2.5202,0.0,-2.6315,-2.6485,-2.6673,-2.6882,-2.9297,-3.116,-3.251,-3.4569,-3.6367,-3.7275,-3.6941,-3.658,-3.6206,-3.5498,-3.467,-3.3708,-3.3507,-3.2893,-3.181,0.0,0.0,0.0,0.0,0.0,0.0,0.0,0.0,0.0,0.0,0.0,0.0,0.0,0.0,0.0,0.0,0.0,0.0,0.0,0.0,0.0,0.0,0.0,0.0,0.0,0.0,0.0,0.0,0.0,-1.5276,-1.613,0.0,0.0,0.0,0.0,-1.6449,-1.6985,-1.7575,-1.8199,-1.8375,-1.885,-1.9712,-1.9752,-2.0051,-2.0634,-2.079,-2.1034,-2.1353,-2.1652,-2.195,-2.2269,-2.2567,-2.271,-2.273,-2.2744,-2.2784,-2.2744,-2.139,-2.0428,-1.9217,-1.1751,-1.0641,-1.3101,-1.0401,-1.3771,-1.9554,-1.974,-2.0207,-2.0832,-2.0397,-2.043,-2.054,-2.001,-1.9678,0.0,0.0,-1.9257,-1.9359,-1.9393,-1.9834,-2.0383,-2.0824,-2.1285,-2.1618,-2.1604,-2.1245,-2.0546,-1.9392,-1.8699,-1.9288,-2.2703,0.0,-2.3878,-2.6564,-2.7569,-2.8048,-2.7429,-2.8138,-3.0017,-3.3361,-3.3618,-3.4888,-3.7954,-3.7676,-3.7088,-3.6513,-3.6179,-3.5485,-3.4322,-3.3721,-3.3374,-3.3307,-3.1944,0.0,0.0,0.0,0.0,0.0,0.0,0.0,0.0,0.0,0.0,0.0,0.0,0.0,0.0,0.0,0.0,0.0,0.0,0.0,0.0,0.0,0.0,0.0,0.0,0.0,0.0,0.0,0.0,-1.6347,-1.7127,0.0,-1.7317,-1.7351,-1.7548,-1.7935,-1.8165,-1.8674,-1.9569,-1.9657,-2.001,-2.0716,-2.0736,-2.0933,-2.1353,-2.1496,-2.1726,-2.2025,-2.2215,-2.2479,-2.2778,-2.2974,-2.313,-2.2978,-2.3085,-2.3105,-2.3032,-2.2596,-1.6346,-0.6945,-0.4225,-0.3663,-0.572,-1.4477,-1.5995,-1.3732,-1.3754,-1.4062,-1.4902,-1.6142,-1.8576,-2.0858,-2.0438,-2.0261,-2.0241,-2.0329,-2.0187,-2.0098,-2.0471,-2.0668,-2.0878,-2.1319,-2.1706,-2.1991,-2.2079,-2.1903,-2.155,-2.0967,-1.9908,-1.9602,-2.0641,-2.0768,-2.0937,-2.2039,-2.2473,-2.2814,-2.2551,-2.4615,-2.6436,-2.7683,-3.1462,-3.4369,-3.523,-3.6544,-3.7128,-3.654,-3.5872,-3.5231,-3.4616,-3.3841,-3.3053,-3.2305,-3.177,-3.1463,0.0,0.0,0.0,0.0,0.0,0.0,0.0,0.0,0.0,0.0,0.0,0.0,0.0,0.0,0.0,0.0,0.0,0.0,0.0,0.0,0.0,0.0,0.0,0.0,0.0,0.0,-1.67,-1.7351,-1.8145,-1.8565,-1.8409,-1.8586,-1.883,-1.9183,-1.94,-1.9908,-2.0804,-2.0858,-2.1123,-2.1726,-2.1686,-2.1815,-2.2113,-2.2215,-2.2391,-2.2642,-2.2784,-2.2961,-2.3171,-2.3375,-2.326,-2.31,-2.1682,-2.0762,-2.0655,-2.2657,-1.5505,-0.3617,-0.1109,-0.0,-0.1918,-1.6683,-1.8804,-1.3507,-0.869,-0.7027,-0.8148,-1.3107,-1.7735,-2.1569,-2.1068,-2.0967,-2.098,-2.1231,-2.1021,-2.0804,-2.1245,-2.1408,-2.153,-2.1828,-2.2201,-2.2513,-2.2622,-2.2479,-2.2303,-2.2201,-2.1143,-2.0227,-2.0139,-1.9976,-1.9888,-1.9888,-1.9888,-1.9908,-1.9942,-2.1883,-2.3592,-2.4553,-2.8357,-3.1765,-3.3479,-3.499,-3.5909,-3.6259,-3.5391,-3.4629,-3.4028,-3.3534,-3.2906,-3.2131,-3.1717,-3.1276,-3.0782,0.0,0.0,0.0,0.0,0.0,0.0,0.0,0.0,0.0,0.0,0.0,0.0,0.0,0.0,0.0,0.0,0.0,0.0,0.0,0.0,0.0,0.0,0.0,-1.6049,-1.6761,-1.7521,-1.8287,-1.9169,-1.9535,-1.9115,-1.9854,-2.0315,-2.0173,-2.0716,-2.1299,-2.1882,-2.1916,-2.2181,-2.2764,-2.2642,-2.271,-2.3008,-2.3008,-2.3083,-2.3239,-2.3381,-2.3449,-2.3483,-2.3534,-2.3405,-2.3094,-1.7932,-1.576,-1.6253,-2.1502,-1.8669,-1.0943,-0.3464,-0.0289,-0.1729,-1.6267,-2.1562,-1.9407,-0.5111,-0.0,-0.1695,-1.1659,-1.8295,-2.2255,-2.1971,-2.1794,-2.1726,-2.1862,-2.1686,-2.1496,-2.1652,-2.2004,-2.2337,-2.2337,-2.2798,-2.3219,-2.3219,-2.2995,-2.2798,-2.2798,-2.2093,-2.1387,-2.1089,-2.0912,-2.0702,-2.0404,-2.0363,0.0,-2.0139,-2.0119,-2.1348,-2.4508,-2.4579,-2.7037,-3.2995,-3.2977,-3.3454,-3.5444,-3.4763,-3.3748,-3.2572,-3.2772,-3.2906,-3.2906,-3.1797,-3.0808,-2.9967,0.0,0.0,0.0,0.0,0.0,0.0,0.0,0.0,0.0,0.0,0.0,0.0,0.0,0.0,0.0,0.0,0.0,0.0,0.0,0.0,0.0,-1.632,-1.6707,-1.6727,-1.765,-1.8606,-1.9359,-2.0241,-2.079,-2.077,-2.1177,-2.1475,-2.155,-2.1916,-2.2255,-2.252,-2.2642,-2.2778,-2.294,-2.3008,-2.3083,-2.3171,-2.3171,-2.3239,-2.3381,-2.3429,-2.3626,-2.3944,-2.4155,-2.1809,-1.8151,-1.6712,-1.8447,-2.1843,-2.2924,-1.863,-1.207,-1.5575,-0.9935,-0.0583,-0.4707,-0.6179,-0.5557,-0.1451,-0.0,-0.1435,-0.9631,-1.6662,-2.2268,-2.2283,-2.2181,-2.216,-2.2201,-2.2072,-2.1937,-2.1991,-2.216,-2.2357,-2.2466,-2.2784,-2.3097,-2.3205,-2.3151,-2.3097,-2.3097,-2.2818,-2.2411,-2.1903,-2.1597,-2.1353,-2.1157,-2.1034,-2.0878,-2.0614,-2.0594,-2.0752,-2.1513,-2.3665,-2.6322,-2.9724,-3.1315,-3.2797,-3.4568,-3.3841,-3.2919,-3.1957,-3.1583,-3.1396,-3.1396,-3.1076,-3.1009,0.0,0.0,0.0,0.0,0.0,0.0,0.0,0.0,0.0,0.0,0.0,0.0,0.0,0.0,0.0,0.0,0.0,0.0,0.0,0.0,0.0,0.0,-1.765,-1.8233,-1.8531,-1.9006,-1.9644,-2.0526,-2.1197,-2.1706,-2.1971,-2.2215,-2.2411,-2.2567,-2.273,-2.2907,-2.3049,-2.3151,-2.3259,-2.3381,-2.3449,-2.3537,-2.3592,-2.3592,-2.368,-2.3822,-2.3822,-2.3999,-2.4317,-2.4487,-2.2686,-1.9566,-1.9636,-2.1363,-2.3816,-2.3675,-2.0822,-1.6263,0.0,0.0,0.0,0.0,-0.0,-0.0,-0.0,-0.0,-0.1154,-0.8825,-1.6163,-2.2382,-2.2405,-2.2337,-2.2337,-2.2337,-2.2269,-2.2201,-2.2127,-2.2323,-2.2534,-2.2554,-2.2832,-2.3117,-2.3205,-2.3219,-2.3219,-2.3219,-2.3151,0.0,-2.2642,-2.2269,-2.195,-2.1672,-2.1496,-2.1299,-2.1001,-2.0845,-2.0702,-2.0539,-2.2073,-2.3934,-2.6446,-2.8738,0.0,0.0,0.0,-3.2532,-3.153,-3.1356,0.0,0.0,0.0,-3.1434,-3.0916,-3.077,0.0,0.0,-3.0354,-3.1317,0.0,0.0,0.0,0.0,0.0,0.0,0.0,0.0,0.0,0.0,0.0,0.0,0.0,0.0,0.0,0.0,-1.9203,-1.9976,-2.0878,-2.0702,-2.0804,-2.1692,-2.2079,-2.2432,-2.2832,-2.3029,-2.3171,-2.3293,-2.3307,-2.3381,-2.3517,0.0,0.0,0.0,0.0,-2.4033,-2.4189,-2.4175,-2.4243,-2.4406,-2.4385,-2.4453,-2.4596,-2.4786,-2.4479,-2.4338,-2.4338,-2.4164,-2.3883,-2.4033,-2.3822,-2.1788,-0.6203,-0.0,-0.0,-0.0,-0.0,-0.0,-0.0,0.0,0.0,-0.8791,-1.6124,-2.2415,-2.2425,-2.2337,-2.2337,-2.2337,-2.2337,-2.2303,-2.216,-2.2466,-2.2744,-2.2608,-2.2907,-2.3219,-2.3219,-2.3219,-2.3219,-2.3219,-2.3219,-2.3219,-2.3219,-2.2886,-2.2466,-2.2038,-2.1848,-2.1638,-2.1299,-2.1001,-2.0804,-2.0756,-2.0363,0.0,-2.3945,-2.6043,-2.8164,-2.9758,-3.173,-3.2332,-3.1223,-3.1423,-3.141,-3.0916,-3.1811,-3.1579,-3.003,-2.9532,-2.8938,-2.8427,-3.0779,-3.2312,0.0,0.0,0.0,0.0,0.0,0.0,0.0,0.0,0.0,0.0,0.0,0.0,0.0,0.0,0.0,-2.0119,-2.0716,-2.1367,-2.2269,-2.2622,-2.2744,-2.2588,-2.294,-2.3273,-2.349,-2.3646,-2.3734,-2.3768,-2.3877,-2.3965,-2.3999,-2.41,-2.4209,-2.4263,-2.4372,-2.4507,-2.467,-2.4548,-2.4562,-2.4704,0.0,0.0,-2.4758,-2.4792,-2.4718,-2.4582,-2.4582,-2.4419,-2.4121,-2.3978,-2.3554,-2.1682,-0.6217,-0.0,-0.0,-0.0,-0.0,-0.0,-0.0,-0.0,-0.1162,-0.8851,-1.6236,-2.2254,-2.2181,-2.2337,0.0,-2.2337,-2.2337,-2.2337,-2.2303,-2.2534,-2.2784,-2.2744,-2.2995,-2.3219,-2.3219,-2.3219,-2.3219,-2.3219,-2.3219,-2.3219,-2.3219,-2.3063,-2.2852,-2.2642,-2.2378,-2.2059,-2.1638,-2.1319,-2.098,-2.0627,-2.0404,-2.129,-2.3795,-2.5969,-2.7943,-2.9758,-3.1183,-3.1597,-3.069,-3.1089,-3.0597,-2.9495,-3.0544,-3.0942,-3.0637,-3.0557,-3.0149,-2.9576,-2.9128,-3.0159,0.0,0.0,0.0,0.0,0.0,0.0,0.0,0.0,0.0,0.0,0.0,-1.8552,-1.9291,0.0,-2.0614,-2.1516,-2.2167,-2.2764,-2.3361,-2.3836,-2.3965,-2.3503,-2.3714,-2.3999,-2.4209,-2.4297,-2.4351,-2.4351,-2.4419,-2.4453,-2.4453,-2.4528,-2.4629,-2.4792,-2.486,-2.4935,-2.5003,-2.4935,-2.4935,-2.5003,-2.4935,-2.4989,-2.5125,-2.5036,-2.4894,-2.467,-2.4596,-2.4385,-2.41,-2.3877,-2.3856,-2.2436,-1.0346,-0.3553,-0.0,-0.0,-0.0,-0.0,-0.0,-0.4972,-1.1643,-1.1164,-1.6265,-2.2543,-2.2459,-2.2337,-2.2337,-2.2337,-2.2337,-2.2337,-2.2337,-2.25,-2.2696,-2.2764,-2.2961,-2.313,-2.3205,-2.3219,-2.3219,-2.3219,-2.3219,-2.3219,-2.3219,-2.3171,-2.3063,-2.292,-2.271,-2.2432,-2.2059,-2.1672,-2.1299,-2.0912,-2.0485,-2.0526,-2.1729,-2.463,-2.7249,-2.9353,-3.1005,-3.1744,-3.1046,-3.102,-3.0525,-2.9543,-3.0726,-3.1301,-3.1244,-3.1746,-3.1732,-3.0799,-3.0225,-3.0584,0.0,0.0,0.0,0.0,0.0,0.0,0.0,-1.7344,-1.7717,-1.8654,-1.9217,-1.982,-2.0682,-2.1408,-2.2127,-2.2873,-2.3503,-2.3999,-2.4297,-2.467,-2.4792,-2.4473,-2.4494,-2.4629,-2.4901,-2.4894,-2.488,-2.488,-2.488,-2.488,-2.488,-2.4901,-2.5036,-2.5267,-2.5287,-2.5287,-2.5321,-2.5287,-2.5287,-2.5321,-2.5287,-2.5321,-2.541,-2.5287,-2.5057,-2.4738,-2.4562,-2.4331,-2.41,-2.3856,-2.3877,-2.3101,-1.4786,-0.6765,-0.0,-0.0,-0.0,-0.0,-0.0,-1.0221,-2.1908,-1.5482,-1.7678,-2.2476,-2.2445,-2.2337,-2.2337,-2.2337,-2.2337,-2.2337,-2.2337,-2.2445,-2.2588,-2.2744,-2.2907,-2.3049,-2.3185,-2.3219,-2.3219,-2.3219,-2.3219,-2.3219,-2.3219,-2.3219,-2.3185,-2.3063,-2.292,-2.273,-2.2466,-2.2004,-2.1584,-2.1245,-2.058,-2.0217,-2.0232,-2.3778,-2.688,-2.9086,-3.1247,-3.2385,-3.2058,-3.16,-3.1125,-3.0651,-3.1526,-3.1978,-3.1978,-3.2776,-3.2543,-3.1666,-3.1784,-3.1773,-1.7989,-1.7216,-1.6714,-1.6998,-1.6998,-1.7283,0.0,-1.904,-1.9447,-2.0492,-2.1157,-2.1794,-2.2567,-2.3097,-2.368,-2.4419,-2.4616,-2.4772,-2.507,-2.5267,-2.543,-2.5498,-2.5287,-2.5199,-2.5376,-2.5267,-2.5179,-2.5179,-2.5179,-2.5179,-2.5179,-2.5321,-2.541,-2.543,-2.5443,-2.5498,-2.564,-2.5498,-2.5498,-2.564,-2.5498,-2.5376,-2.5247,-2.5233,-2.5003,-2.4582,-2.4297,-2.4155,-2.4121,-2.4087,-2.3999,-2.2977,-1.5207,-0.7116,-0.0,-0.0,-0.0,-0.0,-0.0,-0.9935,-2.2369,-2.1565,-2.1945,-2.2335,-2.2411,-2.2337,-2.2337,-2.2337,-2.2337,-2.2337,-2.2337,-2.2445,-2.2588,-2.2744,-2.2907,-2.3049,-2.3185,-2.3219,-2.3219,-2.3219,-2.3219,-2.3219,-2.3219,-2.3219,-2.3219,-2.3205,-2.3083,-2.292,-2.2744,-2.2215,-2.1686,-2.1265,-2.0668,-2.0872,-2.2618,-2.5031,-2.7361,-2.9827,-3.2417,-3.3668,-3.313,-3.3076,-3.3151,-3.2949,-3.3157,-3.3157,-3.3157,-3.2238,-3.1872,-3.1666,-3.1784,-3.177,-1.7982,-1.765,-1.7528,-1.7365,-1.7806,-1.8531,-1.9501,-1.9976,-2.0505,-2.1564,-2.2181,-2.2798,-2.3626,-2.4087,-2.4494,0.0,-2.5199,-2.5355,-2.5477,-2.562,-2.562,-2.5335,-2.5267,-2.5355,-2.5694,-2.5654,-2.5586,-2.5498,-2.5498,-2.5498,-2.5498,-2.5566,-2.564,-2.5708,-2.5728,-2.5742,-2.5817,-2.5742,-2.5742,-2.5817,-2.5742,-2.564,-2.5498,-2.541,-2.5077,-2.4548,-2.4351,-2.4209,-2.41,-2.3931,-2.3856,-2.3226,-1.5037,-0.7039,-0.0,-0.0,-0.0,-0.0,-0.0,-0.6996,-1.6815,-2.0994,-2.2563,-2.2669,-2.2411,-2.2337,-2.2337,-2.2337,-2.2337,-2.2337,-2.2337,-2.2378,-2.2479,-2.273,-2.2832,-2.294,-2.3171,-2.3219,-2.3219,-2.3219,-2.3219,-2.3219,-2.3219,-2.3219,-2.3219,-2.3219,-2.3171,-2.3083,-2.294,-2.2466,-2.1774,-2.0804,-2.0241,-2.0053,-2.0289,-2.4066,-2.6837,-2.7578,-3.1619,-3.3774,-3.3507,-3.3334,-3.3399,-3.3489,-3.3489,-3.3408,-3.3456,-3.227,-3.1618,-3.1666,-3.1784,-3.173,-1.7914,-1.7948,-1.8145,-1.7914,-1.8654,-1.9644,-2.0363,-2.0946,-2.1597,-2.2567,-2.313,-2.3666,-2.4406,-2.4772,-2.5057,-2.5321,-2.5586,-2.5742,-2.5742,-2.5728,-2.5511,-2.4969,-2.4847,-2.4935,-2.5254,-2.5477,-2.5586,-2.5566,-2.5566,-2.5566,-2.5566,-2.564,-2.5742,-2.585,-2.5884,-2.5905,-2.5905,-2.5905,-2.5905,-2.5905,-2.5905,-2.5817,-2.562,-2.541,-2.507,-2.467,-2.4453,-2.4311,-2.4189,-2.391,-2.3843,-2.3266,-1.4994,-0.7022,-0.0,-0.0,-0.0,-0.0,-0.0,-0.4935,-1.2692,-2.0103,-2.2529,-2.2622,-2.2411,-2.2337,-2.2337,-2.2337,-2.2337,-2.2337,-2.2337,-2.2337,-2.2411,-2.271,-2.2784,-2.2873,-2.3151,-2.3219,-2.3219,-2.3219,-2.3219,-2.3219,-2.3219,-2.3219,-2.3219,-2.3219,-2.3219,-2.3185,-2.3083,-2.2567,-2.176,-2.058,-1.9976,-1.9379,-1.8654,-2.2768,-2.5651,-2.6012,-3.1182,-3.4042,-3.3435,-3.3359,-3.3414,-3.3414,-3.3347,-3.3372,-3.3314,-3.2559,-3.2045,-3.1753,-3.2055,-3.2015,-1.786,-1.786,-1.8057,-1.8762,-1.9522,-2.0349,-2.1387,-2.2201,-2.294,-2.37,-2.4209,-2.4616,-2.4935,-2.5247,-2.5498,-2.5654,-2.5796,-2.5905,-2.5905,-2.5532,-2.5091,-2.4636,-2.4066,-2.3734,0.0,-2.4406,-2.4948,-2.5233,-2.5247,-2.5247,-2.5247,-2.5532,-2.5694,-2.5694,-2.583,-2.5905,-2.5905,-2.5905,-2.5905,-2.5905,-2.5905,-2.5742,-2.5464,-2.507,-2.4928,-2.4948,-2.4285,-2.4124,-2.411,-2.4189,-2.4046,-2.3062,-1.5228,-0.7137,-0.0,-0.0,-0.0,-0.0,-0.0,-0.4909,-1.2546,-2.0327,-2.2669,-2.2357,-2.2337,-2.2337,-2.2337,-2.2337,-2.2337,-2.2337,-2.2337,-2.2337,-2.2411,-2.271,-2.2784,-2.2873,-2.3151,-2.3219,-2.3219,-2.3219,-2.3219,-2.3219,-2.3219,-2.3219,-2.3219,-2.3219,-2.3219,-2.3219,-2.3219,-2.2445,-2.1597,-2.0845,-2.0105,-1.9413,-1.8816,-2.1183,-2.3603,-2.6022,-3.1744,-3.4676,-3.3448,-3.3359,-3.3414,-3.3414,-3.3359,-3.33,-3.3434,-3.3354,-3.2832,-3.169,-3.2832,-3.2969,-1.7914,-1.8375,-1.9081,-1.9834,-2.0648,-2.153,-2.2479,-2.3205,-2.3768,-2.4121,-2.4317,-2.4419,-2.4419,-2.4419,-2.4562,-2.5023,-2.5213,-2.5464,-2.585,-2.5776,-2.5247,-2.4121,-2.4066,-2.3802,-2.3008,0.0,0.0,-2.4894,-2.5036,-2.5213,-2.5511,-2.564,-2.5728,-2.583,-2.5884,-2.5905,-2.5905,-2.5905,-2.5905,-2.5905,-2.5708,-2.5532,-2.5376,-2.5138,-2.1844,-1.6758,-1.6602,-1.9294,-2.4157,-2.4209,-2.4087,-2.3742,-2.0661,-1.1566,-0.0,-0.0,-0.0,-0.0,-0.0,-0.1732,-0.5728,-1.8528,-2.2409,-2.2513,-2.2378,-2.2337,-2.2337,-2.2337,-2.2337,-2.2337,-2.2337,-2.2337,-2.2391,-2.2302,-2.271,-2.2832,-2.3042,-2.3151,-2.3219,-2.3219,-2.3219,-2.3219,-2.3219,-2.3219,-2.3219,-2.3219,-2.3219,-2.3117,-2.2818,-2.2255,-2.1597,-2.0858,-2.0105,-1.9447,-1.8959,-2.1261,-2.3266,-2.4599,-3.1258,-3.5031,-3.4652,-3.391,-3.3414,-3.3414,-3.3359,-3.2946,-3.2169,-3.2332,-3.2377,-3.2885,-3.2394,-3.234,-1.8321,-1.9115,-2.0085,-2.0845,-2.1652,-2.25,-2.3273,-2.3802,-2.4121,-2.4121,-2.4012,-2.3877,-2.3612,-2.3314,-2.3361,-2.4175,-2.4351,-2.4684,-2.5552,-2.5423,-2.4894,-2.3877,-2.3734,-2.3381,-2.2554,0.0,0.0,-2.4406,-2.467,-2.4948,-2.5355,-2.5518,-2.5674,-2.5817,-2.5884,-2.5905,-2.5905,-2.585,-2.5796,-2.5742,-2.5498,-2.5376,-2.5335,-2.1951,-1.5879,-0.8052,-0.799,-1.1003,-1.5857,-1.8737,-1.9865,-2.0169,-2.2538,-1.7264,-0.7961,-0.2062,-0.0,-0.0,-0.0,-0.0,-0.1713,-1.133,-1.8071,-2.2534,-2.2411,-2.2357,-2.2337,-2.2337,-2.2337,-2.2337,-2.2337,-2.2337,-2.2371,-2.2235,-2.2389,-2.2812,-2.2974,-2.3117,-2.3219,-2.3219,-2.3219,-2.3219,-2.3219,-2.3219,-2.3219,-2.3219,-2.3219,-2.3083,-2.2696,-2.2201,-2.1618,-2.0933,-2.0139,-1.9488,-1.9027,-2.0393,-2.1981,-2.3864,-2.7047,-3.0974,-3.5034,-3.3977,-3.3414,-3.3414,-3.3359,-3.2986,-3.23,-3.2062,-3.2358,-3.3198,-3.2377,-3.2337,-1.9094,-2.0064,-2.1034,-2.1774,-2.252,-2.3205,-2.3768,-2.4012,-2.4012,-2.37,-2.3361,-2.2995,-2.252,-2.1991,-2.2004,-2.3205,-2.3307,-2.3714,-2.507,-2.465,-2.4141,-2.3944,-2.3171,-2.2588,-2.2411,-2.2391,0.0,-2.3822,0.0,-2.4473,-2.4813,-2.5233,-2.5552,-2.5694,-2.583,-2.5905,-2.5905,-2.5762,-2.562,-2.5464,-2.5301,-2.5267,-2.4995,-1.6841,-0.8368,-0.0,-0.0,-0.0,-0.0609,-0.8157,-1.1451,-1.2349,-1.9893,-2.3451,-2.2102,-0.5899,-0.0,-0.0,-0.0,-0.0,-0.0,-0.0,-0.9536,-2.1269,-2.2121,-2.2371,-2.2337,-2.2337,-2.2337,-2.2337,-2.2337,-2.2337,-2.2371,-2.2235,-2.2369,-2.2523,-2.2974,-2.3117,-2.3219,-2.3219,-2.3219,-2.3219,-2.3219,-2.3219,-2.3219,-2.3219,-2.3219,-2.3117,-2.2818,-2.2255,-2.1652,-2.1068,-2.0443,-1.9736,-1.9047,-1.8823,-2.023,-2.3435,-1.9945,-2.3034,-3.4582,-3.399,-3.3427,-3.3414,-3.3359,-3.3422,-3.3422,-3.2902,-3.2754,-3.2794,-3.2767,-3.2902,-2.0404,-2.1299,-2.2113,-2.2866,-2.3361,-2.3734,-2.3999,-2.3999,-2.3768,-2.3137,-2.2411,-2.1652,-2.0878,-2.079,-2.1231,-2.2425,-2.3151,-2.4033,-2.5389,-2.541,-2.5023,-2.4317,0.0,-2.3768,-2.3063,-2.3097,0.0,0.0,-2.4141,-2.4507,-2.5254,-2.5518,-2.5694,-2.585,-2.5884,-2.5905,-2.5905,-2.5762,-2.562,-2.5464,-2.5301,-2.5233,-2.4928,-2.2933,-1.374,-0.0,-0.0,-0.0,-0.0305,-0.2112,-0.3,-0.3293,-0.5371,-1.3378,-2.2252,-0.5863,-0.0,-0.0,-0.0,-0.0,-0.0,-0.0,-0.2513,-0.7791,-1.9007,-2.2371,-2.2337,-2.2337,-2.2337,-2.2337,-2.2337,-2.2337,-2.2357,-2.2391,-2.2302,-2.2503,-2.2832,-2.3049,-2.3219,-2.3219,-2.3219,-2.3219,-2.3219,-2.3219,-2.3219,-2.3219,-2.3219,-2.3117,-2.3108,-2.282,-2.2208,-2.1343,-2.045,-1.977,-1.9183,-1.8877,-1.9113,-2.0149,-1.8769,-2.2732,-3.342,-3.3514,-3.3426,-3.3414,-3.3359,-3.3422,-3.3422,-3.2915,-3.2875,-3.33,-3.2861,-3.2585,-2.1509,-2.2303,-2.2974,-2.3592,-2.3822,-2.3843,-2.368,-2.3415,-2.2907,-2.1828,-2.1055,-2.0329,-1.9556,-1.9556,-2.0119,-2.153,-2.2391,0.0,-2.5077,-2.5179,-2.5003,0.0,-2.4636,-2.4372,-2.3856,-2.389,-2.41,0.0,-2.4331,-2.4562,-2.5321,-2.5566,-2.5762,-2.5905,-2.5905,-2.5864,-2.5817,-2.5654,-2.5532,-2.541,-2.5247,-2.5192,-2.4894,-2.5104,-1.9957,-1.0546,-0.3072,-0.0,-0.0,-0.0,-0.0,-0.0,-0.0,-0.5628,-1.2367,-0.3216,-0.0,-0.0,-0.0,-0.0,-0.0,-0.0,-0.0,-0.2788,-1.7651,-2.2168,-2.2405,-2.2371,-2.2371,-2.2357,-2.2337,-2.2337,-2.2337,-2.2337,-2.2281,-2.2489,-2.2784,-2.3015,-2.3219,-2.3219,-2.3219,-2.3219,-2.3219,-2.3219,-2.3219,-2.3219,-2.3219,-2.3117,-2.3108,-2.3102,-2.2483,-2.1603,-2.0776,-1.9859,-1.9237,-1.8967,-1.8754,-1.8698,-2.2943,-2.779,-3.3136,-3.3416,-3.3492,-3.3414,-3.3466,-3.3399,-3.3399,-3.3224,-3.3224,-3.3385,-3.2879,-3.2799,-2.2486,-2.3151,-2.37,-2.4087,-2.4033,-2.3734,-2.3097,-2.2534,-2.172,-2.0261,-1.9569,-1.904,-1.8464,-1.8409,-1.8993,-2.0668,0.0,-2.252,-2.4507,-2.4562,-2.4616,-2.5199,-2.4914,-2.4684,-2.4684,-2.467,-2.4772,-2.5091,-2.4738,-2.4738,-2.5267,-2.5566,-2.5776,-2.5905,-2.5905,-2.583,-2.5694,-2.5532,-2.543,-2.5335,-2.39,-2.3867,-2.4881,-2.4969,-2.3911,-2.0715,-0.6399,-0.0,-0.0,-0.0,-0.0,-0.0,-0.0,-0.0,-0.0,-0.0,-0.0,-0.0,-0.0,-0.0,-0.0,-0.0,-0.0,-0.2516,-1.5445,-1.9396,-1.9337,-1.9296,-2.0702,-2.2391,-2.2357,-2.2337,-2.2337,-2.2337,-2.2281,-2.2489,-2.3073,-2.33,-2.3219,-2.3219,-2.3219,-2.3219,-2.3219,-2.3219,-2.3219,-2.3219,-2.3219,-2.3117,-2.3108,-2.2827,-2.2476,-2.1343,-2.0832,-2.0178,-1.9237,-1.9035,-1.8872,-1.8594,-2.7705,-3.3086,-3.3628,-3.3573,-3.3382,-3.348,-3.3427,-3.3414,-3.3414,-3.3414,-3.3414,-3.34,-3.3146,-3.3146,-2.3415,-2.4019,-2.4385,-2.4473,-2.4195,-2.3666,-2.2818,-2.1815,-2.0682,-1.9447,-1.862,-1.7989,-1.7514,-1.7724,-1.8552,-2.0329,-2.1123,-2.2289,-2.4473,-2.4738,-2.4894,0.0,-2.5355,-2.5301,-2.5301,-2.5199,0.0,0.0,0.0,-2.5369,-2.5599,-2.5776,-2.5884,-2.5905,-2.5905,-2.5837,-2.6012,-2.5854,-2.5751,-2.5342,-1.8166,-1.8427,-2.5091,-2.5057,-1.7362,-0.4286,-0.1223,-0.0,-0.0,-0.0,-0.0,-0.0,-0.0,-0.0,-0.0,-0.0,-0.0,-0.0,-0.0,-0.0,-0.0,-0.0,-0.0,-0.0559,-0.3074,-0.3908,-0.3896,-0.3886,-1.2797,-2.2391,-2.2357,-2.2337,-2.2337,-2.2337,-2.2281,-2.2489,-2.3073,-2.33,-2.3219,-2.3219,-2.3219,-2.3219,-2.3219,-2.3219,-2.3219,-2.3219,-2.3219,-2.3117,-2.3108,-2.282,-2.1926,-2.0801,-2.022,-1.9805,-1.9727,-1.9035,-1.8644,-1.8124,-1.9958,-2.5033,-3.4426,-3.3837,-3.3626,-3.3828,-3.3547,-3.3414,-3.3414,-3.3414,-3.3414,-3.3414,-3.336,-3.324,-2.4019,-2.4507,-2.4826,-2.4894,-2.4277,-2.3347,-2.2127,-2.0933,-1.9698,-1.8335,-1.7772,-1.7426,-1.7134,-1.7575,-1.8342,-1.9434,-1.9997,-2.1055,-2.3314,-2.349,-2.3877,-2.5179,-2.541,-2.5518,-2.5674,-2.562,-2.564,-2.5796,0.0,-2.5722,-2.5796,-2.5864,-2.5905,-2.5905,-2.5837,-2.5762,-2.6012,-2.5786,-2.5683,-2.571,-2.1068,-1.6562,-1.1842,-1.211,-0.7709,-0.0,-0.0,-0.0,-0.0,-0.0,-0.0,-0.0,-0.0,-0.0,-0.0,-0.0,-0.0,-0.0,-0.0,-0.0,-0.0,-0.0,-0.0,-0.0,-0.0,-0.0,-0.0,-0.0,-1.0875,-2.2168,-2.2391,-2.2357,-2.2337,-2.2337,-2.2567,-2.2798,-2.3176,-2.3069,-2.3219,-2.3219,-2.3219,-2.3219,-2.3219,-2.3219,-2.3219,-2.3219,-2.3219,-2.3117,-2.3108,-2.2613,-2.1747,-2.0534,-2.0071,-1.9448,-1.9237,-1.8938,-1.862,-1.8479,-1.8002,-2.0404,-2.6012,-2.9198,-3.1048,-3.1588,-3.2742,-3.3414,-3.3414,-3.3414,-3.3414,-3.3414,-3.3414,-3.3334,-2.4317,-2.4758,-2.5036,-2.5125,-2.4189,-2.2886,-2.1441,-2.0119,-1.8796,-1.7433,-1.7148,-1.7114,-1.7005,-1.746,-1.8036,-1.862,-1.8905,-1.9834,-2.2093,-2.2323,-2.2961,-2.486,-2.5342,0.0,-2.583,-2.5884,0.0,0.0,0.0,0.0,-2.5918,-2.5884,-2.5871,-2.5871,-2.6047,-2.5944,-2.5586,-2.5362,-2.5587,-2.5676,-2.1733,-1.2817,-0.0,-0.0,-0.0,-0.0,-0.0,-0.0,-0.0,-0.0,-0.0,-0.0,-0.0,-0.0,-0.0,-0.0,-0.0,-0.0,-0.0,-0.0,-0.0,-0.0,-0.0,-0.0,-0.0,-0.0,-0.0,-0.0,-1.0908,-2.2214,-2.2425,-2.2371,-2.2357,-2.2371,-2.2588,-2.3108,-2.3265,-2.3117,-2.3219,-2.3219,-2.3219,-2.3219,-2.3219,-2.3219,-2.3219,-2.3219,-2.3219,-2.3117,-2.3108,-2.2682,-2.1828,-2.0855,-2.0205,-1.9635,-1.9093,-1.8872,-1.883,-1.8913,-1.8145,-1.8302,-1.9132,-2.4277,-2.7895,-2.9641,-3.1667,-3.2983,-3.3601,-3.3601,-3.3574,-3.3507,-3.3507,-3.348,-2.4209,-2.4684,-2.4982,-2.486,-2.3714,-2.2323,-2.1089,-1.9569,-1.8145,-1.7195,-1.6998,-1.6998,-1.6985,-1.7039,-1.7405,-1.8389,-1.8565,-1.9379,-2.1638,-2.2391,-2.3185,-2.4473,0.0,0.0,-2.5708,-2.583,0.0,0.0,0.0,0.0,-2.5986,-2.5817,-2.6047,-2.5803,-2.5909,-2.5731,-2.4948,-2.4934,-2.5192,-2.4827,-0.9678,-0.1557,-0.0,-0.0,-0.0,-0.0,-0.0,-0.0,-0.0,-0.0,-0.0,-0.0,-0.0,-0.0,-0.0,-0.0,-0.0,-0.0,-0.0,-0.0,-0.0,-0.0,-0.0,-0.0,-0.0,-0.0,-0.0,-0.0,-1.0645,-2.2268,-2.2168,-2.2405,-2.2425,-2.2235,-2.2369,-2.2523,-2.2981,-2.3117,-2.3219,-2.3219,-2.3219,-2.3219,-2.3219,-2.3219,-2.3219,-2.3219,-2.3219,-2.3117,-2.3108,-2.2682,-2.216,-2.1272,-2.0285,-1.9722,-1.9644,-1.9237,-1.8918,-1.8728,-1.8208,-1.9534,-2.3135,-2.3448,-2.5778,-3.0177,-3.0338,-3.1693,-3.4242,-3.4242,-3.4095,-3.3841,-3.3841,-3.3694,-2.368,-2.4473,-2.5003,-2.4948,-2.3592,-2.2025,-2.1001,-1.9359,-1.7846,-1.7127,-1.6978,-1.6978,-1.6978,-1.6978,-1.7114,-1.7528,-1.7297,-1.7738,-1.9732,-2.0139,-2.1068,-2.3361,-2.4209,0.0,0.0,0.0,0.0,0.0,0.0,0.0,-2.5871,-1.6024,-1.5014,-2.5052,-2.5209,-2.5389,-2.4981,-2.4928,-2.4881,-2.4861,-1.8205,-0.9686,-0.0,-0.0,-0.0,-0.0,-0.0,-0.0,-0.0,-0.0,-0.0,-0.0,-0.0,-0.0,-0.0,-0.0,-0.0,-0.0,-0.0,-0.0,-0.0,-0.0,-0.0,-0.0,-0.0,-0.0,-0.0,-0.0,-0.42,-1.0918,-1.9912,-2.2405,-2.2371,-2.2405,-2.2315,-2.2509,-2.3142,-2.3069,-2.3219,-2.3219,-2.3219,-2.3219,-2.3219,-2.3219,-2.3219,-2.3219,-2.3219,-2.3117,-2.2812,-2.2181,-2.1746,-2.1136,-2.0157,-1.9823,-1.9698,-1.9413,-1.9115,-1.8782,-1.8654,-1.9113,-2.0332,-2.1839,-2.4214,-2.7685,-2.9153,-3.1353,-3.4322,-3.4322,-3.4175,-3.3881,-3.3881,-3.3721,-2.2852,-2.3836,-2.4562,-2.4616,-2.3185,-2.1564,-2.0756,-1.9094,-1.7589,-1.7087,-1.6978,-1.6978,-1.6978,-1.6978,-1.6978,-1.6978,-1.6659,-1.6944,-1.8477,-1.8796,-1.9752,0.0,0.0,0.0,0.0,0.0,0.0,0.0,0.0,0.0,-2.6033,-1.4029,-1.0495,-1.7493,-1.7714,-1.7633,-1.7571,-2.2616,-2.2567,-1.7462,-1.7509,-1.1534,-0.0,-0.0,-0.0,-0.0,-0.0,-0.0,-0.0,-0.0,-0.0,-0.0,-0.0,-0.0,-0.0,-0.0,-0.0,-0.0,-0.0,-0.0,-0.0,-0.0,-0.0,-0.0,-0.0,-0.0,-0.0,-0.0,-0.0,-0.3349,-1.8514,-2.2425,-2.2337,-2.2337,-2.2281,-2.2489,-2.3073,-2.33,-2.3219,-2.3219,-2.3219,-2.3219,-2.3219,-2.3219,-2.3219,-2.3219,-2.3219,-2.3117,-2.2523,-2.2228,-2.1552,-2.0964,-2.0329,-2.0017,-1.9834,-1.961,-1.9585,-1.8993,-1.883,-1.862,-1.8308,-2.0094,-2.2278,-2.489,-2.7739,-3.0388,-3.3291,-3.4148,-3.4429,-3.4148,-3.4055,-3.3801,-2.1652,-2.2676,-2.3503,-2.3666,-2.2344,-2.0858,-2.0241,-1.8708,-1.7344,-1.7039,-1.6978,-1.6978,-1.6978,-1.6978,-1.6978,-1.6978,-1.7093,-1.7494,-1.8409,-1.9183,0.0,0.0,0.0,0.0,0.0,0.0,0.0,0.0,0.0,0.0,-2.5875,-2.5135,-1.707,-0.0629,-0.0313,-0.0311,-0.0309,-1.6772,-1.6721,-0.0306,-0.0307,-0.0307,-0.0,-0.0,-0.0,-0.0,-0.0,-0.0,-0.0,-0.0,-0.0,-0.0,-0.0,-0.0,-0.0,-0.0,-0.0,-0.0,-0.0,-0.0,-0.0,-0.0,-0.0,-0.0,-0.0,-0.0,-0.0,-0.0,-0.0,-0.3342,-1.8497,-2.2425,-2.2337,-2.2337,-2.2281,-2.2489,-2.3073,-2.33,-2.3219,-2.3219,-2.3219,-2.3219,-2.3219,-2.3219,-2.3219,-2.3219,-2.3219,-2.3117,-2.2818,-2.2228,-2.1552,-2.0964,-2.0767,-2.0319,-2.0132,-1.982,-1.959,-1.9434,-1.9006,-1.8762,-1.8762,-1.8477,-1.9578,-2.2472,-2.5319,-2.8273,-3.0834,-3.387,-3.5044,-3.475,-3.4456,-3.3988,-2.0596,-2.2234,-2.3421,-2.2483,-2.1776,-2.0916,-1.9516,-1.8199,-1.7209,-1.7019,-1.6978,-1.6978,-1.6978,-1.6978,-1.708,-1.7385,-1.7385,-1.7555,-1.8145,0.0,0.0,0.0,0.0,0.0,0.0,0.0,0.0,0.0,0.0,0.0,-2.5162,-2.5155,-1.7408,-0.0629,-0.0,-0.0,-0.0,-0.528,-0.5265,-0.0,-0.0,-0.0,-0.0,-0.0,-0.0,-0.0,-0.0,-0.0,-0.0,-0.0,-0.0,-0.0,-0.0,-0.0,-0.0,-0.0,-0.0,-0.0,-0.0,-0.0,-0.0,-0.0,-0.0,-0.0,-0.0,-0.0,-0.0,-0.0,-0.0,-0.3342,-1.8497,-2.2425,-2.2337,-2.2337,-2.2201,-2.2375,-2.3053,-2.3231,-2.3103,-2.3205,-2.3219,-2.3219,-2.3219,-2.3219,-2.3219,-2.3219,-2.313,-2.3008,-2.2798,-2.2425,-2.1766,-2.1631,-2.119,-2.075,-2.0295,-1.9976,-1.9752,-1.959,-1.9359,-1.9081,-1.8782,-1.8674,-1.9804,-2.2276,-2.5338,-2.8066,-3.0846,-3.3883,-3.5044,-3.475,-3.4456,-3.4108,-1.8742,-2.053,-2.1881,-2.1327,-2.0858,-2.0255,-1.9115,-1.7833,-1.7087,-1.6998,-1.6978,-1.6978,-1.6978,-1.6978,-1.7073,-1.7351,-1.7317,-1.7392,-1.7792,0.0,0.0,0.0,0.0,0.0,0.0,0.0,0.0,0.0,0.0,0.0,-2.4774,-1.8982,-1.0717,-0.0314,-0.0,-0.0,-0.0,-0.0,-0.0,-0.0,-0.0,-0.0,-0.0,-0.0,-0.0,-0.0,-0.0,-0.0,0.0,-0.0,-0.0,-0.0,-0.0,-0.0,-0.0,-0.0,-0.0,-0.0,-0.0,-0.0,-0.0,-0.0,-0.0,-0.0,-0.0,-0.0,-0.0,-0.0,-0.4193,-1.0603,-1.9924,-2.2425,-2.2337,-2.2337,-2.2168,-2.2302,-2.2744,-2.2907,-2.3334,-2.3185,-2.3219,-2.3219,-2.3219,-2.3219,-2.3219,-2.3219,-2.3097,-2.2954,-2.2798,-2.2391,-2.2004,-2.1706,-2.1265,-2.0858,-2.0526,-2.0227,-1.9963,-1.9752,-1.961,-1.9345,-1.8938,-1.8884,-1.9555,-2.0832,-2.3692,-2.6614,-2.9326,-3.3235,-3.5044,-3.4763,-3.4576,-3.4336,0.0,-1.7752,-1.9061,-1.9612,-1.9296,-1.8895,-1.8684,-1.7786,0.0,-1.6978,-1.6978,-1.6978,-1.6978,-1.6978,-1.6992,-1.7026,-1.7019,-1.7114,-1.7399,-1.7726,0.0,0.0,0.0,0.0,0.0,0.0,0.0,0.0,0.0,0.0,-2.2485,-0.8474,-0.0,-0.0,-0.0,-0.0,-0.0,-0.0,-0.0,-0.0,-0.0,-0.0,-0.0,-0.0,-0.0,-0.0,-0.0,-0.0,-0.0,-0.0,-0.0,-0.0,-0.0,-0.0,-0.0,-0.0,-0.0,-0.0,-0.0,-0.0,-0.0,-0.0,-0.0,-0.0,-0.0,-0.0,-0.0,-0.0,-1.008,-2.1062,-2.1929,-2.2425,-2.2337,-2.2337,-2.2168,-2.2302,-2.2436,-2.2886,-2.332,-2.3185,-2.3219,-2.3219,-2.3219,-2.3219,-2.3219,-2.3219,-2.3097,-2.294,-2.2798,-2.2391,-2.2004,-2.1726,-2.1299,-2.0967,-2.0811,-2.0505,-2.0207,-1.9908,-1.9752,-1.9535,-1.9237,-1.9094,-1.8816,-1.8355,-2.1438,-2.4117,-2.6765,-3.2373,-3.5057,-3.479,-3.479,-3.4629,-1.6245,0.0,-1.6815,-1.6996,-1.7319,-1.7412,0.0,-1.7174,-1.7051,-1.6958,-1.6978,-1.6978,-1.6978,-1.6978,-1.7093,-1.7655,-1.7614,-1.7836,-1.8958,0.0,0.0,0.0,0.0,0.0,0.0,0.0,0.0,0.0,0.0,-0.158,-0.5657,-0.2198,-0.0,-0.0,-0.0,-0.0,-0.0,-0.0,-0.0,-0.0,-0.0,-0.0,-0.0,-0.0,-0.0,-0.0,-0.0,-0.0,-0.0,-0.0,-0.0,-0.0,-0.0,-0.0,-0.0,-0.0,-0.0,-0.0,-0.0,-0.0,-0.0,-0.0,-0.0,-0.0,-0.0,-0.0,-0.0,-0.0,-0.2519,-0.7822,-1.9367,-2.2168,-2.2391,-2.2337,-2.2357,-2.2425,-2.2281,-2.273,-2.3183,-2.332,-2.3151,-2.3219,-2.3219,-2.3219,-2.3219,-2.3219,-2.2995,-2.2818,-2.2784,-2.2391,-2.2038,-2.1848,-2.153,-2.1231,-2.0967,-2.056,-2.0241,-2.0064,-1.9908,-1.9698,-1.9393,-1.9345,-1.9115,-1.8674,-2.3449,-2.7112,-3.0049,-3.3561,-3.5164,-3.5097,-3.5097,-3.4937,-1.6062,-1.6137,-1.6038,-1.6179,-1.6422,-1.6687,-1.6493,-1.6754,-1.701,-1.6951,-1.6978,-1.6978,-1.6978,-1.7023,-1.7065,-1.7385,-1.7387,-1.7586,0.0,0.0,0.0,0.0,0.0,0.0,0.0,0.0,0.0,0.0,0.0,-0.0,-0.0,-0.0,-0.0,-0.0,-0.0,-0.0,-0.0,-0.0,-0.0,-0.0,-0.0,-0.0,-0.0,-0.0,-0.0,-0.0,-0.0,-0.0,-0.0,-0.0,-0.0,-0.0,-0.0,-0.0,-0.0,-0.0,-0.0,-0.0,-0.0,-0.0,-0.0,-0.0,-0.0,-0.0,-0.0,-0.0,-0.0,-0.0,-0.0,-0.2793,-1.4265,-1.961,-2.2391,-2.2357,-2.2337,-2.2371,-2.2235,-2.2676,-2.3121,-2.2981,-2.3117,-2.3219,-2.3219,-2.3219,-2.3219,-2.3219,-2.3029,-2.2873,-2.2798,-2.2445,-2.216,-2.2004,-2.1652,-2.1367,-2.1211,-2.079,-2.0438,-2.0227,-2.0064,-1.9841,-1.9556,-1.9393,-1.9081,-1.8565,-2.4111,-2.7611,-2.926,-3.3286,-3.5391,-3.5391,-3.5257,-3.511,-1.6076,-1.6117,-1.6144,-1.6071,-1.6105,-1.6179,-1.6047,-1.654,-1.701,-1.6951,-1.6978,-1.6965,-1.6924,-1.6913,-1.6913,-1.6996,-1.55,0.0,0.0,0.0,0.0,0.0,0.0,0.0,0.0,0.0,0.0,0.0,0.0,-0.0,-0.0,-0.0,-0.0,-0.0,-0.0,-0.0,-0.0,-0.0,-0.0,-0.0,-0.0,-0.0,-0.0,-0.0,-0.0,-0.0,-0.0,-0.0,-0.0,-0.0,-0.0,-0.0,-0.0,-0.0,-0.0,-0.0,-0.0,-0.0,-0.0,-0.0,-0.0,-0.0,-0.0,-0.0,-0.0,-0.0,-0.0,-0.0,-0.0,-0.1398,-0.7817,-1.5926,-2.2405,-2.2357,-2.2337,-2.2371,-2.2214,-2.2635,-2.2798,-2.294,-2.3097,-2.3205,-2.3219,-2.3219,-2.3219,-2.3219,-2.3097,-2.2961,-2.2832,-2.2554,-2.2323,-2.216,-2.1774,-2.1509,-2.1441,-2.1089,-2.0736,-2.0417,-2.0227,-1.9997,-1.9712,-1.9379,-1.8972,-1.8464,-2.4182,-2.7146,-2.6964,-3.2853,-3.5698,-3.5698,-3.5444,-3.5338,-1.6031,-1.6071,-1.6071,-1.6098,-1.6105,-1.6179,-1.6047,-1.654,-1.701,-1.6951,-1.6978,-1.6904,-1.7064,-1.7087,-1.7047,0.0,0.0,0.0,0.0,0.0,0.0,0.0,0.0,0.0,0.0,0.0,0.0,0.0,0.0,-0.0,-0.0,-0.0,-0.0,-0.0,-0.0,-0.0,-0.0,-0.0,-0.0,-0.0,-0.0,-0.0,-0.0,-0.0,-0.0,-0.0,-0.0,-0.0,-0.0,-0.0,-0.0,-0.0,-0.0,-0.0,-0.0,-0.0,-0.0,-0.0,-0.0,-0.0,-0.0,-0.0,-0.0,-0.0,-0.0,-0.0,-0.0,-0.0,-0.0,-0.028,-0.1398,-1.2024,-2.2181,-2.2405,-2.2371,-2.2337,-2.2371,-2.2479,-2.2642,-2.2784,-2.294,-2.3083,-2.3205,-2.3219,-2.3219,-2.3219,-2.3097,-2.3008,-2.2974,-2.271,-2.2466,-2.2323,-2.2127,-2.1848,-2.1475,-2.1367,-2.1157,-2.0736,-2.0451,-2.0153,-1.9854,-1.9434,-1.9169,-1.9061,-2.4576,-2.7429,-2.7408,-3.321,-3.6006,-3.6006,-3.5965,-3.5939,-1.6164,-1.6392,-1.662,-1.6501,-1.6613,-1.6501,-1.6501,-1.6708,-1.7049,-1.6913,-1.6948,-1.6948,-1.6931,0.0,-1.5006,-0.886,0.0,0.0,0.0,0.0,0.0,0.0,0.0,0.0,0.0,0.0,0.0,0.0,0.0,-0.0,-0.0,-0.0,-0.0,-0.0,-0.0,-0.0,-0.0,-0.0,-0.0,-0.0,-0.0,-0.0,-0.0,-0.0,-0.0,-0.0,-0.0,-0.0,-0.0,-0.0,-0.0,-0.0,-0.0,-0.0,-0.0,-0.0,-0.0,-0.0,-0.0,-0.0,-0.0,-0.0,-0.0,-0.0,-0.0,-0.0,-0.0,-0.0,-0.0,-0.0,-0.0,-0.5029,-1.2295,-2.0431,-2.2391,-2.2371,-2.2337,-2.2445,-2.2608,-2.2744,-2.2907,-2.3063,-2.3205,-2.3219,-2.3219,-2.3219,-2.3171,-2.3097,-2.3029,-2.2886,-2.271,-2.2479,-2.2323,-2.2113,-2.1828,-2.1584,-2.1211,-2.0682,-2.0451,-2.0153,-1.9766,-1.9556,-1.9345,-1.9094,-2.4836,-2.7813,-2.7702,-3.3678,-3.654,-3.654,-3.654,-3.654,-1.6123,-1.6364,-1.6806,-1.6827,-1.49,-1.2985,-1.2946,-1.2963,-1.2939,-1.3064,-1.3079,-1.309,-1.2966,0.0,0.0,0.0,0.0,0.0,0.0,0.0,0.0,0.0,0.0,0.0,0.0,0.0,0.0,0.0,0.0,-0.0,-0.0,-0.0,-0.0,-0.0,-0.0,-0.0,-0.0,-0.0,-0.0,-0.0,-0.0,-0.0,-0.0,-0.0,-0.0,-0.0,-0.0,-0.0,-0.0,-0.0,-0.0,-0.0,-0.0,-0.0,-0.0,-0.0,-0.0,-0.0,-0.0,-0.0,-0.0,-0.0,-0.0,-0.0,-0.0,-0.0,-0.0,-0.0,-0.0,-0.0,-0.0,-0.0,-0.2793,-1.4248,-1.9857,-2.2391,-2.2357,-2.2432,-2.2554,-2.2696,-2.2852,-2.3008,-2.3151,-2.3205,-2.3219,-2.3219,-2.3219,-2.3185,-2.3083,-2.3029,-2.292,-2.2696,-2.25,-2.2323,-2.2127,-2.1706,-2.1245,-2.079,-2.0526,-2.0227,-1.9888,-1.9732,-1.9977,-2.0318,-2.5542,-2.8416,-2.9175,-3.4408,-3.7155,-3.7155,-3.7155,-3.7155,-1.6051,-1.6179,-1.6192,-1.6227,-0.865,-0.1235,-0.1278,-0.1296,-0.1314,-0.1128,-0.1127,-0.1116,-0.1322,0.0,0.0,0.0,0.0,0.0,0.0,0.0,0.0,0.0,0.0,0.0,0.0,0.0,0.0,0.0,0.0,-0.0,-0.0,-0.0,-0.0,-0.0,-0.0,-0.0,-0.0,-0.0,-0.0,-0.0,-0.0,-0.0,-0.0,-0.0,-0.0,-0.0,-0.0,-0.0,-0.0,-0.0,-0.0,-0.0,-0.0,-0.0,-0.0,-0.0,-0.0,-0.0,-0.0,-0.0,-0.0,-0.0,-0.0,-0.0,-0.0,-0.0,-0.0,-0.0,-0.0,-0.0,-0.0,-0.0,-0.0279,-0.1396,-1.2284,-2.2405,-2.2405,-2.2371,-2.2391,-2.2534,-2.2696,-2.2852,-2.2995,-2.313,-2.3219,-2.3219,-2.3219,-2.3219,-2.3205,-2.3097,-2.3008,-2.2974,-2.271,-2.2432,-2.2127,-2.1706,-2.1421,-2.1367,-2.0838,-2.0505,-2.0471,-1.9963,-2.1071,-2.3887,-2.6838,-2.9869,-3.2884,-3.6142,-3.7742,-3.7742,-3.7742,-3.7742,-1.6185,-1.6058,-1.6098,-1.6627,-1.3689,-1.0561,-1.0525,-0.5117,-0.0,-0.0,-0.0,-0.0,-0.0,0.0,0.0,0.0,0.0,0.0,0.0,0.0,0.0,0.0,0.0,0.0,0.0,0.0,0.0,0.0,-0.0,-0.0,-0.0,-0.0,-0.0,-0.0,-0.0,-0.0,-0.0,-0.0,-0.0,-0.0,-0.0,-0.0,-0.0,-0.0,-0.0,-0.0,-0.0,-0.0,-0.0,-0.0,-0.0,-0.0,-0.0,-0.0,-0.0,-0.0,-0.0,-0.0,-0.0,-0.0,-0.0,-0.0,-0.0,-0.0,-0.0,-0.0,-0.0,-0.0,-0.0,-0.0,-0.0,-0.0,-0.0,-0.0,-0.781,-1.677,-2.1269,-2.2371,-2.2378,-2.252,-2.2676,-2.2832,-2.2974,-2.313,-2.3219,-2.3219,-2.3219,-2.3219,-2.3219,-2.3171,-2.3117,-2.3029,-2.2818,-2.2567,-2.2289,-2.2093,-2.1882,-2.1597,-2.1109,-2.0736,-2.0539,-2.0329,-2.0616,-2.1638,-2.6436,-2.9611,-3.0805,-3.6029,-3.8544,-3.8397,-3.8571,-3.8544,-1.1987,-1.1016,-1.2048,-1.5957,-1.6953,-1.6092,-1.2428,-0.5663,-0.0,-0.0,-0.0,-0.0,-0.0,-0.0,0.0,0.0,0.0,0.0,0.0,0.0,0.0,0.0,0.0,0.0,0.0,0.0,0.0,0.0,-0.0,-0.0,-0.0,-0.0,-0.0,-0.0,-0.0,-0.0,-0.0,-0.0,-0.0,-0.0,-0.0,-0.0,-0.0,-0.0,-0.0,-0.0,-0.0,-0.0,-0.0,-0.0,-0.0,-0.0,-0.0,-0.0,-0.0,-0.0,-0.0,-0.0,-0.0,-0.0,-0.0,-0.0,-0.0,-0.0,-0.0,-0.0,-0.0,-0.0,-0.0,-0.0,-0.0,-0.0,-0.0,-0.0,-0.391,-1.0331,-2.0165,-2.2391,-2.2391,-2.2466,-2.2608,-2.2764,-2.2907,-2.3063,-2.3171,-2.3219,-2.3219,-2.3219,-2.3219,-2.3219,-2.3171,-2.3029,-2.292,-2.2744,-2.25,-2.2391,-2.2215,-2.1903,-2.1462,-2.1068,-2.077,-2.0614,-2.0936,-2.172,-2.6864,-3.0094,-3.1078,-3.6628,-3.9199,-3.9012,-3.9199,-3.9118,-0.295,-0.0,-0.2762,-1.4189,-1.7009,-1.3808,-0.2501,-0.0,-0.0,-0.0,-0.0,-0.0,-0.0,-0.0,0.0,0.0,0.0,0.0,0.0,0.0,0.0,0.0,0.0,0.0,0.0,0.0,0.0,0.0,-0.0,-0.0,-0.0,-0.0,-0.0,-0.0,-0.0,-0.0,-0.0,-0.0,-0.0,-0.0,-0.0,-0.0,-0.0,-0.0,-0.0,-0.0,-0.0,-0.0,-0.0,-0.0,-0.0,-0.0,-0.0,-0.0,-0.0,-0.0,-0.0,-0.0,-0.0,-0.0,-0.0,-0.0,-0.0,-0.0,-0.0,-0.0,-0.0,-0.0,-0.0,-0.0,-0.0,-0.0,-0.0,-0.0,-0.0,-0.419,-1.8804,-2.2161,-2.2391,-2.2357,-2.2466,-2.2608,-2.2744,-2.2907,-2.3063,-2.3205,-2.3219,-2.3219,-2.3219,-2.3219,-2.3171,-2.3029,-2.3008,-2.2961,-2.2798,-2.2513,-2.2337,-2.2337,-2.1916,-2.153,-2.1231,-2.079,-2.204,-2.5273,-2.8104,-3.1311,-3.4458,-3.7908,-3.9599,-3.9599,-3.9599,-3.9452,-0.0812,-0.0,0.0,-1.4059,-1.0949,-0.4113,-0.07,-0.0,-0.0,-0.0,-0.0,-0.0,-0.0,-0.0,0.0,0.0,0.0,0.0,0.0,0.0,0.0,0.0,0.0,0.0,0.0,0.0,0.0,-0.0,-0.0,-0.0,-0.0,-0.0,-0.0,-0.0,-0.0,-0.0,-0.0,-0.0,-0.0,-0.0,-0.0,-0.0,-0.0,-0.0,-0.0,-0.0,-0.0,-0.0,-0.0,-0.0,-0.0,-0.0,-0.0,-0.0,-0.0,-0.0,-0.0,-0.0,-0.0,-0.0,-0.0,-0.0,-0.0,-0.0,-0.0,-0.0,-0.0,-0.0,-0.0,-0.0,-0.0,-0.0,-0.0,-0.0,-0.0,-0.1118,-0.5589,-1.4809,-2.2405,-2.2391,-2.2479,-2.2608,-2.2744,-2.2907,-2.3063,-2.3205,-2.3219,-2.3219,-2.3219,-2.3219,-2.3205,-2.3171,-2.3151,-2.3097,-2.2961,-2.2866,-2.2676,-2.2357,-2.2215,-2.1916,-2.1387,-2.1143,-2.1423,-2.223,-2.5382,-2.8501,-3.1809,-3.5018,-3.7873,-3.9893,-3.9893,-3.9626,-0.0,-0.0,0.0,-0.8462,-0.5125,-0.0,-0.0,0.0,-0.0,-0.0,-0.0,-0.0,-0.0,-0.0,0.0,0.0,0.0,0.0,0.0,0.0,0.0,0.0,0.0,0.0,0.0,0.0,0.0,-0.0,-0.0,-0.0,-0.0,-0.0,-0.0,-0.0,-0.0,-0.0,-0.0,-0.0,-0.0,-0.0,-0.0,-0.0,-0.0,-0.0,-0.0,-0.0,-0.0,-0.0,-0.0,-0.0,-0.0,-0.0,-0.0,-0.0,-0.0,-0.0,-0.0,-0.0,-0.0,-0.0,-0.0,-0.0,-0.0,-0.0,-0.0,-0.0,-0.0,-0.0,-0.0,-0.0,-0.0,-0.0,-0.0,-0.0,-0.0,-0.0,-0.0,-0.6978,-1.5082,-2.1282,-2.2459,-2.2534,-2.2676,-2.2818,-2.2974,-2.3117,-2.3185,-2.3219,-2.3219,-2.3219,-2.3219,-2.3219,-2.3219,-2.3185,-2.3097,-2.3042,-2.2866,-2.2534,-2.2411,-2.2147,-2.172,-2.1441,-2.1197,-2.0946,-2.4133,-2.6774,-2.8643,-3.3291,-3.6394,-3.8216,-3.9692,-3.996,-0.0,-0.0,0.0,-0.0,-0.0,0.0,-0.0,-0.0,-0.0,-0.0,0.0,-0.0,-0.0,0.0,0.0,0.0,0.0,0.0,0.0,0.0,0.0,0.0,0.0,0.0,0.0,0.0,-0.0,-0.0,-0.0,-0.0,-0.0,-0.0,-0.0,-0.0,-0.0,-0.0,-0.0,-0.0,-0.0,-0.0,-0.0,-0.0,-0.0,-0.0,-0.0,-0.0,-0.0,-0.0,-0.0,-0.0,-0.0,-0.0,-0.0,-0.0,-0.0,-0.0,-0.0,-0.0,-0.0,-0.0,-0.0,-0.0,-0.0,-0.0,-0.0,-0.0,-0.0,-0.0,-0.0,-0.0,-0.0,-0.0,-0.0,-0.0,-0.0,-0.0,-0.0,-0.0,-0.4187,-1.8458,-2.1837,-2.2445,-2.2534,-2.2676,-2.2832,-2.3008,-2.313,-2.3219,-2.3219,-2.3219,-2.3219,-2.3219,-2.3219,-2.3219,-2.3219,-2.3097,-2.2961,-2.2818,-2.2534,-2.2303,-2.2147,-2.1706,-2.1387,-2.1231,-2.4025,-2.56,-2.5821,-3.1651,-3.4983,-3.5486,-3.8727,-4.0053,-0.0,-0.0,0.0,0.0,-0.0,-0.0,-0.0,-0.0,-0.0,-0.0,-0.0,-0.0,0.0,0.0,0.0,0.0,0.0,0.0,0.0,0.0,0.0,0.0,0.0,0.0,0.0,0.0,-0.0,-0.0,-0.0,-0.0,-0.0,-0.0,-0.0,-0.0,-0.0,-0.0,-0.0,-0.0,-0.0,-0.0,-0.0,-0.0,-0.0,-0.0,-0.0,-0.0,-0.0,-0.0,-0.0,-0.0,-0.0,-0.0,-0.0,-0.0,-0.0,-0.0,-0.0,-0.0,-0.0,-0.0,-0.0,-0.0,-0.0,-0.0,-0.0,-0.0,-0.0,-0.0,-0.0,-0.0,-0.0,-0.0,-0.0,-0.0,-0.0,-0.0,-0.0,-0.0,-0.2793,-1.1727,-1.8175,-2.2445,-2.2534,-2.2676,-2.2873,-2.313,-2.3205,-2.3219,-2.3219,-2.3219,-2.3219,-2.3219,-2.3219,-2.3219,-2.3219,-2.3185,-2.3117,-2.2974,-2.2784,-2.2567,-2.2303,-2.1862,-2.155,-2.1387,-2.1984,-2.3305,-2.5829,-2.7289,-3.0444,-3.5474,-3.6221,-3.7819,-0.0,0.0,0.0,-0.0,0.0,-0.0,-0.0,-0.0,-0.0,-0.0,0.0,0.0,0.0,0.0,0.0,0.0,0.0,0.0,0.0,0.0,0.0,0.0,0.0,0.0,0.0,-0.0,-0.0,-0.0,-0.0,-0.0,-0.0,-0.0,-0.0,-0.0,-0.0,-0.0,-0.0,-0.0,-0.0,-0.0,-0.0,-0.0,-0.0,-0.0,-0.0,-0.0,-0.0,-0.0,-0.0,-0.0,-0.0,-0.0,-0.0,-0.0,-0.0,-0.0,-0.0,-0.0,-0.0,-0.0,-0.0,-0.0,-0.0,-0.0,-0.0,-0.0,-0.0,-0.0,-0.0,-0.0,-0.0,-0.0,-0.0,-0.0,-0.0,-0.0,-0.0,-0.0,-0.3357,-1.4291,-1.9639,-2.2459,-2.2479,-2.2656,-2.2852,-2.3083,-2.3185,-2.3219,-2.3219,-2.3219,-2.3219,-2.3219,-2.3219,-2.3219,-2.3219,-2.3219,-2.3171,-2.3029,-2.2873,-2.2676,-2.2445,-2.2079,-2.1774,-2.155,-2.1333,-2.1878,-2.3418,-2.5115,-2.7488,-3.0761,-3.2258,-3.4925,-0.0,0.0,-0.0,-0.0,-0.0,0.0,-0.0,-0.0,-0.0,0.0,0.0,0.0,0.0,0.0,0.0,0.0,0.0,0.0,0.0,0.0,0.0,0.0,0.0,0.0,0.0,-0.0,-0.0,-0.0,-0.0,-0.0,-0.0,-0.0,-0.0,-0.0,-0.0,-0.0,-0.0,-0.0,-0.0,-0.0,-0.0,-0.0,-0.0,-0.0,-0.0,-0.0,-0.0,-0.0,-0.0,-0.0,-0.0,-0.0,-0.0,-0.0,-0.0,-0.0,-0.0,-0.0,-0.0,-0.0,-0.0,-0.0,-0.0,-0.0,-0.0,-0.0,-0.0,-0.0,-0.0,-0.0,-0.0,-0.0,-0.0,-0.0,-0.0,-0.0,-0.0,-0.0,-0.3926,-1.7731,-2.1385,-2.2201,-2.2445,-2.2601,-2.2798,-2.2974,-2.3117,-2.3185,-2.3219,-2.3219,-2.3219,-2.3219,-2.3219,-2.3219,-2.3219,-2.3219,-2.3171,-2.3049,-2.2907,-2.2744,-2.2608,-2.2303,-2.2004,-2.1706,-2.1441,-2.1197,-2.1001,-2.3675,-2.5246,-2.5542,-2.8289,-3.1742,-0.0,0.0,-0.0,0.0,-0.0,-0.0,0.0,0.0,0.0,0.0,0.0,0.0,0.0,0.0,0.0,0.0,0.0,0.0,0.0,0.0,0.0,0.0,0.0,0.0,-0.0,-0.0,-0.0,-0.0,-0.0,-0.0,-0.0,-0.0,-0.0,-0.0,-0.0,-0.0,-0.0,-0.0,-0.0,-0.0,-0.0,-0.0,-0.0,-0.0,-0.0,-0.0,-0.0,-0.0,-0.0,-0.0,-0.0,-0.0,-0.0,-0.0,-0.0,-0.0,-0.0,-0.0,-0.0,-0.0,-0.0,-0.0,-0.0,-0.0,-0.0,-0.0,-0.0,-0.0,-0.0,-0.0,-0.0,-0.0,-0.0,-0.0,-0.0,-0.0,-0.0,-0.0,-0.2523,-1.0935,-1.7935,-2.2445,-2.252,-2.2554,-2.2676,-2.2974,-2.3029,-2.3083,-2.3205,-2.3219,-2.3219,-2.3219,-2.3219,-2.3219,-2.3219,-2.3219,-2.3219,-2.3185,-2.3063,-2.2907,-2.2764,-2.2466,-2.216,-2.1862,-2.1692,-2.1408,-2.1001,-2.1499,-2.2845,-2.5542,-2.6044,-2.9508,-0.0,-0.0,-0.0,0.0,-0.0,-0.0,-0.0,0.0,0.0,0.0,0.0,0.0,0.0,0.0,0.0,0.0,0.0,0.0,0.0,0.0,0.0,0.0,0.0,0.0,-0.0,-0.0,-0.0,-0.0,-0.0,-0.0,-0.0,-0.0,-0.0,-0.0,-0.0,-0.0,-0.0,-0.0,-0.0,-0.0,-0.0,-0.0,-0.0,-0.0,-0.0,-0.0,-0.0,-0.0,-0.0,-0.0,-0.0,-0.0,-0.0,-0.0,-0.0,-0.0,-0.0,-0.0,-0.0,-0.0,-0.0,-0.0,-0.0,-0.0,-0.0,-0.0,-0.0,-0.0,-0.0,-0.0,-0.0,-0.0,-0.0,-0.0,-0.0,-0.0,-0.0,-0.0,-0.0841,-0.4197,-1.427,-2.2459,-2.2466,-2.252,-2.2622,-2.2852,-2.2961,-2.3063,-2.3205,-2.3219,-2.3219,-2.3219,-2.3219,-2.3219,-2.3219,-2.3219,-2.3219,-2.3219,-2.3083,-2.294,-2.2784,-2.2567,-2.2323,-2.2025,-2.1794,-2.1496,-2.1123,-2.1034,-2.166,-2.2928,-2.2845,-2.6286,-0.0,0.0,-0.0,-0.0,-0.0,-0.0,0.0,0.0,0.0,0.0,0.0,0.0,0.0,0.0,0.0,0.0,0.0,0.0,0.0,0.0,0.0,0.0,0.0,-0.0,-0.0,-0.0,-0.0,-0.0,-0.0,-0.0,-0.0,-0.0,-0.0,-0.0,-0.0,-0.0,-0.0,-0.0,-0.0,-0.0,-0.0,-0.0,-0.0,-0.0,-0.0,-0.0,-0.0,-0.0,-0.0,-0.0,-0.0,-0.0,-0.0,-0.0,-0.0,-0.0,-0.0,-0.0,-0.0,-0.0,-0.0,-0.0,-0.0,-0.0,-0.0,-0.0,-0.0,-0.0,-0.0,-0.0,-0.0,-0.0,-0.0,-0.0,-0.0,-0.0,-0.0,-0.0,-0.0,-0.0,-1.0619,-2.019,-2.1863,-2.2466,-2.2567,-2.2744,-2.2886,-2.3008,-2.3205,-2.3219,-2.3219,-2.3219,-2.3219,-2.3219,-2.3219,-2.3219,-2.3219,-2.3219,-2.3117,-2.2995,-2.2852,-2.2696,-2.2466,-2.2181,-2.1916,-2.1618,-2.1265,-2.1123,-2.0967,-2.077,-2.0648,-2.3581,-0.0,-0.0,0.0,-0.0,0.0,0.0,0.0,0.0,0.0,0.0,0.0,0.0,0.0,0.0,0.0,0.0,0.0,0.0,0.0,0.0,0.0,0.0,0.0,-0.0,-0.0,-0.0,-0.0,-0.0,-0.0,-0.0,-0.0,-0.0,-0.0,-0.0,-0.0,-0.0,-0.0,-0.0,-0.0,-0.0,-0.0,-0.0,-0.0,-0.0,-0.0,-0.0,-0.0,-0.0,-0.0,-0.0,-0.0,-0.0,-0.0,-0.0,-0.0,-0.0,-0.0,-0.0,-0.0,-0.0,-0.0,-0.0,-0.0,-0.0,-0.0,-0.0,-0.0,-0.0,-0.0,-0.0,-0.0,-0.0,-0.0,-0.0,-0.0,-0.0,-0.0,-0.0,-0.0,-0.0,-0.6419,-1.3966,-2.1005,-2.2371,-2.2445,-2.2744,-2.2784,-2.2907,-2.3185,-2.3219,-2.3219,-2.3219,-2.3219,-2.3219,-2.3219,-2.3219,-2.3219,-2.3219,-2.3219,-2.3151,-2.3008,-2.2852,-2.2622,-2.2337,-2.216,-2.1862,-2.1421,-2.1279,-2.1055,-2.077,-2.077,-2.2441,-0.0,-0.0,0.0,-0.0,-0.0,0.0,0.0,0.0,0.0,0.0,0.0,0.0,0.0,0.0,0.0,0.0,0.0,0.0,0.0,0.0,0.0,0.0,0.0,-0.0,-0.0,-0.0,-0.0,-0.0,-0.0,-0.0,-0.0,-0.0,-0.0,-0.0,-0.0,-0.0,-0.0,-0.0,-0.0,-0.0,-0.0,-0.0,-0.0,-0.0,-0.0,-0.0,-0.0,-0.0,-0.0,-0.0,-0.0,-0.0,-0.0,-0.0,-0.0,-0.0,-0.0,-0.0,-0.0,-0.0,-0.0,-0.0,-0.0,-0.0,-0.0,-0.0,-0.0,-0.0,-0.0,-0.0,-0.0,-0.0,-0.0,-0.0,-0.0,-0.0,-0.0,-0.0,-0.0,-0.0,-0.6147,-1.3691,-2.1036,-2.2391,-2.2411,-2.2608,-2.271,-2.2852,-2.3063,-2.3171,-2.3219,-2.3219,-2.3219,-2.3219,-2.3219,-2.3219,-2.3219,-2.3219,-2.3219,-2.3151,-2.3008,-2.2961,-2.2784,-2.2479,-2.2337,-2.2038,-2.1584,-2.1441,-2.1245,-2.1055,-2.0967,-2.2669,-0.0,-0.0,-0.0,0.0,0.0,0.0,0.0,0.0,0.0,0.0,0.0,0.0,0.0,0.0,0.0,0.0,0.0,0.0,0.0,0.0,0.0,0.0,-0.0,-0.0,-0.0,-0.0,-0.0,-0.0,-0.0,-0.0,-0.0,-0.0,-0.0,-0.0,-0.0,-0.0,-0.0,-0.0,-0.0,-0.0,-0.0,-0.0,-0.0,-0.0,-0.0,-0.0,-0.0,-0.0,-0.0,-0.0,-0.0,-0.0,-0.0,-0.0,-0.0,-0.0,-0.0,-0.0,-0.0,-0.0,-0.0,-0.0,-0.0,-0.0,-0.0,-0.0,-0.0,-0.0,-0.0,-0.0,-0.0,-0.0,-0.0,-0.0,-0.0,-0.0,-0.0,-0.0,-0.0,-0.0,-0.3914,-1.061,-2.0499,-2.2425,-2.2411,-2.2534,-2.2642,-2.2784,-2.2995,-2.3097,-2.3171,-2.3219,-2.3219,-2.3219,-2.3219,-2.3219,-2.3219,-2.3219,-2.3219,-2.3185,-2.3083,-2.3029,-2.292,-2.271,-2.252,-2.2215,-2.1815,-2.1618,-2.1408,-2.1211,-2.1123,-2.2802,0.0,0.0,0.0,-0.0,0.0,0.0,0.0,0.0,0.0,0.0,0.0,0.0,0.0,0.0,0.0,0.0,0.0,0.0,0.0,0.0,0.0,0.0,-0.0,-0.0,-0.0,-0.0,-0.0,-0.0,-0.0,-0.0,-0.0,-0.0,-0.0,-0.0,-0.0,-0.0,-0.0,-0.0,-0.0,-0.0,-0.0,-0.0,-0.0,-0.0,-0.0,-0.0,-0.0,-0.0,-0.0,-0.0,-0.0,-0.0,-0.0,-0.0,-0.0,-0.0,-0.0,-0.0,-0.0,-0.0,-0.0,-0.0,-0.0,-0.0,-0.0,-0.0,-0.0,-0.0,-0.0,-0.0,-0.0,-0.0,-0.0,-0.0,-0.0,-0.0,-0.0,-0.0,-0.0,-0.0,-0.0,-0.4749,-1.9373,-2.2161,-2.2445,-2.2534,-2.2554,-2.2662,-2.2961,-2.3008,-2.3063,-2.3205,-2.3219,-2.3219,-2.3219,-2.3205,-2.3205,-2.3205,-2.3205,-2.3205,-2.3205,-2.3083,-2.2995,-2.2995,-2.271,-2.2411,-2.2113,-2.1815,-2.1509,-2.1211,-2.1211,-2.2861,-0.0,0.0,0.0,0.0,0.0,0.0,-0.0,-0.0,0.0,0.0,0.0,0.0,0.0,0.0,0.0,0.0,0.0,0.0,0.0,0.0,0.0,0.0,-0.0,-0.0,-0.0,-0.0,-0.0,0.0,-0.0,-0.0,-0.0,-0.0,-0.0,-0.0,-0.0,-0.0,-0.0,-0.0,-0.0,-0.0,-0.0,-0.0,-0.0,-0.0,-0.0,-0.0,-0.0,-0.0,-0.0,-0.0,-0.0,-0.0,-0.0,-0.0,-0.0,-0.0,-0.0,-0.0,-0.0,-0.0,-0.0,-0.0,-0.0,-0.0,-0.0,-0.0,-0.0,-0.0,-0.0,-0.0,-0.0,-0.0,-0.0,-0.0,-0.0,-0.0,-0.0,-0.0,-0.0,-0.0,-0.0,-0.3073,-1.2578,-1.8741,-2.2411,-2.2391,-2.2479,-2.2622,-2.2818,-2.294,-2.3063,-2.3205,-2.313,-2.3063,-2.3063,-2.2974,-2.2907,-2.2907,-2.2907,-2.2907,-2.2907,-2.2873,-2.2798,-2.2676,-2.2588,-2.2357,-2.195,-2.1862,-2.1672,-2.1367,-2.1367,-2.1735,-0.0,-0.0,-0.0,-0.0,0.0,0.0,-0.0,-0.0,-0.0,0.0,0.0,0.0,0.0,0.0,0.0,0.0,0.0,0.0,0.0,0.0,0.0,0.0,-0.0,-0.0,-0.0,-0.0,-0.0,-0.0,-0.0,-0.0,-0.0,-0.0,-0.0,-0.0,-0.0,-0.0,-0.0,-0.0,-0.0,-0.0,-0.0,-0.0,-0.0,-0.0,-0.0,-0.0,-0.0,-0.0,-0.0,-0.0,-0.0,-0.0,-0.0,-0.0,-0.0,-0.0,-0.0,-0.0,-0.0,-0.0,-0.0,-0.0,-0.0,-0.0,-0.0,-0.0,-0.0,-0.0,-0.0,-0.0,-0.0,-0.0,-0.0,-0.0,-0.0,-0.0,-0.0,-0.0,-0.0,-0.0,-0.0,-0.1398,-0.5864,-1.537,-2.2405,-2.2303,-2.2323,-2.2432,-2.2567,-2.2676,-2.2818,-2.3008,-2.2961,-2.292,-2.292,-2.2832,-2.2784,-2.2784,-2.2784,-2.2784,-2.2784,-2.2784,-2.2744,-2.2656,-2.2588,-2.2323,-2.1882,-2.1882,-2.1726,-2.1441,-2.1441,-2.1319,-0.0,-0.0,-0.0,-0.0,-0.0,0.0,-0.0,-0.0,-0.0,0.0,0.0,0.0,0.0,0.0,0.0,0.0,0.0,0.0,0.0,0.0,0.0,0.0,-0.0,-0.0,-0.0,-0.0,-0.0,-0.0,-0.0,-0.0,-0.0,-0.0,-0.0,-0.0,-0.0,-0.0,-0.0,-0.0,-0.0,-0.0,-0.0,-0.0,-0.0,-0.0,-0.0,-0.0,-0.0,-0.0,-0.0,-0.0,-0.0,-0.0,-0.0,-0.0,-0.0,-0.0,-0.0,-0.0,-0.0,-0.0,-0.0,-0.0,-0.0,-0.0,-0.0,-0.0,-0.0,-0.0,-0.0,-0.0,-0.0,-0.0,-0.0,-0.0,-0.0,-0.0,-0.0,-0.0,-0.0,-0.0,-0.0,-0.0,-0.0,-1.1741,-2.1289,-2.1953,-2.2147,-2.216,-2.2303,-2.2323,-2.2445,-2.273,-2.2764,-2.2764,-2.2764,-2.2744,-2.273,-2.273,-2.273,-2.273,-2.273,-2.273,-2.273,-2.273,-2.2567,-2.2289,-2.1882,-2.1848,-2.1706,-2.1441,-2.1441,-2.1353,-0.0,-0.0,-0.0,-0.0,-0.0,0.0,-0.0,-0.0,-0.0,0.0,0.0,0.0,0.0,0.0,0.0,0.0,0.0,0.0,0.0,0.0,0.0,0.0,-0.0,-0.0,-0.0,-0.0,-0.0,-0.0,-0.0,-0.0,-0.0,-0.0,-0.0,-0.0,-0.0,-0.0,-0.0,-0.0,-0.0,-0.0,-0.0,-0.0,-0.0,-0.0,-0.0,-0.0,-0.0,-0.0,-0.0,-0.0,-0.0,-0.0,-0.0,-0.0,-0.0,-0.0,-0.0,-0.0,-0.0,-0.0,-0.0,-0.0,-0.0,-0.0,-0.0,-0.0,-0.0,-0.0,-0.0,-0.0,-0.0,-0.0,-0.0,-0.0,-0.0,-0.0,-0.0,-0.0,-0.0,-0.0,-0.0,-0.0,-0.0,-0.7536,-1.5337,-2.1102,-2.2147,-2.2127,-2.2147,-2.2269,-2.2411,-2.2574,-2.2608,-2.2608,-2.2608,-2.25,-2.2425,-2.2425,-2.2425,-2.2425,-2.2425,-2.2425,-2.2425,-2.2425,-2.2147,-2.1971,-2.1882,-2.1638,-2.1496,-2.1441,-2.1441,-2.1353,-0.0,-0.0,-0.0,-0.0,-0.0,0.0,0.0,-0.0,-0.0,0.0,0.0,0.0,0.0,0.0,0.0,0.0,0.0,0.0,0.0,0.0,0.0,0.0,-0.0,-0.0,-0.0,-0.0,-0.0,-0.0,-0.0,-0.0,-0.0,-0.0,-0.0,-0.0,-0.0,-0.0,-0.0,-0.0,-0.0,-0.0,-0.0,-0.0,-0.0,-0.0,-0.0,-0.0,-0.0,-0.0,-0.0,-0.0,-0.0,-0.0,-0.0,-0.0,-0.0,-0.0,-0.0,-0.0,-0.0,-0.0,-0.0,-0.0,-0.0,-0.0,-0.0,-0.0,-0.0,-0.0,-0.0,-0.0,-0.0,-0.0,-0.0,-0.0,-0.0,-0.0,-0.0,-0.0,-0.0,-0.0,-0.0,-0.0,-0.0,-0.6143,-1.3637,-2.0756,-2.2059,-2.1971,-2.1903,-2.195,-2.2093,-2.2303,-2.2344,-2.2357,-2.2445,-2.2378,-2.2337,-2.2337,-2.2337,-2.2337,-2.2337,-2.2337,-2.2337,-2.2337,-2.2113,-2.195,-2.1882,-2.1672,-2.1509,-2.1441,-2.1441,-2.1408,-0.0,-0.0,-0.0,-0.0,-0.0,-0.0,0.0,0.0,0.0,0.0,0.0,0.0,0.0,0.0,0.0,0.0,0.0,0.0,0.0,0.0,0.0,-0.0,-0.0,-0.0,-0.0,-0.0,-0.0,-0.0,-0.0,-0.0,-0.0,-0.0,-0.0,-0.0,-0.0,-0.0,-0.0,-0.0,-0.0,-0.0,-0.0,-0.0,-0.0,-0.0,-0.0,-0.0,-0.0,-0.0,-0.0,-0.0,-0.0,-0.0,-0.0,-0.0,-0.0,-0.0,-0.0,-0.0,-0.0,-0.0,-0.0,-0.0,-0.0,-0.0,-0.0,-0.0,-0.0,-0.0,-0.0,-0.0,-0.0,-0.0,-0.0,-0.0,-0.0,-0.0,-0.0,-0.0,-0.0,-0.0,-0.0,-0.0,-0.0,-0.5029,-1.194,-2.0686,-2.1937,-2.1794,-2.1652,-2.1652,-2.1774,-2.2038,-2.2093,-2.2181,-2.2323,-2.2337,-2.2337,-2.2337,-2.2337,-2.2337,-2.2337,-2.2337,-2.2337,-2.2337,-2.2181,-2.2038,-2.1882,-2.174,-2.1597,-2.1441,-2.1441,-2.1441,-0.0,-0.0,-0.0,-0.0,-0.0,-0.0,-0.0,0.0,-0.0,-0.0,0.0,0.0,0.0,0.0,0.0,0.0,0.0,0.0,0.0,0.0,0.0,-0.0,-0.0,-0.0,-0.0,-0.0,-0.0,-0.0,-0.0,-0.0,-0.0,-0.0,-0.0,-0.0,-0.0,-0.0,-0.0,-0.0,-0.0,-0.0,-0.0,-0.0,-0.0,-0.0,-0.0,-0.0,-0.0,-0.0,-0.0,-0.0,-0.0,-0.0,-0.0,-0.0,-0.0,-0.0,-0.0,-0.0,-0.0,-0.0,-0.0,-0.0,-0.0,-0.0,-0.0,-0.0,-0.0,-0.0,-0.0,-0.0,-0.0,-0.0,-0.0,-0.0,-0.0,-0.0,-0.0,-0.0,-0.0,-0.0,-0.0,-0.0,-0.0,-0.0835,-0.6076,-1.9848,-2.1882,-2.1686,-2.1496,-2.1584,-2.1726,-2.1903,-2.2025,-2.2181,-2.2323,-2.2337,-2.2337,-2.2337,-2.2337,-2.2337,-2.2337,-2.2337,-2.2337,-2.2337,-2.2181,-2.2038,-2.1882,-2.174,-2.1597,-2.1441,-2.1441,-2.1441,-0.0,-0.0,-0.0,-0.0,-0.0,-0.0,-0.0,-0.0,-0.0,-0.0,0.0,0.0,0.0,0.0,0.0,0.0,-0.0,0.0,0.0,0.0,-0.0,0.0,0.0,0.0,-0.0,-0.0,-0.0,-0.0,-0.0,-0.0,-0.0,-0.0,-0.0,-0.0,-0.0,-0.0,-0.0,-0.0,-0.0,-0.0,-0.0,-0.0,-0.0,-0.0,-0.0,-0.0,-0.0,-0.0,-0.0,-0.0,-0.0,-0.0,-0.0,-0.0,-0.0,-0.0,-0.0,-0.0,-0.0,-0.0,-0.0,-0.0,-0.0,-0.0,-0.0,-0.0,-0.0,-0.0,-0.0,-0.0,-0.0,-0.0,-0.0,-0.0,-0.0,-0.0,-0.0,-0.0,-0.0,-0.0,-0.0,-0.0,-0.0,-0.0,-0.3586,-1.3723,-1.9099,-2.1672,-2.1455,-2.1496,-2.1597,-2.174,-2.1882,-2.2038,-2.2201,-2.2289,-2.2337,-2.2337,-2.2337,-2.2337,-2.2337,-2.2337,-2.2337,-2.2337,-2.2269,-2.216,-2.2025,-2.1862,-2.1726,-2.1564,-2.1475,-2.1441,-0.0,-0.0,-0.0,-0.0,-0.0,-0.0,-0.0,-0.0,-0.0,-0.0,-0.0,0.0,0.0,0.0,-0.0,-0.0,0.0,-0.0,0.0,-0.0,0.0,0.0,0.0,0.0,0.0,-0.0,-0.0,-0.0,-0.0,-0.0,-0.0,-0.0,-0.0,-0.0,-0.0,-0.0,-0.0,-0.0,-0.0,-0.0,-0.0,-0.0,-0.0,-0.0,-0.0,-0.0,-0.0,-0.0,-0.0,-0.0,-0.0,-0.0,-0.0,-0.0,-0.0,-0.0,-0.0,-0.0,-0.0,-0.0,-0.0,-0.0,-0.0,-0.0,-0.0,-0.0,-0.0,-0.0,-0.0,-0.0,-0.0,-0.0,-0.0,-0.0,-0.0,-0.0,-0.0,-0.0,-0.0,-0.0,-0.0,-0.0,-0.0,-0.0,-0.2478,-0.9556,-1.6851,-2.1631,-2.1455,-2.1441,-2.1496,-2.1652,-2.1794,-2.195,-2.2093,-2.2249,-2.2337,-2.2337,-2.2337,-2.2337,-2.2337,-2.2337,-2.2337,-2.2337,-2.2337,-2.2269,-2.2113,-2.195,-2.1815,-2.1672,-2.1509,-2.1441,-0.0,-0.0,-0.0,-0.0,-0.0,-0.0,-0.0,-0.0,-0.0,-0.0,-0.0,-0.0,-0.0,-0.0,-0.0,-0.0,-0.0,0.0,0.0,0.0,0.0,0.0,0.0,0.0,0.0,-0.0,-0.0,0.0,-0.0,-0.0,-0.0,-0.0,-0.0,-0.0,-0.0,-0.0,-0.0,-0.0,-0.0,-0.0,-0.0,-0.0,-0.0,-0.0,-0.0,-0.0,-0.0,-0.0,-0.0,-0.0,-0.0,-0.0,-0.0,-0.0,-0.0,-0.0,-0.0,-0.0,-0.0,-0.0,-0.0,-0.0,-0.0,-0.0,-0.0,-0.0,-0.0,-0.0,-0.0,-0.0,-0.0,-0.0,-0.0,-0.0,-0.0,-0.0,-0.0,-0.0,-0.0,-0.0,-0.0,-0.0,-0.0,-0.0,-0.2464,-0.9494,-1.6756,-2.129,-2.1455,-2.1441,-2.1496,-2.1652,-2.1794,-2.195,-2.2093,-2.2249,-2.2337,-2.2337,-2.2337,-2.2337,-2.2337,-2.2337,-2.2337,-2.2337,-2.2337,-2.2269,-2.2113,-2.195,-2.1815,-2.1672,-2.1509,-2.1441,-0.0,-0.0,-0.0,-0.0,-0.0,-0.0,-0.0,-0.0,-0.0,-0.0,-0.0,-0.0,-0.0,-0.0,-0.0,-0.0,-0.0,-0.0,0.0,-0.0,0.0,0.0,0.0,0.0,0.0,0.0,0.0,-0.0,-0.0,-0.0,-0.0,-0.0,-0.0,-0.0,-0.0,-0.0,-0.0,-0.0,-0.0,-0.0,-0.0,-0.0,-0.0,-0.0,-0.0,-0.0,-0.0,-0.0,-0.0,-0.0,-0.0,-0.0,-0.0,-0.0,-0.0,-0.0,-0.0,-0.0,-0.0,-0.0,-0.0,-0.0,-0.0,-0.0,-0.0,-0.0,-0.0,-0.0,-0.0,-0.0,-0.0,-0.0,-0.0,-0.0,-0.0,-0.0,-0.0,-0.0,-0.0,-0.0,-0.0,-0.0,-0.0,-0.0,-0.2464,-0.9488,-1.6756,-2.129,-2.1455,-2.1441,-2.1455,-2.1509,-2.1652,-2.1794,-2.195,-2.2201,-2.2337,-2.2337,-2.2337,-2.2337,-2.2337,-2.2337,-2.2337,-2.2337,-2.2337,-2.2323,-2.2269,-2.2004,-2.1862,-2.1815,-2.1564,-2.1441,0.1317,-0.0,-0.0,-0.0,-0.0,-0.0,-0.0,-0.0,-0.0,-0.0,-0.0,-0.0,-0.0,-0.0,-0.0,-0.0,-0.0,-0.0,0.0,-0.0,-0.0,-0.0,-0.0,0.0,0.0,0.0,-0.0,-0.0,-0.0,-0.0,-0.0,-0.0,-0.0,-0.0,-0.0,-0.0,-0.0,-0.0,-0.0,-0.0,-0.0,-0.0,-0.0,-0.0,-0.0,-0.0,-0.0,-0.0,-0.0,-0.0,-0.0,-0.0,-0.0,-0.0,-0.0,-0.0,-0.0,-0.0,-0.0,-0.0,-0.0,-0.0,-0.0,-0.0,-0.0,-0.0,-0.0,-0.0,-0.0,-0.0,-0.0,-0.0,-0.0,-0.0,-0.0,-0.0,-0.0,-0.0,-0.0,-0.0,-0.0,-0.0,-0.0,-0.0,-0.2457,-0.9728,-1.673,-2.129,-2.1455,-2.1441,-2.1441,-2.1441,-2.1584,-2.176,-2.195,-2.2201,-2.2337,-2.2337,-2.2337,-2.2337,-2.2337,-2.2337,-2.2337,-2.2337,-2.2337,-2.2337,-2.2337,-2.2038,-2.1882,-2.1882,-2.1584,-2.1441]},{"header":{"parameterUnit":"m.s-1","parameterCategory":1,"la1":30.6,"la2":29.2853,"lo1":-89.7004,"lo2":-87.6739,"dy":0.0162,"dx":0.0183,"nx":112,"ny":82,"refTime":"2024-04-11T06:00:00:Z","depth":0,"parameterNumber":3,"parameterNumberName":"V-component_of_WINDS"},"data":[0.0,0.0,0.0,0.0,0.0,0.0,0.0,0.0,0.0,0.0,0.0,0.0,0.0,0.0,0.0,0.0,0.0,0.0,0.0,0.0,0.0,0.0,0.0,0.0,0.0,0.0,0.0,0.0,0.0,0.0,0.0,0.0,0.0,0.0,0.0,0.0,0.0,0.0,0.0,0.0,0.0,0.0,0.0,0.0,0.0,0.0,0.0,0.0,0.0,0.0,0.0,0.0,0.0,0.0,0.0,0.0,0.0,0.0,0.0,0.0,0.0,0.0,0.0,0.0,0.0,0.0,0.0,0.0,0.0,0.0,0.0,0.0,0.0,0.0,0.0,0.0,0.0,0.0,0.0,0.0,0.0,0.0,0.0,0.0,0.0,0.0,0.0,0.0,0.0,0.0,-7.1413,-7.5709,-8.4674,-9.0865,-9.215,-9.2522,-8.914,-8.0716,0.0,0.0,0.0,0.0,0.0,0.0,0.0,0.0,0.0,0.0,0.0,0.0,0.0,0.0,0.0,0.0,0.0,0.0,0.0,0.0,0.0,0.0,0.0,0.0,0.0,0.0,0.0,0.0,0.0,0.0,0.0,0.0,0.0,0.0,0.0,0.0,0.0,0.0,0.0,0.0,0.0,0.0,0.0,0.0,0.0,0.0,0.0,0.0,0.0,0.0,0.0,0.0,0.0,0.0,0.0,0.0,0.0,0.0,0.0,0.0,0.0,0.0,0.0,0.0,0.0,0.0,0.0,0.0,0.0,0.0,0.0,0.0,0.0,0.0,0.0,0.0,0.0,0.0,0.0,0.0,0.0,0.0,0.0,0.0,0.0,0.0,0.0,0.0,0.0,0.0,0.0,0.0,0.0,0.0,0.0,0.0,0.0,0.0,0.0,0.0,0.0,0.0,0.0,0.0,-7.5473,-8.2374,-8.7922,-9.1203,-9.144,-8.985,-8.6366,-8.0581,0.0,0.0,0.0,0.0,0.0,0.0,0.0,0.0,0.0,0.0,0.0,0.0,0.0,0.0,0.0,0.0,0.0,0.0,0.0,0.0,0.0,0.0,0.0,0.0,0.0,0.0,0.0,0.0,0.0,0.0,0.0,0.0,0.0,0.0,0.0,0.0,0.0,0.0,0.0,0.0,0.0,0.0,0.0,0.0,0.0,0.0,0.0,0.0,0.0,0.0,0.0,0.0,0.0,0.0,0.0,0.0,0.0,0.0,0.0,0.0,0.0,0.0,0.0,0.0,0.0,0.0,0.0,0.0,0.0,0.0,0.0,0.0,0.0,0.0,0.0,0.0,0.0,0.0,0.0,0.0,0.0,0.0,0.0,0.0,0.0,0.0,0.0,0.0,0.0,0.0,0.0,0.0,0.0,0.0,0.0,0.0,0.0,0.0,0.0,0.0,0.0,0.0,0.0,-7.6258,-7.9235,-8.6998,-9.0744,-9.2895,-9.3311,-9.0707,-8.6954,-8.2149,-7.891,0.0,0.0,0.0,0.0,0.0,0.0,0.0,0.0,0.0,0.0,0.0,0.0,0.0,0.0,0.0,0.0,0.0,0.0,0.0,0.0,0.0,0.0,0.0,0.0,0.0,0.0,0.0,0.0,0.0,0.0,0.0,0.0,0.0,0.0,0.0,0.0,0.0,0.0,0.0,0.0,0.0,0.0,0.0,0.0,0.0,0.0,0.0,0.0,0.0,0.0,0.0,0.0,0.0,0.0,0.0,0.0,0.0,0.0,0.0,0.0,0.0,0.0,0.0,0.0,0.0,0.0,0.0,0.0,0.0,0.0,0.0,0.0,0.0,0.0,0.0,0.0,0.0,0.0,0.0,0.0,0.0,0.0,0.0,0.0,0.0,0.0,0.0,0.0,0.0,0.0,0.0,0.0,0.0,0.0,0.0,0.0,0.0,0.0,0.0,0.0,0.0,0.0,-8.0351,-8.2559,-8.9548,-9.2401,-9.3757,-9.4004,-9.0367,-8.6443,-8.2651,-7.7315,0.0,0.0,0.0,0.0,0.0,0.0,0.0,0.0,0.0,0.0,0.0,0.0,0.0,0.0,0.0,0.0,0.0,0.0,0.0,0.0,0.0,0.0,0.0,0.0,0.0,0.0,0.0,0.0,0.0,0.0,0.0,0.0,0.0,0.0,0.0,0.0,0.0,0.0,0.0,0.0,0.0,0.0,0.0,0.0,0.0,0.0,0.0,0.0,0.0,0.0,0.0,0.0,0.0,0.0,0.0,0.0,0.0,0.0,0.0,0.0,0.0,0.0,0.0,0.0,0.0,0.0,0.0,0.0,0.0,0.0,0.0,0.0,0.0,0.0,0.0,0.0,0.0,0.0,0.0,0.0,0.0,0.0,0.0,0.0,0.0,0.0,0.0,0.0,0.0,0.0,0.0,0.0,0.0,0.0,0.0,0.0,0.0,0.0,0.0,0.0,0.0,0.0,-8.2439,-8.4844,-8.9073,-9.1586,-9.2401,-9.0927,-8.5811,-8.1887,-8.0185,-7.4124,0.0,0.0,0.0,0.0,0.0,0.0,0.0,0.0,0.0,0.0,0.0,0.0,0.0,0.0,0.0,0.0,0.0,0.0,0.0,0.0,0.0,0.0,0.0,0.0,0.0,0.0,0.0,0.0,0.0,0.0,0.0,0.0,0.0,0.0,0.0,0.0,0.0,0.0,0.0,0.0,0.0,0.0,0.0,0.0,0.0,0.0,0.0,0.0,0.0,0.0,0.0,0.0,0.0,0.0,0.0,0.0,0.0,0.0,0.0,0.0,0.0,0.0,0.0,0.0,0.0,0.0,0.0,0.0,0.0,0.0,0.0,0.0,0.0,0.0,0.0,0.0,0.0,0.0,0.0,0.0,0.0,0.0,0.0,0.0,0.0,0.0,0.0,0.0,0.0,0.0,0.0,0.0,0.0,0.0,0.0,0.0,0.0,0.0,0.0,0.0,0.0,0.0,-8.3409,-8.6053,-9.1161,-9.2981,-9.3561,-9.2945,-8.9331,-8.5685,-8.2572,0.0,0.0,0.0,0.0,0.0,0.0,0.0,0.0,0.0,0.0,0.0,0.0,0.0,0.0,0.0,0.0,0.0,0.0,0.0,0.0,0.0,0.0,0.0,0.0,0.0,0.0,0.0,0.0,0.0,0.0,0.0,0.0,0.0,0.0,0.0,0.0,0.0,0.0,0.0,0.0,0.0,0.0,0.0,0.0,0.0,0.0,0.0,0.0,0.0,0.0,0.0,0.0,0.0,0.0,0.0,0.0,0.0,0.0,0.0,0.0,0.0,0.0,0.0,0.0,0.0,0.0,0.0,0.0,0.0,0.0,0.0,0.0,0.0,0.0,0.0,0.0,0.0,0.0,0.0,0.0,0.0,0.0,0.0,0.0,0.0,0.0,0.0,0.0,0.0,0.0,0.0,0.0,0.0,0.0,0.0,0.0,0.0,0.0,0.0,0.0,0.0,0.0,-8.2974,-8.4283,-8.6794,-9.2097,-9.3639,-9.4079,-9.3529,-8.9847,-8.6636,-8.4559,0.0,0.0,0.0,0.0,0.0,0.0,0.0,0.0,0.0,0.0,0.0,0.0,0.0,0.0,0.0,0.0,0.0,0.0,0.0,0.0,0.0,0.0,0.0,0.0,0.0,0.0,0.0,0.0,0.0,0.0,0.0,0.0,0.0,0.0,0.0,0.0,0.0,0.0,0.0,0.0,0.0,0.0,0.0,0.0,0.0,0.0,0.0,0.0,0.0,0.0,0.0,0.0,0.0,0.0,0.0,0.0,0.0,0.0,0.0,0.0,0.0,0.0,0.0,0.0,0.0,0.0,0.0,0.0,0.0,0.0,0.0,0.0,0.0,0.0,0.0,0.0,0.0,0.0,0.0,0.0,0.0,0.0,0.0,0.0,0.0,0.0,0.0,0.0,0.0,0.0,0.0,0.0,0.0,0.0,0.0,0.0,0.0,0.0,0.0,0.0,0.0,0.0,-8.3985,-8.5306,-8.7325,-9.1363,-9.3272,-9.3602,-9.195,-8.5919,-8.3193,0.0,0.0,0.0,0.0,0.0,0.0,0.0,0.0,0.0,0.0,0.0,0.0,0.0,0.0,0.0,0.0,0.0,0.0,0.0,0.0,0.0,0.0,0.0,0.0,0.0,0.0,0.0,0.0,0.0,0.0,0.0,0.0,0.0,0.0,0.0,0.0,0.0,0.0,0.0,0.0,0.0,0.0,0.0,0.0,0.0,0.0,0.0,0.0,0.0,0.0,0.0,0.0,0.0,0.0,0.0,0.0,0.0,0.0,0.0,0.0,0.0,0.0,0.0,0.0,0.0,0.0,0.0,0.0,0.0,0.0,0.0,0.0,0.0,0.0,0.0,0.0,0.0,0.0,0.0,0.0,0.0,0.0,0.0,0.0,0.0,0.0,0.0,0.0,0.0,0.0,0.0,0.0,0.0,0.0,0.0,0.0,0.0,0.0,0.0,0.0,0.0,0.0,0.0,-8.4829,-8.5159,-8.6701,-9.1289,-9.2794,-9.3015,-9.1877,-8.8983,-8.7012,-8.6299,0.0,0.0,0.0,0.0,0.0,0.0,0.0,0.0,0.0,0.0,0.0,0.0,0.0,0.0,0.0,0.0,0.0,0.0,0.0,0.0,0.0,0.0,0.0,0.0,0.0,0.0,0.0,0.0,0.0,0.0,0.0,0.0,0.0,0.0,0.0,0.0,0.0,0.0,0.0,0.0,0.0,0.0,0.0,0.0,0.0,0.0,0.0,0.0,0.0,0.0,0.0,0.0,0.0,0.0,0.0,0.0,0.0,0.0,0.0,0.0,0.0,0.0,0.0,0.0,0.0,0.0,0.0,0.0,0.0,0.0,0.0,0.0,0.0,0.0,0.0,0.0,0.0,0.0,0.0,0.0,0.0,0.0,0.0,0.0,0.0,0.0,0.0,0.0,0.0,0.0,0.0,0.0,0.0,0.0,0.0,0.0,0.0,0.0,0.0,0.0,0.0,0.0,-8.5673,-8.5306,-8.6444,-9.1289,-9.2281,-9.2501,-9.2317,-9.0519,-8.8653,-8.6865,0.0,0.0,0.0,0.0,0.0,0.0,0.0,0.0,0.0,0.0,0.0,0.0,0.0,0.0,0.0,0.0,0.0,0.0,0.0,0.0,0.0,0.0,0.0,0.0,0.0,0.0,0.0,0.0,0.0,0.0,0.0,0.0,0.0,0.0,0.0,0.0,0.0,0.0,0.0,0.0,0.0,0.0,0.0,0.0,0.0,0.0,0.0,0.0,0.0,0.0,0.0,0.0,0.0,0.0,0.0,0.0,0.0,0.0,0.0,0.0,0.0,0.0,0.0,0.0,0.0,0.0,0.0,0.0,0.0,0.0,0.0,0.0,0.0,0.0,0.0,0.0,0.0,0.0,0.0,0.0,0.0,0.0,0.0,0.0,0.0,0.0,0.0,0.0,0.0,0.0,0.0,0.0,0.0,0.0,0.0,0.0,0.0,0.0,0.0,0.0,0.0,0.0,-8.6628,-8.582,-8.6664,-9.14,-9.206,-9.2427,-9.3161,-9.1033,-8.894,-8.7325,0.0,0.0,0.0,0.0,0.0,0.0,0.0,0.0,0.0,0.0,0.0,0.0,0.0,0.0,0.0,0.0,0.0,0.0,0.0,0.0,0.0,0.0,0.0,0.0,0.0,0.0,0.0,0.0,0.0,0.0,0.0,0.0,0.0,0.0,0.0,0.0,0.0,0.0,0.0,0.0,0.0,0.0,0.0,0.0,0.0,0.0,0.0,0.0,0.0,0.0,0.0,0.0,0.0,0.0,0.0,0.0,0.0,0.0,0.0,0.0,-8.2208,-8.1823,0.0,0.0,0.0,0.0,0.0,0.0,0.0,0.0,0.0,0.0,0.0,0.0,0.0,0.0,0.0,0.0,0.0,0.0,0.0,0.0,0.0,0.0,0.0,0.0,0.0,0.0,0.0,0.0,0.0,0.0,0.0,0.0,0.0,0.0,0.0,0.0,0.0,0.0,0.0,0.0,-8.8353,-8.7509,-8.8133,-9.2391,-9.3969,-9.452,-9.4079,-9.2354,-9.0592,-8.9014,-8.6273,0.0,0.0,0.0,0.0,0.0,0.0,0.0,0.0,0.0,0.0,0.0,0.0,0.0,0.0,0.0,0.0,0.0,0.0,0.0,0.0,0.0,0.0,0.0,0.0,0.0,0.0,0.0,0.0,0.0,0.0,0.0,0.0,0.0,0.0,0.0,0.0,0.0,0.0,0.0,0.0,0.0,0.0,0.0,0.0,0.0,0.0,0.0,0.0,0.0,0.0,0.0,0.0,0.0,0.0,0.0,0.0,0.0,0.0,0.0,-8.8094,-8.6748,0.0,0.0,0.0,0.0,0.0,0.0,0.0,0.0,0.0,0.0,0.0,0.0,0.0,0.0,0.0,0.0,0.0,0.0,0.0,0.0,0.0,0.0,0.0,0.0,0.0,0.0,0.0,0.0,0.0,0.0,0.0,0.0,0.0,0.0,0.0,0.0,0.0,0.0,0.0,0.0,-9.0115,-8.916,-8.9564,-9.3272,-9.441,-9.4923,-9.4887,-9.3712,-9.1987,-8.9564,-8.8573,0.0,0.0,0.0,0.0,0.0,0.0,0.0,0.0,0.0,0.0,0.0,0.0,0.0,0.0,0.0,0.0,0.0,0.0,0.0,0.0,0.0,0.0,0.0,0.0,0.0,0.0,0.0,0.0,0.0,0.0,0.0,0.0,0.0,0.0,0.0,0.0,0.0,0.0,0.0,0.0,0.0,0.0,0.0,0.0,0.0,0.0,0.0,0.0,0.0,0.0,0.0,0.0,0.0,-9.3287,-9.5403,-9.9096,-10.0096,-10.0289,-9.9788,-9.7326,-9.4826,-9.2672,-9.4788,0.0,0.0,0.0,0.0,0.0,0.0,0.0,0.0,0.0,0.0,0.0,0.0,0.0,0.0,0.0,0.0,0.0,0.0,0.0,0.0,0.0,0.0,-9.5249,-9.7057,-9.8519,-9.7364,-8.9649,0.0,0.0,0.0,0.0,0.0,0.0,0.0,0.0,0.0,0.0,0.0,-9.1877,-9.1326,-9.1877,-9.4997,-9.5327,-9.5621,-9.6282,-9.5584,-9.3749,-9.0482,-9.1363,-8.9491,0.0,0.0,0.0,0.0,0.0,0.0,0.0,0.0,0.0,0.0,0.0,0.0,0.0,0.0,0.0,0.0,0.0,0.0,0.0,0.0,0.0,0.0,0.0,0.0,0.0,0.0,0.0,0.0,0.0,0.0,0.0,0.0,-7.5319,-7.9345,0.0,0.0,0.0,0.0,0.0,0.0,0.0,0.0,0.0,0.0,0.0,0.0,0.0,-9.2787,-9.5826,-9.6596,-9.798,-9.9981,-10.1481,-10.3289,-10.529,-10.6905,-10.829,-10.9713,-11.0714,0.0,-9.7827,-9.8173,0.0,0.0,0.0,0.0,0.0,0.0,0.0,0.0,0.0,0.0,0.0,0.0,0.0,0.0,0.0,0.0,0.0,0.0,0.0,0.0,0.0,0.0,-9.8942,-9.7788,-9.9865,-10.1403,-9.8709,-9.8096,-9.7458,-9.5381,-9.3199,-9.2033,0.0,0.0,0.0,0.0,0.0,0.0,-9.3896,-9.4997,-9.6722,-9.9218,-9.9512,-9.9548,-9.9659,-9.8924,-9.7089,-9.3859,-9.3198,-9.1913,-8.9601,-8.6921,0.0,0.0,0.0,0.0,0.0,0.0,0.0,0.0,0.0,0.0,0.0,0.0,0.0,0.0,0.0,0.0,0.0,0.0,0.0,0.0,0.0,0.0,0.0,0.0,0.0,0.0,0.0,0.0,0.0,-7.6809,-7.9862,-8.0323,-8.3093,-8.4978,0.0,0.0,0.0,0.0,0.0,0.0,0.0,0.0,0.0,-9.5365,-9.6326,-9.7942,-10.0289,-10.1712,-10.3905,-10.7098,-10.879,-11.0714,-11.2906,-11.4484,-11.6292,-11.8023,-11.9715,-11.76,-11.2714,-10.8598,-10.5909,-10.4214,0.0,0.0,0.0,0.0,-10.1981,-10.3521,-10.3982,-10.4405,-10.502,-10.629,0.0,0.0,0.0,0.0,0.0,0.0,0.0,-10.0712,-10.0404,-10.2289,-10.4482,-10.5213,-10.7982,-11.0098,-10.8906,-10.762,-10.4706,-9.7723,-9.7208,-9.7522,-9.6433,-9.5878,0.0,0.0,0.0,-9.7349,-9.8282,-9.8593,-9.95,-10.15,-10.1301,-10.098,-10.1017,-10.0209,-9.8998,-9.7126,-9.5401,-9.3492,-9.14,-8.9931,-8.8757,0.0,0.0,0.0,0.0,0.0,0.0,0.0,0.0,0.0,0.0,0.0,0.0,0.0,0.0,0.0,0.0,0.0,0.0,0.0,0.0,0.0,0.0,0.0,0.0,0.0,0.0,0.0,0.0,-8.0746,-8.2901,-8.1862,-8.567,-8.7786,0.0,0.0,0.0,0.0,0.0,0.0,-9.6057,-9.7096,-9.9058,-10.2289,-10.2981,-10.4289,-10.6521,-10.7905,-11.0483,-11.4099,-11.5792,-11.7792,-12.01,-12.1793,-12.3293,-12.4601,-12.5794,-12.6101,-12.4986,-11.7991,-11.3805,-11.1385,-10.89,-10.7503,-10.6902,-10.7517,-10.8723,-11.0179,-11.1102,-11.1791,-11.2286,-11.2411,-11.1218,-10.9175,-10.6097,0.0,0.0,0.0,0.0,-10.4212,-10.6713,-10.8482,-11.0291,-11.2791,-11.5792,-11.7984,-11.7407,-11.5715,-11.139,-10.1208,-10.1193,-10.1998,-9.985,-9.9232,0.0,-9.9953,-10.0595,-10.1313,-10.2106,-10.2171,-10.2721,-10.3899,-10.3315,-10.2696,-10.2412,-10.1494,-10.0503,-9.9475,-9.753,-9.5254,-9.2611,-9.206,-9.0372,-8.7399,0.0,0.0,0.0,0.0,0.0,0.0,0.0,0.0,0.0,0.0,0.0,0.0,0.0,0.0,0.0,0.0,0.0,0.0,0.0,0.0,0.0,0.0,0.0,0.0,0.0,0.0,0.0,0.0,0.0,-8.6632,-9.1479,0.0,0.0,0.0,0.0,-9.3287,-9.6326,-9.9673,-10.3212,-10.4212,-10.6905,-11.1791,-11.2022,-11.3714,-11.7023,-11.7907,-11.9292,-12.11,-12.2793,-12.4486,-12.6294,-12.7986,-12.8794,-12.8909,-12.8986,-12.9217,-12.8986,-12.2878,-11.8882,-11.6393,-11.4201,-11.3094,-11.2796,-11.3195,-11.4212,-11.5307,-11.4879,-11.4599,-11.5202,-12.0275,-12.0467,-11.7991,-11.3483,-11.1598,0.0,0.0,-10.9213,-10.979,-10.9983,-11.2483,-11.5599,-11.81,-12.0716,-12.2601,-12.2524,-12.0485,-11.6522,-10.8594,-10.471,-10.2816,-10.3476,0.0,-10.2409,-10.2714,-10.4713,-10.5596,-10.4184,-10.5936,-10.7327,-10.7439,-10.6622,-10.5802,-10.4991,-10.3513,-10.1898,-10.0319,-9.9402,-9.7493,-9.4299,-9.2648,-9.1693,-9.151,-8.7766,0.0,0.0,0.0,0.0,0.0,0.0,0.0,0.0,0.0,0.0,0.0,0.0,0.0,0.0,0.0,0.0,0.0,0.0,0.0,0.0,0.0,0.0,0.0,0.0,0.0,0.0,0.0,0.0,-9.271,-9.7134,0.0,-9.8211,-9.8404,-9.9519,-10.1712,-10.302,-10.5905,-11.0983,-11.1483,-11.3483,-11.7484,-11.76,-11.8715,-12.11,-12.1908,-12.3216,-12.4909,-12.5986,-12.7486,-12.9179,-13.0294,-13.1179,-13.1999,-13.2615,-13.273,-13.2307,-12.9805,-12.629,-12.2303,-12.0981,-11.9905,-11.9081,-12.0068,-12.149,-12.2907,-12.3101,-12.342,-12.3597,-12.2614,-12.0688,-11.8292,-11.5907,-11.4907,-11.4791,-11.5291,-11.4484,-11.3984,-11.6099,-11.7215,-11.8407,-12.0908,-12.3101,-12.4716,-12.5216,-12.4216,-12.2216,-11.8908,-11.2906,-10.8398,-10.8722,-10.8101,-10.771,-10.8327,-10.9236,-10.9683,-10.9618,-10.9894,-11.0113,-11.0008,-10.8824,-10.7368,-10.6059,-10.3918,-10.2008,-10.0393,-9.8557,-9.6795,-9.5107,-9.2978,-9.0812,-8.8757,-8.7288,-8.6444,0.0,0.0,0.0,0.0,0.0,0.0,0.0,0.0,0.0,0.0,0.0,0.0,0.0,0.0,0.0,0.0,0.0,0.0,0.0,0.0,0.0,0.0,0.0,0.0,0.0,0.0,-9.4711,-9.8404,-10.2904,-10.529,-10.4405,-10.5405,-10.679,-10.879,-11.0021,-11.2906,-11.7984,-11.8292,-11.9792,-12.3216,-12.2985,-12.3716,-12.5409,-12.5986,-12.6986,-12.8409,-12.9217,-13.0217,-13.141,-13.2564,-13.3615,-13.4436,-13.4988,-13.4896,-13.4201,-13.36,-13.0999,-12.7487,-12.7104,-12.6406,-12.561,-12.6719,-12.7725,-12.8511,-12.8299,-12.8714,-12.8609,-12.4703,-12.2314,-12.0784,-11.9485,-11.8908,-11.8985,-12.0408,-11.9215,-11.7984,-12.0485,-12.1408,-12.21,-12.3793,-12.5909,-12.7678,-12.8294,-12.7486,-12.6486,-12.5909,-11.9908,-11.4714,-11.4214,-11.3291,-11.2791,-11.2791,-11.2791,-11.2906,-11.3099,-11.258,-11.2195,-11.1908,-11.0642,-10.898,-10.6994,-10.4575,-10.2112,-9.9622,-9.7236,-9.5144,-9.3492,-9.2134,-9.0408,-8.828,-8.7142,-8.593,-8.4572,0.0,0.0,0.0,0.0,0.0,0.0,0.0,0.0,0.0,0.0,0.0,0.0,0.0,0.0,0.0,0.0,0.0,0.0,0.0,0.0,0.0,0.0,0.0,-9.1018,-9.5057,-9.9365,-10.3712,-10.8713,-11.0791,-10.8406,-11.2599,-11.5215,-11.4407,-11.7484,-12.0793,-12.4101,-12.4293,-12.5794,-12.9102,-12.8409,-12.8794,-13.0487,-13.0487,-13.091,-13.1795,-13.2603,-13.2987,-13.318,-13.5193,-13.6207,-13.618,-13.6207,-13.5689,-13.4805,-13.387,-13.2835,-13.1694,-13.2298,-13.2382,-13.2098,-13.2481,-13.2396,-13.1821,-13.0095,-12.9687,-12.9481,-12.6887,-12.618,-12.6217,-12.4601,-12.3601,-12.3216,-12.3985,-12.2985,-12.1908,-12.2793,-12.4793,-12.6678,-12.6678,-12.9294,-13.1679,-13.1679,-13.041,-12.9294,-12.9294,-12.5293,-12.1293,-11.96,-11.86,-11.7407,-11.5715,-11.5484,0.0,-11.4214,-11.4099,-11.3796,-11.2878,-11.2023,-11.049,-10.792,-10.5391,-10.2203,-9.8048,-9.5511,-9.2721,-8.9491,-9.0041,-9.0408,-9.0408,-8.7362,-8.4646,-8.2333,0.0,0.0,0.0,0.0,0.0,0.0,0.0,0.0,0.0,0.0,0.0,0.0,0.0,0.0,0.0,0.0,0.0,0.0,0.0,0.0,0.0,-9.2556,-9.4749,-9.4864,-10.0096,-10.552,-10.979,-11.4791,-11.7907,-11.7792,-12.01,-12.1793,-12.2216,-12.4293,-12.6217,-12.7717,-12.8409,-12.9179,-13.0102,-13.0487,-13.091,-13.141,-13.141,-13.1795,-13.2603,-13.2872,-13.3987,-13.5795,-13.6988,-13.7697,-13.7872,-13.8605,-13.7794,-13.5991,-13.5179,-13.4694,-13.4577,-13.4098,-13.3694,-13.3514,-13.48,-13.478,-13.3986,-13.3,-13.2187,-13.1515,-12.9603,-12.8731,-12.792,-12.6371,-12.5794,-12.5678,-12.5909,-12.5178,-12.4409,-12.4716,-12.5678,-12.6794,-12.7409,-12.9217,-13.0987,-13.1602,-13.1295,-13.0987,-13.0987,-12.941,-12.7101,-12.4216,-12.2485,-12.11,-11.9985,-11.9292,-11.8407,-11.6907,-11.6792,-11.6208,-11.4679,-11.3776,-11.1786,-10.8097,-10.4878,-10.0938,-9.5623,-9.2978,-9.0445,-8.7802,-8.6775,-8.6261,-8.6261,-8.538,-8.5196,0.0,0.0,0.0,0.0,0.0,0.0,0.0,0.0,0.0,0.0,0.0,0.0,0.0,0.0,0.0,0.0,0.0,0.0,0.0,0.0,0.0,0.0,-10.0096,-10.3405,-10.5097,-10.779,-11.1406,-11.6407,-12.0216,-12.3101,-12.4601,-12.5986,-12.7101,-12.7986,-12.8909,-12.991,-13.0718,-13.1295,-13.191,-13.2603,-13.2987,-13.3487,-13.3795,-13.3795,-13.4295,-13.5103,-13.5103,-13.6103,-13.7911,-13.8873,-13.9297,-13.9217,-13.972,-13.8795,-13.6809,-13.6001,-13.5282,-13.4882,0.0,0.0,0.0,0.0,-13.5195,-13.4414,-13.3515,-13.289,-13.2182,-13.0287,-12.9306,-12.8574,-12.7063,-12.6678,-12.6678,-12.6678,-12.6294,-12.5909,-12.5486,-12.6601,-12.7794,-12.7909,-12.9487,-13.1102,-13.1602,-13.1679,-13.1679,-13.1679,-13.1295,0.0,-12.8409,-12.6294,-12.4486,-12.2908,-12.1908,-12.0793,-11.91,-11.8215,-11.7407,-11.6484,-11.4891,-11.2601,-10.9106,-10.541,0.0,0.0,0.0,-8.9381,-8.6628,-8.5568,0.0,0.0,0.0,-8.5207,-8.5521,-8.5117,0.0,0.0,-8.3398,-8.3208,0.0,0.0,0.0,0.0,0.0,0.0,0.0,0.0,0.0,0.0,0.0,0.0,0.0,0.0,0.0,0.0,-10.8906,-11.3291,-11.8407,-11.7407,-11.7984,-12.3024,-12.5216,-12.7217,-12.9487,-13.0602,-13.141,-13.2102,-13.2179,-13.2603,-13.3372,0.0,0.0,0.0,0.0,-13.6296,-13.718,-13.7103,-13.7488,-13.8411,-13.8296,-13.8681,-13.9488,-14.0566,-14.0619,-13.9811,-13.9811,-13.8811,-13.7194,-13.6296,-13.5103,-13.3784,-13.5287,-13.6093,-13.6484,-13.5586,-13.4804,-13.3984,-13.3086,0.0,0.0,-12.978,-12.8996,-12.8766,-12.7178,-12.6678,-12.6678,-12.6678,-12.6678,-12.6486,-12.5678,-12.7409,-12.8986,-12.8217,-12.991,-13.1679,-13.1679,-13.1679,-13.1679,-13.1679,-13.1679,-13.1679,-13.1679,-12.9794,-12.7409,-12.4986,-12.3909,-12.2716,-12.0793,-11.91,-11.7984,-11.7715,-11.5484,0.0,-11.0282,-10.643,-10.1557,-9.5838,-9.2151,-8.883,-8.5783,-8.5752,-8.5715,-8.5521,-8.5651,-8.5028,-8.3639,-8.2822,-8.2866,-8.3744,-8.6317,-8.6422,0.0,0.0,0.0,0.0,0.0,0.0,0.0,0.0,0.0,0.0,0.0,0.0,0.0,0.0,0.0,-11.4099,-11.7484,-12.1177,-12.6294,-12.8294,-12.8986,-12.8102,-13.0102,-13.1987,-13.3218,-13.4103,-13.4603,-13.4795,-13.5411,-13.5911,-13.6103,-13.668,-13.7296,-13.7603,-13.8219,-13.8988,-13.9912,-13.9219,-13.9296,-14.0104,0.0,0.0,-14.0412,-14.0604,-14.0181,-13.9412,-13.9412,-13.8488,-13.6796,-13.5988,-13.5309,-13.4988,-13.5599,-13.6914,-13.8281,-13.7382,-13.6601,-13.5703,-13.4804,-13.4101,-13.3198,-13.0677,-12.9887,-12.9508,-12.7419,-12.6678,0.0,-12.6678,-12.6678,-12.6678,-12.6486,-12.7794,-12.9217,-12.8986,-13.041,-13.1679,-13.1679,-13.1679,-13.1679,-13.1679,-13.1679,-13.1679,-13.1679,-13.0794,-12.9602,-12.8409,-12.6909,-12.5101,-12.2716,-12.0908,-11.8985,-11.6984,-11.5715,-11.3489,-10.9595,-10.6126,-10.1619,-9.5838,-9.0563,-8.6811,-8.4896,-8.5416,-8.522,-8.3871,-8.4492,-8.5013,-8.5331,-8.4529,-8.4551,-8.5291,-8.3999,-8.3427,0.0,0.0,0.0,0.0,0.0,0.0,0.0,0.0,0.0,0.0,0.0,-10.5213,-10.9406,0.0,-11.6907,-12.2024,-12.5717,-12.9102,-13.2487,-13.518,-13.5911,-13.3295,-13.4487,-13.6103,-13.7296,-13.7796,-13.8104,-13.8104,-13.8488,-13.8681,-13.8681,-13.9104,-13.9681,-14.0604,-14.0989,-14.1412,-14.1797,-14.1412,-14.1412,-14.1797,-14.1412,-14.172,-14.2489,-14.1989,-14.1181,-13.9912,-13.9488,-13.8296,-13.668,-13.5411,-13.5295,-13.5894,-13.5229,-13.5695,-13.6797,-13.6015,-13.539,-13.5,-13.4609,-13.4009,-13.3085,-13.0892,-13.012,-12.9498,-12.7371,-12.6678,-12.6678,-12.6678,-12.6678,-12.6678,-12.6678,-12.7602,-12.8717,-12.9102,-13.0217,-13.1179,-13.1602,-13.1679,-13.1679,-13.1679,-13.1679,-13.1679,-13.1679,-13.141,-13.0794,-12.9987,-12.8794,-12.7217,-12.5101,-12.2908,-12.0793,-11.86,-11.6176,-11.351,-11.0501,-10.46,-9.9095,-9.4532,-9.0046,-8.7215,-8.647,-8.6397,-8.62,-8.5798,-8.617,-8.6586,-8.7022,-8.6632,-8.6595,-8.6973,-8.5353,-8.4602,0.0,0.0,0.0,0.0,0.0,0.0,0.0,-9.8365,-10.0481,-10.579,-10.8983,-11.2406,-11.7292,-12.1408,-12.5486,-12.9717,-13.3295,-13.6103,-13.7796,-13.9912,-14.0604,-13.8796,-13.8911,-13.9681,-14.122,-14.1181,-14.1104,-14.1104,-14.1104,-14.1104,-14.1104,-14.122,-14.1989,-14.3297,-14.3412,-14.3412,-14.3605,-14.3412,-14.3412,-14.3605,-14.3412,-14.3605,-14.4105,-14.3412,-14.2104,-14.0296,-13.9296,-13.7988,-13.668,-13.5295,-13.5411,-13.6219,-13.5013,-13.4713,-13.4883,-13.4492,-13.4218,-13.3984,-13.3984,-13.3594,-13.2696,-13.0805,-12.9896,-12.9113,-12.7294,-12.6678,-12.6678,-12.6678,-12.6678,-12.6678,-12.6678,-12.7294,-12.8102,-12.8986,-12.991,-13.0718,-13.1487,-13.1679,-13.1679,-13.1679,-13.1679,-13.1679,-13.1679,-13.1679,-13.1487,-13.0794,-12.9987,-12.8909,-12.7409,-12.4793,-12.2408,-12.0485,-11.6715,-11.3209,-11.0507,-10.2994,-9.6927,-9.3674,-9.0747,-8.8977,-8.868,-8.8014,-8.7894,-8.8391,-8.8414,-8.846,-8.846,-8.825,-8.8212,-8.8198,-8.7325,-8.6705,-10.202,-9.7634,-9.4788,-9.6403,-9.6403,-9.8019,0.0,-10.7982,-11.0291,-11.6215,-11.9985,-12.3601,-12.7986,-13.0987,-13.4295,-13.8488,-13.9604,-14.0489,-14.2181,-14.3297,-14.422,-14.4605,-14.3412,-14.2912,-14.3912,-14.3297,-14.2797,-14.2797,-14.2797,-14.2797,-14.2797,-14.3605,-14.4105,-14.422,-14.4297,-14.4605,-14.5413,-14.4605,-14.4605,-14.5413,-14.4605,-14.3912,-14.3181,-14.3105,-14.1797,-13.9412,-13.7796,-13.6988,-13.6796,-13.6603,-13.6103,-13.5487,-13.6106,-13.579,-13.5117,-13.5781,-13.5508,-13.4883,-13.4883,-13.3694,-13.1905,-13.0614,-12.9402,-12.8305,-12.7101,-12.6678,-12.6678,-12.6678,-12.6678,-12.6678,-12.6678,-12.7294,-12.8102,-12.8986,-12.991,-13.0718,-13.1487,-13.1679,-13.1679,-13.1679,-13.1679,-13.1679,-13.1679,-13.1679,-13.1679,-13.1602,-13.091,-12.9987,-12.8986,-12.5986,-12.2985,-12.06,-11.7215,-11.2613,-10.6412,-10.2294,-9.8659,-9.5325,-9.3484,-9.1877,-9.041,-9.0263,-8.9861,-8.9311,-8.9276,-8.9276,-8.9276,-8.8573,-8.8166,-8.8198,-8.7325,-8.7288,-10.1981,-10.0096,-9.9404,-9.8481,-10.0981,-10.5097,-11.0598,-11.3291,-11.6292,-12.2293,-12.5794,-12.9294,-13.3987,-13.6603,-13.8911,0.0,-14.2912,-14.3797,-14.4489,-14.5297,-14.5297,-14.3682,-14.3297,-14.3797,-14.572,-14.549,-14.5105,-14.4605,-14.4605,-14.4605,-14.4605,-14.499,-14.5413,-14.5797,-14.5913,-14.599,-14.6413,-14.599,-14.599,-14.6413,-14.599,-14.5413,-14.4605,-14.4105,-14.222,-13.9219,-13.8104,-13.7296,-13.668,-13.5719,-13.5295,-13.5167,-13.4592,-13.4308,-13.4414,-13.5195,-13.5312,-13.4883,-13.4492,-13.3488,-13.2177,-13.0707,-12.9613,-12.8563,-12.7101,-12.6678,-12.6678,-12.6678,-12.6678,-12.6678,-12.6678,-12.6909,-12.7486,-12.8909,-12.9487,-13.0102,-13.141,-13.1679,-13.1679,-13.1679,-13.1679,-13.1679,-13.1679,-13.1679,-13.1679,-13.1679,-13.141,-13.091,-13.0102,-12.7409,-12.3485,-11.7984,-11.4791,-11.0897,-10.5608,-10.2205,-9.9288,-9.6975,-9.4499,-9.2794,-9.206,-9.1583,-9.1143,-9.0777,-9.0777,-9.0557,-9.0081,-8.9268,-8.8672,-8.8198,-8.7325,-8.7178,-10.1597,-10.1789,-10.2904,-10.1597,-10.579,-11.1406,-11.5484,-11.8792,-12.2485,-12.7986,-13.1179,-13.4218,-13.8411,-14.0489,-14.2104,-14.3605,-14.5105,-14.599,-14.599,-14.5913,-14.4682,-14.1604,-14.0912,-14.1412,-14.322,-14.4489,-14.5105,-14.499,-14.499,-14.499,-14.499,-14.5413,-14.599,-14.6605,-14.6798,-14.6913,-14.6913,-14.6913,-14.6913,-14.6913,-14.6913,-14.6413,-14.5297,-14.4105,-14.2181,-13.9912,-13.8681,-13.7873,-13.718,-13.5603,-13.5218,-13.5398,-13.4204,-13.3995,-13.4414,-13.4804,-13.4883,-13.4609,-13.3984,-13.2994,-13.1812,-13.061,-12.9421,-12.8294,-12.7101,-12.6678,-12.6678,-12.6678,-12.6678,-12.6678,-12.6678,-12.6678,-12.7101,-12.8794,-12.9217,-12.9717,-13.1295,-13.1679,-13.1679,-13.1679,-13.1679,-13.1679,-13.1679,-13.1679,-13.1679,-13.1679,-13.1679,-13.1487,-13.091,-12.7986,-12.3408,-11.6715,-11.3291,-10.9906,-10.579,-10.2702,-10.0085,-9.7932,-9.5261,-9.3529,-9.3125,-9.228,-9.1803,-9.1803,-9.162,-9.107,-9.0301,-8.9454,-8.8643,-8.7835,-8.7476,-8.7366,-10.1289,-10.1289,-10.2404,-10.6405,-11.0714,-11.5407,-12.1293,-12.5909,-13.0102,-13.4411,-13.7296,-13.9604,-14.1412,-14.3181,-14.4605,-14.549,-14.6297,-14.6913,-14.6913,-14.4797,-14.2297,-13.9719,-13.6488,-13.4603,0.0,-13.8411,-14.1489,-14.3105,-14.3181,-14.3181,-14.3181,-14.4797,-14.572,-14.572,-14.649,-14.6913,-14.6913,-14.6913,-14.6913,-14.6913,-14.6913,-14.599,-14.4412,-14.2181,-14.1373,-14.1489,-13.9503,-13.858,-13.8503,-13.718,-13.6372,-13.5988,-13.63,-13.618,-13.5703,-13.5195,-13.4492,-13.3789,-13.3789,-13.2291,-13.0296,-13.018,-12.8563,-12.6794,-12.6678,-12.6678,-12.6678,-12.6678,-12.6678,-12.6678,-12.6678,-12.6678,-12.7101,-12.8794,-12.9217,-12.9717,-13.1295,-13.1679,-13.1679,-13.1679,-13.1679,-13.1679,-13.1679,-13.1679,-13.1679,-13.1679,-13.1679,-13.1679,-13.1679,-12.7294,-12.2485,-11.8215,-11.4022,-11.0098,-10.6713,-10.4117,-10.123,-9.797,-9.6268,-9.4628,-9.3161,-9.228,-9.1803,-9.1803,-9.1033,-9.0264,-8.9423,-8.8618,-8.7813,-8.7068,-8.7813,-8.8179,-10.1597,-10.4212,-10.8213,-11.2483,-11.71,-12.21,-12.7486,-13.1602,-13.4795,-13.6796,-13.7911,-13.8488,-13.8488,-13.8488,-13.9296,-14.1912,-14.2989,-14.4412,-14.6605,-14.6182,-14.3181,-13.6796,-13.6488,-13.4988,-13.0487,0.0,0.0,-14.1181,-14.1989,-14.2989,-14.4682,-14.5413,-14.5913,-14.649,-14.6798,-14.6913,-14.6913,-14.6913,-14.6913,-14.6913,-14.5797,-14.4797,-14.3912,-14.2566,-14.1922,-14.159,-14.0271,-13.9492,-13.8772,-13.7296,-13.6603,-13.6386,-13.6215,-13.5601,-13.4883,-13.5,-13.4101,-13.289,-13.289,-13.2293,-13.1203,-12.9778,-12.8728,-12.7678,-12.6909,-12.6678,-12.6678,-12.6678,-12.6678,-12.6678,-12.6678,-12.6678,-12.6986,-12.8112,-12.8794,-12.9487,-13.0679,-13.1295,-13.1679,-13.1679,-13.1679,-13.1679,-13.1679,-13.1679,-13.1679,-13.1679,-13.1679,-13.1102,-12.941,-12.6217,-12.2485,-11.8292,-11.4022,-11.0291,-10.7521,-10.45,-10.1789,-9.9585,-9.692,-9.4955,-9.3929,-9.2537,-9.1803,-9.1803,-9.1033,-9.0519,-9.0217,-8.883,-8.8356,-8.8543,-8.7809,-8.7662,-10.3905,-10.8406,-11.3907,-11.8215,-12.2793,-12.7602,-13.1987,-13.4988,-13.6796,-13.6796,-13.618,-13.5411,-13.391,-13.2218,-13.2487,-13.7103,-13.8104,-13.9989,-14.4913,-14.4182,-14.1181,-13.5411,-13.4603,-13.2603,-12.7909,0.0,0.0,-13.8411,-13.9912,-14.1489,-14.3797,-14.472,-14.5605,-14.6413,-14.6798,-14.6913,-14.6913,-14.6605,-14.6297,-14.599,-14.4605,-14.3912,-14.3682,-14.2617,-14.2123,-14.1802,-14.071,-13.9802,-13.9177,-13.7676,-13.7005,-13.7,-13.6511,-13.5703,-13.5,-13.4984,-13.3906,-13.25,-13.25,-13.1914,-13.0887,-12.9505,-12.858,-12.7794,-12.7101,-12.6794,-12.6678,-12.6678,-12.6678,-12.6678,-12.6678,-12.6678,-12.6871,-12.7727,-12.8612,-12.9371,-13.0294,-13.1102,-13.1679,-13.1679,-13.1679,-13.1679,-13.1679,-13.1679,-13.1679,-13.1679,-13.1679,-13.091,-12.8717,-12.5909,-12.2601,-11.8715,-11.4214,-11.0521,-10.7905,-10.4911,-10.2314,-10.0366,-9.753,-9.5328,-9.4329,-9.2721,-9.1803,-9.1803,-9.1033,-9.0629,-9.0585,-8.9301,-8.8904,-8.9386,-8.8356,-8.8246,-10.829,-11.3791,-11.9292,-12.3485,-12.7717,-13.1602,-13.4795,-13.618,-13.618,-13.4411,-13.2487,-13.041,-12.7717,-12.4716,-12.4793,-13.1602,-13.2179,-13.4487,-14.2181,-13.9796,-13.6911,-13.5795,-13.141,-12.8102,-12.7101,-12.6986,0.0,-13.5103,0.0,-13.8796,-14.0719,-14.3105,-14.4913,-14.572,-14.649,-14.6913,-14.6913,-14.6105,-14.5297,-14.4412,-14.3489,-14.3297,-14.3583,-14.2288,-14.1902,-14.2109,-14.0507,-13.9804,-13.9608,-13.8314,-13.7806,-13.7689,-13.7198,-13.6476,-13.5712,-13.5105,-13.3906,-13.2383,-13.2383,-13.1093,-12.9414,-12.9414,-12.8318,-12.71,-12.7073,-12.6871,-12.6678,-12.6678,-12.6678,-12.6678,-12.6678,-12.6678,-12.6871,-12.7727,-12.8497,-12.9382,-13.0294,-13.1102,-13.1679,-13.1679,-13.1679,-13.1679,-13.1679,-13.1679,-13.1679,-13.1679,-13.1679,-13.1102,-12.941,-12.6217,-12.2793,-11.9485,-11.4478,-11.0517,-10.8021,-10.5403,-10.2873,-10.0507,-9.8031,-9.5945,-9.4371,-9.2757,-9.184,-9.1803,-9.1033,-9.0594,-9.0594,-8.9786,-8.9383,-8.9493,-8.942,-8.9786,-11.5715,-12.0793,-12.5409,-12.9679,-13.2487,-13.4603,-13.6103,-13.6103,-13.4795,-13.1218,-12.7101,-12.2793,-11.8407,-11.7907,-12.0408,-12.7178,-13.1295,-13.6296,-14.3989,-14.4105,-14.1912,-13.7911,0.0,-13.4795,-13.0794,-13.0987,0.0,0.0,-13.6911,-13.8988,-14.322,-14.472,-14.572,-14.6605,-14.6798,-14.6913,-14.6913,-14.6105,-14.5297,-14.4412,-14.3489,-14.3105,-14.3198,-14.2779,-14.2699,-14.2617,-14.1484,-14.0703,-13.9882,-13.8304,-13.7506,-13.7187,-13.6691,-13.5827,-13.4777,-13.4286,-13.3008,-13.1406,-13.0781,-13.0195,-12.9609,-12.8711,-12.7983,-12.7379,-12.7181,-12.6871,-12.6678,-12.6678,-12.6678,-12.6678,-12.6678,-12.6678,-12.6794,-12.6986,-12.8112,-12.9267,-12.9487,-13.0718,-13.1679,-13.1679,-13.1679,-13.1679,-13.1679,-13.1679,-13.1679,-13.1679,-13.1679,-13.1102,-12.9398,-12.6195,-12.2813,-11.9515,-11.4516,-11.0709,-10.879,-10.571,-10.3126,-10.1296,-9.8859,-9.6539,-9.4374,-9.3345,-9.2464,-9.1803,-9.1033,-9.0594,-9.0594,-8.9823,-8.9713,-9.0264,-8.9676,-8.9528,-12.1985,-12.6486,-13.0294,-13.3795,-13.5103,-13.5218,-13.4295,-13.2795,-12.991,-12.3793,-11.9408,-11.5291,-11.0906,-11.0906,-11.4099,-12.21,-12.6986,0.0,-14.222,-14.2797,-14.1797,0.0,-13.9719,-13.8219,-13.5295,-13.5488,-13.668,0.0,-13.7988,-13.9296,-14.3605,-14.499,-14.6105,-14.6913,-14.6913,-14.6682,-14.6413,-14.549,-14.4797,-14.4105,-14.3181,-14.2874,-14.3005,-14.2374,-14.2003,-14.1913,-14.0786,-14.0117,-13.9492,-13.8203,-13.75,-13.7304,-13.6601,-13.5703,-13.4589,-13.3985,-13.2695,-13.1093,-13.0195,-12.9609,-12.9218,-12.8515,-12.8086,-12.7782,-12.7613,-12.7342,-12.7063,-12.6871,-12.6871,-12.6794,-12.6678,-12.6678,-12.6678,-12.6678,-12.7997,-12.919,-12.9217,-13.0525,-13.1679,-13.1679,-13.1679,-13.1679,-13.1679,-13.1679,-13.1679,-13.1679,-13.1679,-13.1102,-12.9398,-12.6184,-12.2802,-11.9468,-11.4894,-11.1209,-10.9098,-10.621,-10.3708,-10.213,-9.9378,-9.6914,-9.4888,-9.3713,-9.2647,-9.1803,-9.1327,-9.1143,-9.1143,-9.0667,-9.0667,-9.1107,-9.0335,-9.0115,-12.7525,-13.1295,-13.4411,-13.6603,-13.6296,-13.4603,-13.0987,-12.7794,-12.3178,-11.4907,-11.0983,-10.7982,-10.4713,-10.4405,-10.7713,-11.7215,0.0,-12.7717,-13.8988,-13.9296,-13.9604,-14.2912,-14.1296,-13.9989,-13.9989,-13.9912,-14.0489,-14.2297,-14.0296,-14.0296,-14.3297,-14.499,-14.6182,-14.6913,-14.6913,-14.649,-14.572,-14.4797,-14.422,-14.3682,-14.2818,-14.2626,-14.2928,-14.1604,-14.0994,-14.071,-13.958,-13.8984,-13.8789,-13.7812,-13.7382,-13.7304,-13.6406,-13.539,-13.4609,-13.3789,-13.2383,-13.0898,-13.0,-12.9218,-12.8593,-12.8593,-12.8398,-12.81,-12.8095,-12.7873,-12.7487,-12.7216,-12.7114,-12.6986,-12.6794,-12.6678,-12.6678,-12.6678,-12.7997,-12.919,-12.9206,-13.0475,-13.1679,-13.1679,-13.1679,-13.1679,-13.1679,-13.1679,-13.1679,-13.1679,-13.1679,-13.1102,-12.9398,-12.6234,-12.2764,-11.9515,-11.5202,-11.1588,-10.9098,-10.6595,-10.4362,-10.2824,-9.9901,-9.7467,-9.5626,-9.4154,-9.2978,-9.1987,-9.184,-9.1803,-9.1803,-9.1803,-9.1803,-9.1767,-9.1069,-9.1069,-13.2795,-13.6219,-13.8296,-13.8796,-13.7219,-13.4218,-12.941,-12.3716,-11.7292,-11.0291,-10.5597,-10.202,-9.9327,-10.0519,-10.5213,-11.5291,-11.9792,-12.6409,-13.8796,-14.0296,-14.1181,0.0,-14.3797,-14.3489,-14.3489,-14.2912,0.0,0.0,0.0,-14.3874,-14.5182,-14.6182,-14.6798,-14.6913,-14.6913,-14.6528,-14.5664,-14.478,-14.4203,-14.372,-14.2794,-14.2367,-14.2297,-14.2104,-14.1399,-14.0286,-14.0112,-13.9609,-13.8789,-13.7187,-13.6484,-13.6406,-13.4804,-13.3711,-13.2812,-13.1992,-13.1015,-13.0,-12.9101,-12.8711,-12.8593,-12.8593,-12.8398,-12.8084,-12.8088,-12.7909,-12.7518,-12.7206,-12.7091,-12.6986,-12.6794,-12.6678,-12.6678,-12.6678,-12.7997,-12.919,-12.9206,-13.0475,-13.1679,-13.1679,-13.1679,-13.1679,-13.1679,-13.1679,-13.1679,-13.1679,-13.1679,-13.1102,-12.9398,-12.6195,-12.2784,-11.9492,-11.4676,-11.0902,-10.909,-10.6595,-10.4403,-10.2789,-10.1494,-9.9477,-9.6546,-9.5553,-9.4301,-9.2941,-9.217,-9.1803,-9.1803,-9.1803,-9.1803,-9.1803,-9.1657,-9.1326,-13.6219,-13.8988,-14.0796,-14.1181,-13.768,-13.241,-12.5486,-11.8715,-11.1714,-10.3982,-10.0789,-9.8827,-9.7173,-9.9673,-10.402,-11.0214,-11.3407,-11.9408,-13.2218,-13.3218,-13.5411,-14.2797,-14.4105,-14.472,-14.5605,-14.5297,-14.5413,-14.6297,0.0,-14.5874,-14.6297,-14.6682,-14.6913,-14.6913,-14.6528,-14.6105,-14.5664,-14.4395,-14.3818,-14.3972,-14.3106,-14.2596,-14.2516,-14.1984,-14.1196,-14.0195,-13.9687,-13.8984,-13.8086,-13.6797,-13.6015,-13.5508,-13.4297,-13.3515,-13.3008,-13.1718,-13.0898,-13.039,-12.9101,-12.8593,-12.8593,-12.8593,-12.8515,-12.8398,-12.8398,-12.8203,-12.8086,-12.7695,-12.7506,-12.7342,-12.6986,-12.6794,-12.6678,-12.6678,-12.7986,-12.9294,-12.9782,-13.0833,-13.1679,-13.1679,-13.1679,-13.1679,-13.1679,-13.1679,-13.1679,-13.1679,-13.1679,-13.1102,-12.9398,-12.6629,-12.3332,-11.9498,-11.5297,-11.1718,-10.9098,-10.7405,-10.5597,-10.348,-10.2097,-10.0289,-9.7932,-9.6255,-9.4852,-9.3726,-9.246,-9.1803,-9.1803,-9.1803,-9.1803,-9.1803,-9.1803,-9.1583,-13.7911,-14.0412,-14.1989,-14.2489,-13.718,-12.9794,-12.16,-11.4099,-10.6597,-9.8865,-9.725,-9.7057,-9.6442,-9.9019,-10.2289,-10.5597,-10.7213,-11.2483,-12.5293,-12.6601,-13.0217,-14.0989,-14.372,0.0,-14.649,-14.6798,0.0,0.0,0.0,0.0,-14.699,-14.6798,-14.6721,-14.6721,-14.5856,-14.5279,-14.5105,-14.3835,-14.328,-14.378,-14.3283,-14.2903,-14.2617,-14.1914,-14.1015,-14.0195,-13.9297,-13.8398,-13.75,-13.6718,-13.5781,-13.4883,-13.4101,-13.3593,-13.3086,-13.1718,-13.1015,-13.039,-12.9101,-12.8593,-12.8593,-12.8593,-12.8593,-12.8593,-12.8593,-12.8593,-12.8515,-12.8203,-12.7895,-12.7612,-12.7178,-12.6871,-12.6794,-12.6871,-12.8102,-12.9398,-13.0282,-13.1102,-13.1679,-13.1679,-13.1679,-13.1679,-13.1679,-13.1679,-13.1679,-13.1679,-13.1679,-13.1102,-12.9398,-12.7014,-12.3793,-11.98,-11.6067,-11.2796,-10.9678,-10.8409,-10.679,-10.4593,-10.2904,-10.121,-9.9585,-9.737,-9.5705,-9.4729,-9.3287,-9.2498,-9.2317,-9.2317,-9.2244,-9.206,-9.206,-9.1987,-13.7296,-13.9989,-14.1681,-14.0989,-13.4487,-12.6601,-11.96,-11.0983,-10.2904,-9.7519,-9.6403,-9.6403,-9.6326,-9.6634,-9.8711,-10.4289,-10.529,-10.9906,-12.2716,-12.6986,-13.1487,-13.8796,0.0,0.0,-14.5797,-14.649,0.0,0.0,0.0,0.0,-14.7375,-14.6413,-14.5856,-14.6336,-14.5087,-14.4087,-14.3313,-14.3236,-14.2874,-14.262,-14.2875,-14.2686,-14.2187,-14.1718,-14.1015,-14.0195,-13.9297,-13.8398,-13.75,-13.6718,-13.5781,-13.4883,-13.4101,-13.2812,-13.1406,-13.1289,-13.0195,-12.8789,-12.8711,-12.8593,-12.8593,-12.8593,-12.8593,-12.8593,-12.8593,-12.8593,-12.8515,-12.8203,-12.8113,-12.792,-12.7342,-12.7063,-12.7178,-12.7727,-12.8497,-12.9382,-13.0333,-13.1102,-13.1679,-13.1679,-13.1679,-13.1679,-13.1679,-13.1679,-13.1679,-13.1679,-13.1679,-13.1102,-12.9398,-12.7014,-12.4091,-12.0639,-11.6529,-11.3296,-11.1406,-10.9098,-10.729,-10.6213,-10.4599,-10.2888,-10.1217,-9.9581,-9.7913,-9.6443,-9.5492,-9.4721,-9.4079,-9.4079,-9.3675,-9.2978,-9.2978,-9.2574,-13.4295,-13.8796,-14.1797,-14.1489,-13.3795,-12.4909,-11.91,-10.979,-10.1212,-9.7134,-9.6288,-9.6288,-9.6288,-9.6288,-9.7057,-9.9404,-9.8096,-10.0596,-11.1906,-11.4214,-11.9485,-13.2487,-13.7296,0.0,0.0,0.0,0.0,0.0,0.0,0.0,-14.6721,-14.6312,-14.5909,-14.5793,-14.4814,-14.3989,-14.3506,-14.3198,-14.2928,-14.2813,-14.3104,-14.2992,-14.25,-14.1797,-14.1015,-14.0195,-13.9297,-13.8398,-13.75,-13.6718,-13.5781,-13.4883,-13.4101,-13.3086,-13.1914,-13.1406,-13.039,-12.9297,-12.8789,-12.8593,-12.8593,-12.8593,-12.8593,-12.8593,-12.8593,-12.8593,-12.8593,-12.8398,-12.829,-12.8011,-12.7517,-12.7063,-12.6871,-12.7063,-12.8189,-12.9305,-12.959,-13.0833,-13.1679,-13.1679,-13.1679,-13.1679,-13.1679,-13.1679,-13.1679,-13.1679,-13.1679,-13.1102,-12.9371,-12.7419,-12.4918,-12.1416,-11.7304,-11.3873,-11.1714,-11.0098,-10.8406,-10.6521,-10.579,-10.4397,-10.2216,-10.0586,-9.8955,-9.7351,-9.6105,-9.5081,-9.4299,-9.4299,-9.3896,-9.3088,-9.3088,-9.2648,-12.9602,-13.518,-13.9296,-13.9604,-13.1487,-12.2293,-11.7715,-10.829,-9.975,-9.6903,-9.6288,-9.6288,-9.6288,-9.6288,-9.6288,-9.6288,-9.448,-9.6095,-10.4789,-10.6597,-11.2022,0.0,0.0,0.0,0.0,0.0,0.0,0.0,0.0,0.0,-14.5779,-14.5693,-14.552,-14.5082,-14.4268,-14.3609,-14.3105,-14.279,-14.2481,-14.2213,-14.2601,-14.2581,-14.2187,-14.1484,-14.0781,-14.0117,-13.8984,-13.8203,-13.75,-13.6406,-13.5586,-13.4883,-13.4101,-13.3086,-13.1992,-13.1406,-13.0508,-12.9414,-12.8789,-12.8593,-12.8593,-12.8593,-12.8593,-12.8593,-12.8593,-12.8593,-12.8593,-12.8593,-12.8281,-12.7886,-12.7688,-12.7178,-12.6678,-12.6678,-12.7997,-12.919,-12.9206,-13.0475,-13.1679,-13.1679,-13.1679,-13.1679,-13.1679,-13.1679,-13.1679,-13.1679,-13.1679,-13.1102,-12.9382,-12.7689,-12.5427,-12.2001,-11.8305,-11.4989,-11.2483,-11.1214,-10.9671,-10.7713,-10.679,-10.5597,-10.3828,-10.2183,-10.049,-9.8908,-9.7538,-9.6377,-9.5331,-9.511,-9.4593,-9.3822,-9.3565,-9.2868,-12.2793,-12.8602,-13.3295,-13.4218,-12.6717,-11.8292,-11.4791,-10.6097,-9.8365,-9.6634,-9.6288,-9.6288,-9.6288,-9.6288,-9.6288,-9.6288,-9.6942,-9.9211,-10.4405,-10.879,0.0,0.0,0.0,0.0,0.0,0.0,0.0,0.0,0.0,0.0,-14.4895,-14.4391,-14.4227,-14.4217,-14.3398,-14.2617,-14.1718,-14.1706,-14.1279,-14.039,-14.0781,-14.0898,-14.0898,-14.039,-14.0195,-14.0117,-13.8398,-13.7617,-13.75,-13.5703,-13.5,-13.4883,-13.4101,-13.2695,-13.1211,-13.1211,-13.0117,-12.8593,-12.8593,-12.8593,-12.8593,-12.8593,-12.8593,-12.8593,-12.8593,-12.8593,-12.8593,-12.8593,-12.8086,-12.7612,-12.7572,-12.7178,-12.6678,-12.6678,-12.7997,-12.919,-12.9206,-13.0475,-13.1679,-13.1679,-13.1679,-13.1679,-13.1679,-13.1679,-13.1679,-13.1679,-13.1679,-13.1102,-12.941,-12.7689,-12.5427,-12.2001,-11.9299,-11.6721,-11.4176,-11.2406,-11.1098,-11.0214,-10.779,-10.6405,-10.6405,-10.4789,-10.3119,-10.1367,-10.0613,-9.9417,-9.7793,-9.699,-9.6282,-9.5474,-9.4666,-9.3382,-11.3895,-11.8518,-12.1911,-12.2802,-11.7491,-11.1492,-10.9286,-10.3212,-9.7596,-9.6519,-9.6288,-9.6288,-9.6288,-9.6288,-9.6865,-9.8596,-9.8596,-9.9558,-10.2904,0.0,0.0,0.0,0.0,0.0,0.0,0.0,0.0,0.0,0.0,0.0,-14.4545,-14.4506,-14.4384,-14.41,-14.3789,-14.3203,-14.2109,-14.2285,-14.1894,-14.0703,-14.1093,-14.1289,-14.1289,-14.0507,-14.0195,-14.0117,-13.8984,-13.8515,-13.8398,-13.6601,-13.5898,-13.5703,-13.3711,-13.2187,-13.1093,-13.0508,-12.9609,-12.8593,-12.8593,-12.8593,-12.8593,-12.8593,-12.8593,-12.8593,-12.8593,-12.8593,-12.8593,-12.8593,-12.8086,-12.7612,-12.7572,-12.7178,-12.6678,-12.6678,-12.7535,-12.8535,-12.909,-13.009,-13.1025,-13.1602,-13.1679,-13.1679,-13.1679,-13.1679,-13.1679,-13.1679,-13.1179,-13.0487,-12.9294,-12.7178,-12.5033,-12.2678,-12.0177,-11.7677,-11.5099,-11.3291,-11.2022,-11.1098,-10.979,-10.8213,-10.6521,-10.5905,-10.4308,-10.153,-10.0689,-9.9516,-9.783,-9.7027,-9.6282,-9.5474,-9.4666,-9.3712,-10.629,-11.077,-11.3893,-11.5071,-11.1185,-10.6688,-10.5707,-10.1135,-9.6903,-9.6403,-9.6288,-9.6288,-9.6288,-9.6288,-9.6826,-9.8404,-9.8211,-9.8634,-10.0904,0.0,0.0,0.0,0.0,0.0,0.0,0.0,0.0,0.0,0.0,0.0,-14.4176,-14.4185,-14.4211,-14.3984,-14.3984,-14.3281,-14.1914,-14.2187,-14.1601,-14.0117,-14.039,-14.0507,-14.0507,-14.0,-13.9492,-13.9218,-13.8593,-13.8203,0.0,-13.6406,-13.5781,-13.5586,-13.3711,-13.2304,-13.1093,-13.0586,-12.9609,-12.8593,-12.8593,-12.8593,-12.8593,-12.8593,-12.8593,-12.8593,-12.8593,-12.8593,-12.8593,-12.8593,-12.8095,-12.7607,-12.7594,-12.7178,-12.6678,-12.6678,-12.7342,-12.8112,-12.8986,-12.991,-13.0667,-13.1487,-13.1679,-13.1679,-13.1679,-13.1679,-13.1679,-13.1679,-13.0987,-13.0179,-12.9294,-12.6986,-12.4793,-12.3101,-12.06,-11.8292,-11.6407,-11.4714,-11.3214,-11.2022,-11.1214,-10.9713,-10.7405,-10.7098,-10.5508,-10.2394,-10.161,-10.0197,-9.8215,-9.721,-9.6282,-9.5511,-9.4997,-9.4336,0.0,-10.4677,-10.8098,-10.9825,-10.6707,-10.3206,-10.3324,-9.9596,0.0,-9.6288,-9.6288,-9.6288,-9.6288,-9.6288,-9.6365,-9.6557,-9.6519,-9.7057,-9.8673,-10.4523,0.0,0.0,0.0,0.0,0.0,0.0,0.0,0.0,0.0,0.0,-14.3997,-14.3695,-14.3711,-14.3984,-14.3906,-14.3203,-14.1601,-14.1484,-14.0703,-13.8984,-13.8906,-13.8906,-13.8906,-13.8906,-13.8398,-13.7617,-13.7617,-13.7109,-13.6211,-13.539,-13.5,-13.4883,-13.3984,-13.2695,-13.1289,-13.1211,-13.0117,-12.8711,-12.8593,-12.8593,-12.8593,-12.8593,-12.8593,-12.8593,-12.8593,-12.8593,-12.8593,-12.8593,-12.808,-12.757,-12.7622,-12.7178,-12.6678,-12.6678,-12.7342,-12.8112,-12.8882,-12.9794,-13.059,-13.1487,-13.1679,-13.1679,-13.1679,-13.1679,-13.1679,-13.1679,-13.0987,-13.0102,-12.9294,-12.6986,-12.4793,-12.3216,-12.0793,-11.8908,-11.8023,-11.6292,-11.4599,-11.2906,-11.2022,-11.0791,-10.9098,-10.829,-10.6713,-10.4097,-10.3067,-10.143,-9.9024,-9.7459,-9.6318,-9.5584,-9.5584,-9.5144,-9.3323,0.0,-9.6594,-9.7633,-9.6981,-9.629,0.0,-9.6174,-9.5481,-9.6172,-9.6288,-9.6288,-9.6288,-9.6288,-9.6942,-9.8865,-9.8635,-9.8634,-9.9857,0.0,0.0,0.0,0.0,0.0,0.0,0.0,0.0,0.0,0.0,-14.4796,-14.399,-14.3889,-14.3906,-14.3984,-14.3398,-14.289,-14.25,-14.1797,-14.1015,-13.9882,-13.9218,-13.8906,-13.8906,-13.8906,-13.8398,-13.7617,-13.7617,-13.7109,-13.6211,-13.539,-13.5,-13.4883,-13.3398,-13.2617,-13.1992,-13.0703,-12.9883,-12.9492,-12.8789,-12.8593,-12.8593,-12.8593,-12.8593,-12.8593,-12.8593,-12.8593,-12.8593,-12.8593,-12.8295,-12.7886,-12.768,-12.7342,-12.6986,-12.6678,-12.6794,-12.7178,-12.7997,-12.8909,-12.9821,-13.059,-13.1295,-13.1679,-13.1679,-13.1679,-13.1679,-13.1679,-13.041,-12.941,-12.9217,-12.6986,-12.4986,-12.3909,-12.21,-12.0408,-11.8908,-11.6599,-11.4791,-11.3791,-11.2906,-11.1714,-10.9983,-10.9713,-10.8406,-10.5905,-10.2588,-10.0307,-9.9058,-9.7469,-9.6612,-9.6428,-9.6428,-9.5988,-9.1095,-9.1518,-9.213,-9.2938,-9.3133,-9.3443,-9.4747,-9.5018,-9.5251,-9.6134,-9.6288,-9.6288,-9.6288,-9.5328,-9.5558,-9.8596,-9.7366,-9.8481,0.0,0.0,0.0,0.0,0.0,0.0,0.0,0.0,0.0,0.0,0.0,-14.4492,-14.3984,-14.3984,-14.3789,-14.3515,-14.3007,-14.2617,-14.2187,-14.1289,-14.0507,-13.9609,-13.9101,-13.8906,-13.8906,-13.8515,-13.7812,-13.6992,-13.6992,-13.6289,-13.5117,-13.5,-13.4804,-13.4414,-13.3515,-13.2617,-13.1797,-13.0781,-13.0,-12.9218,-12.8789,-12.8593,-12.8593,-12.8593,-12.8593,-12.8593,-12.8593,-12.8593,-12.8593,-12.8593,-12.8398,-12.8016,-12.7682,-12.7406,-12.6986,-12.6794,-12.6678,-12.6871,-12.7727,-12.8602,-12.9475,-13.0333,-13.1102,-13.1679,-13.1679,-13.1679,-13.1679,-13.1679,-13.0602,-12.9717,-12.9294,-12.7294,-12.5678,-12.4793,-12.2793,-12.1177,-12.0292,-11.7907,-11.5907,-11.4714,-11.3791,-11.2522,-11.0906,-10.9983,-10.8213,-10.529,-10.2395,-10.0413,-9.9579,-9.8059,-9.7236,-9.7236,-9.6869,-9.6465,-9.1171,-9.1402,-9.1556,-9.2322,-9.2515,-9.2938,-9.4625,-9.5016,-9.5251,-9.6134,-9.6288,-9.6211,-9.598,-9.4712,-9.4712,-9.7633,-9.6497,0.0,0.0,0.0,0.0,0.0,0.0,0.0,0.0,0.0,0.0,0.0,0.0,-14.3906,-14.3789,-14.3789,-14.3398,-14.2617,-14.25,-14.1992,-14.1289,-14.0586,-13.9804,-13.9101,-13.8984,-13.8906,-13.8906,-13.8007,-13.7109,-13.6289,-13.6211,-13.5195,-13.3906,-13.4492,-13.4414,-13.3789,-13.3711,-13.2695,-13.1406,-13.1093,-13.0117,-12.8789,-12.8593,-12.8593,-12.8593,-12.8593,-12.8593,-12.8593,-12.8593,-12.8593,-12.8593,-12.8593,-12.8398,-12.8117,-12.7808,-12.7407,-12.7063,-12.6794,-12.6678,-12.6871,-12.7612,-12.8371,-12.9294,-13.0102,-13.0987,-13.1602,-13.1679,-13.1679,-13.1679,-13.1679,-13.0987,-13.0217,-12.9487,-12.7909,-12.6601,-12.5678,-12.3485,-12.1985,-12.16,-11.96,-11.76,-11.5792,-11.4714,-11.3407,-11.1791,-10.9906,-10.7598,-10.4713,-10.2699,-10.1309,-10.063,-9.8905,-9.808,-9.808,-9.7383,-9.7089,-9.2091,-9.2322,-9.2322,-9.2476,-9.2515,-9.2938,-9.4625,-9.5016,-9.5251,-9.6134,-9.6288,-9.5865,-9.4368,-9.6903,-9.921,0.0,0.0,0.0,0.0,0.0,0.0,0.0,0.0,0.0,0.0,0.0,0.0,0.0,0.0,-14.3711,-14.3007,-14.3007,-14.2617,-14.1718,-14.1015,-14.0507,-14.039,-14.0312,-14.0117,-14.0,-13.9297,-13.8906,-13.8906,-13.8007,-13.7109,-13.6289,-13.5508,-13.4687,-13.3789,-13.3906,-13.3906,-13.3711,-13.3008,-13.25,-13.2109,-13.0586,-12.9883,-12.9609,-12.8906,-12.8593,-12.8593,-12.8593,-12.8593,-12.8593,-12.8593,-12.8593,-12.8593,-12.8593,-12.8593,-12.8398,-12.8117,-12.7795,-12.7419,-12.7063,-12.6871,-12.6678,-12.6871,-12.7486,-12.8409,-12.9217,-13.0102,-13.091,-13.1602,-13.1679,-13.1679,-13.1679,-13.0987,-13.0487,-13.0294,-12.8794,-12.7409,-12.6601,-12.5486,-12.3909,-12.1793,-12.1177,-11.9985,-11.76,-11.5984,-11.4291,-11.2599,-11.0214,-10.8713,-10.8098,-10.4372,-10.2365,-10.229,-9.998,-9.8924,-9.8924,-9.8814,-9.8741,-9.1672,-9.179,-9.1908,-9.2405,-9.1869,-9.1254,-9.1254,-9.1256,-9.1988,-9.4712,-9.4905,-9.4905,-9.6019,0.0,-10.0408,-10.388,0.0,0.0,0.0,0.0,0.0,0.0,0.0,0.0,0.0,0.0,0.0,0.0,0.0,-14.3007,-14.2109,-14.2109,-14.1484,-14.0117,-14.0195,-13.9492,-13.8086,-13.8593,-13.8984,-13.9492,-13.8593,-13.8398,-13.8906,-13.75,-13.6718,-13.6211,-13.4883,-13.4101,-13.3789,-13.3789,-13.3789,-13.3711,-13.2812,-13.2187,-13.1601,-12.9804,-12.9218,-12.9101,-12.8711,-12.8593,-12.8593,-12.8593,-12.8593,-12.8593,-12.8593,-12.8593,-12.8593,-12.8593,-12.8593,-12.8515,-12.8203,-12.7987,-12.769,-12.7197,-12.6986,-12.6871,-12.6678,-12.7294,-12.8217,-12.8986,-12.991,-13.0794,-13.1602,-13.1679,-13.1679,-13.1679,-13.141,-13.0987,-13.0602,-12.9794,-12.8794,-12.7486,-12.6601,-12.5409,-12.3793,-12.2408,-12.0292,-11.7292,-11.5984,-11.4291,-11.2099,-11.0906,-10.9713,-10.829,-10.5475,-10.3799,-10.3384,-10.1389,-10.0393,-10.0393,-10.0393,-10.0393,-9.1441,-9.1636,-9.1794,-9.191,-9.149,-9.0953,-9.0682,-9.0798,-9.2064,-9.599,-9.6106,-9.6183,-9.8486,0.0,0.0,0.0,0.0,0.0,0.0,0.0,0.0,0.0,0.0,0.0,0.0,0.0,0.0,0.0,0.0,-14.2109,-14.1211,-14.1211,-14.039,-13.8711,-13.9218,-13.8515,-13.6289,-13.6797,-13.7382,-13.8281,-13.7617,-13.7617,-13.8203,-13.6718,-13.6015,-13.5898,-13.4414,-13.3789,-13.3789,-13.3593,-13.3515,-13.3398,-13.2304,-13.1406,-13.039,-12.9101,-12.8593,-12.8593,-12.8593,-12.8593,-12.8593,-12.8593,-12.8593,-12.8593,-12.8593,-12.8593,-12.8593,-12.8593,-12.8593,-12.8515,-12.8281,-12.8203,-12.8016,-12.7527,-12.717,-12.6986,-12.6794,-12.7217,-12.7909,-12.8717,-12.9602,-13.0487,-13.1295,-13.1602,-13.1679,-13.1679,-13.1679,-13.1487,-13.091,-13.0602,-12.9987,-12.8717,-12.7602,-12.6601,-12.5486,-12.3101,-12.0485,-11.7907,-11.6407,-11.4714,-11.2791,-11.1906,-11.0474,-10.8306,-10.6391,-10.5133,-10.4317,-10.2834,-10.2081,-10.2081,-10.2081,-10.2081,-9.2207,-9.2938,-9.3015,-9.0867,-9.1937,-9.4328,-9.7648,-9.9015,-10.0382,-10.3392,-10.3314,-10.2298,-10.1007,0.0,0.0,0.0,0.0,0.0,0.0,0.0,0.0,0.0,0.0,0.0,0.0,0.0,0.0,0.0,0.0,-14.1211,-14.0312,-14.0312,-13.9492,-13.7695,-13.7812,-13.7304,-13.6289,-13.5586,-13.5586,-13.6484,-13.6406,-13.6406,-13.6484,-13.5508,-13.5117,-13.5,-13.4218,-13.3789,-13.3711,-13.289,-13.2617,-13.2383,-13.0703,-12.9609,-12.8789,-12.8593,-12.8593,-12.8593,-12.8593,-12.8593,-12.8593,-12.8593,-12.8593,-12.8593,-12.8593,-12.8593,-12.8593,-12.8593,-12.8593,-12.8593,-12.8593,-12.8281,-12.8085,-12.8,-12.7574,-12.7063,-12.7063,-12.6871,-12.6986,-12.7794,-12.8717,-12.9602,-13.041,-13.1179,-13.1679,-13.1679,-13.1679,-13.1679,-13.1602,-13.0987,-13.0487,-13.0294,-12.8794,-12.7217,-12.5486,-12.3101,-12.1485,-12.1177,-11.8177,-11.6292,-11.6099,-11.3214,-11.0986,-11.0015,-10.7642,-10.5907,-10.5092,-10.4224,-10.3696,-10.3696,-10.3696,-10.3696,-9.1787,-9.2245,-9.2476,-9.1946,-9.2982,-9.4529,-9.6105,-9.7639,-9.9961,-10.4297,-10.6211,-10.75,-10.9101,0.0,0.0,0.0,0.0,0.0,0.0,0.0,0.0,0.0,0.0,0.0,0.0,0.0,0.0,0.0,-14.039,-13.9492,-13.8593,-13.8086,-13.7187,-13.6015,-13.6484,-13.6093,-13.4804,-13.4883,-13.4883,-13.4804,-13.5312,-13.5781,-13.6289,-13.539,-13.5,-13.5,-13.4101,-13.3515,-13.3008,-13.2617,-13.2187,-13.1601,-13.039,-12.9414,-12.8593,-12.8593,-12.8593,-12.8593,-12.8593,-12.8593,-12.8593,-12.8593,-12.8593,-12.8593,-12.8593,-12.8593,-12.8593,-12.8593,-12.8593,-12.8593,-12.8593,-12.8515,-12.8398,-12.8086,-12.7691,-12.7377,-12.71,-12.6871,-12.6909,-12.7717,-12.8602,-12.9487,-13.0294,-13.1179,-13.1679,-13.1679,-13.1679,-13.1679,-13.1679,-13.141,-13.1102,-13.0602,-12.941,-12.7986,-12.6409,-12.5293,-12.4101,-12.2485,-11.9715,-11.76,-11.6484,-11.5291,-11.401,-11.2628,-11.0113,-10.8614,-10.8322,-10.6904,-10.5899,-10.5495,-10.5972,-10.5899,-9.105,-9.1369,-9.1515,-9.1668,-9.3753,-9.6163,-9.7689,-9.9722,-10.2812,-10.8398,-11.0508,-11.1992,-11.4414,-11.6797,0.0,0.0,0.0,0.0,0.0,0.0,0.0,0.0,0.0,0.0,0.0,0.0,0.0,0.0,-13.9101,-13.8203,-13.7617,-13.6797,-13.5898,-13.5,-13.5312,-13.5,-13.3789,-13.4101,-13.4101,-13.3789,-13.4414,-13.4883,-13.5508,-13.4883,-13.4492,-13.4218,-13.3906,-13.3086,-13.2109,-13.2109,-13.1406,-13.0312,-12.9687,-12.9101,-12.8593,-12.8593,-12.8593,-12.8593,-12.8593,-12.8593,-12.8593,-12.8593,-12.8593,-12.8593,-12.8593,-12.8593,-12.8593,-12.8593,-12.8593,-12.8593,-12.8593,-12.8593,-12.8515,-12.8281,-12.7987,-12.7708,-12.7319,-12.6986,-12.6986,-12.7409,-12.8217,-12.9102,-12.991,-13.0794,-13.141,-13.1679,-13.1679,-13.1679,-13.1679,-13.1679,-13.141,-13.0602,-12.9987,-12.8986,-12.7602,-12.6986,-12.5986,-12.4216,-12.1716,-11.9485,-11.7792,-11.6907,-11.5778,-11.4401,-11.1898,-11.0385,-11.0193,-10.8681,-10.7697,-10.7183,-10.7697,-10.7477,-9.0108,-9.0625,-9.0387,-8.9586,-9.406,-9.9831,-10.4189,-10.7187,-11.0781,-11.7109,-11.6992,-11.5781,-11.5781,-11.7187,0.0,0.0,0.0,0.0,0.0,0.0,0.0,0.0,0.0,0.0,0.0,0.0,0.0,0.0,-13.8593,-13.7617,-13.7617,-13.6718,-13.5898,-13.5,-13.4218,-13.3789,-13.3789,-13.289,-13.289,-13.3789,-13.3789,-13.3789,-13.3789,-13.3789,-13.3281,-13.25,-13.3398,-13.2812,-13.1211,-13.1211,-13.0195,-12.8593,-12.8593,-12.8593,-12.8593,-12.8593,-12.8593,-12.8593,-12.8593,-12.8593,-12.8593,-12.8593,-12.8593,-12.8593,-12.8593,-12.8593,-12.8593,-12.8593,-12.8593,-12.8593,-12.8593,-12.8593,-12.8593,-12.8593,-12.8281,-12.7978,-12.7725,-12.7304,-12.6986,-12.6794,-12.7409,-12.8217,-12.8986,-12.991,-13.0794,-13.1602,-13.1679,-13.1679,-13.1679,-13.1679,-13.141,-13.0602,-13.0487,-13.0217,-12.9294,-12.7678,-12.6678,-12.6678,-12.4293,-12.21,-12.0408,-11.7907,-11.609,-11.5189,-11.2721,-11.102,-11.0125,-10.9317,-10.8799,-10.8799,-10.8799,-10.8395,-9.3043,-9.1445,0.0,-9.4072,-9.6097,-9.9172,-10.6912,-10.9883,-11.3515,-12.1992,-12.2383,-12.1406,-12.1992,-12.3008,0.0,0.0,0.0,0.0,0.0,0.0,0.0,0.0,0.0,0.0,0.0,0.0,0.0,-13.8398,-13.6797,-13.5781,-13.5781,-13.5,-13.4101,-13.3281,-13.3008,-13.2617,-13.1992,-13.1718,-13.1718,-13.1992,-13.1992,-13.2617,-13.3789,-13.3789,-13.3281,-13.25,-13.2812,-13.1914,-13.0195,-12.9609,-12.9101,-12.8593,-12.8593,-12.8593,-12.8593,-12.8593,-12.8593,-12.8593,-12.8593,-12.8593,-12.8593,-12.8593,-12.8593,-12.8593,-12.8593,-12.8593,-12.8593,-12.8593,-12.8593,-12.8593,-12.8593,-12.8593,-12.8593,-12.8593,-12.8281,-12.812,-12.8003,-12.7502,-12.7063,-12.6986,-12.7486,-12.8217,-12.8986,-12.991,-13.0794,-13.1602,-13.1679,-13.1679,-13.1679,-13.1679,-13.1602,-13.141,-13.1295,-13.0987,-13.0217,-12.9679,-12.8602,-12.6794,-12.5986,-12.4293,-12.1293,-11.9908,-11.8469,-11.7088,-11.5685,-11.4313,-11.2787,-11.1915,-11.0775,-10.9606,-10.9606,-10.8872,-9.1054,-9.0078,0.0,-9.4348,-9.7795,-10.2383,-11.1406,0.0,-11.9414,-12.6211,-12.5898,-12.4883,-12.6093,-12.6406,0.0,0.0,0.0,0.0,0.0,0.0,0.0,0.0,0.0,0.0,0.0,0.0,0.0,-13.7695,-13.6015,-13.5,-13.5,-13.4218,-13.3398,-13.25,-13.2187,-13.1718,-13.1211,-13.0898,-13.0898,-13.1211,-13.1211,-13.1797,-13.2812,-13.2812,-13.2304,-13.1406,-13.1093,-13.0586,-12.9804,-12.8984,-12.8593,-12.8593,-12.8593,-12.8593,-12.8593,-12.8593,-12.8593,-12.8593,-12.8593,-12.8593,-12.8593,-12.8593,-12.8593,-12.8593,-12.8593,-12.8593,-12.8593,-12.8593,-12.8593,-12.8593,-12.8593,-12.8593,-12.8593,-12.8593,-12.8398,-12.8281,-12.8086,-12.7817,-12.7431,-12.7177,-12.7371,-12.7794,-12.8602,-12.941,-13.0294,-13.1102,-13.1487,-13.1679,-13.1679,-13.1679,-13.1679,-13.1679,-13.1679,-13.1487,-13.0987,-13.0679,-12.9679,-12.7794,-12.7101,-12.5601,-12.3178,-12.16,-12.0216,-11.8792,-11.7309,-11.5973,-11.4881,-11.3296,-11.2009,-11.0987,-11.0551,-10.979,-8.6953,-8.7969,0.0,-9.2929,-10.039,0.0,-11.7187,-12.2812,-12.6914,-12.9218,0.0,-12.6992,-12.8515,0.0,0.0,0.0,0.0,0.0,0.0,0.0,0.0,0.0,0.0,0.0,0.0,0.0,-13.8281,-13.7382,-13.5781,-13.4883,-13.4883,-13.4101,-13.3281,-13.2383,-13.1484,-13.1015,-13.1015,-13.0195,-13.0195,-13.1015,-13.1015,-13.1015,-13.1015,-13.1093,-13.0703,-12.9883,-12.8984,-12.8984,-12.9687,-12.8906,-12.8593,-12.8593,-12.8593,-12.8593,-12.8593,-12.8593,-12.8593,-12.8593,-12.8593,-12.8593,-12.8593,-12.8593,-12.8593,-12.8593,-12.8593,-12.8593,-12.8593,-12.8593,-12.8593,-12.8593,-12.8593,-12.8593,-12.8593,-12.8593,-12.8593,-12.8515,-12.8203,-12.8086,-12.79,-12.7301,-12.7083,-12.7294,-12.7794,-12.8602,-12.9487,-13.0487,-13.1179,-13.1679,-13.1679,-13.1679,-13.1679,-13.1679,-13.1679,-13.1679,-13.1679,-13.0987,-13.0217,-12.941,-12.7794,-12.6486,-12.5601,-12.3101,-12.1293,-12.0408,-11.8088,-11.6677,-11.6469,-11.413,-11.2662,-11.2546,-11.1679,-11.0795,-9.3164,-9.2031,0.0,0.0,-11.0195,-11.8789,-12.3281,-12.6289,-12.8008,-12.789,-12.8984,-13.0195,0.0,0.0,0.0,0.0,0.0,0.0,0.0,0.0,0.0,0.0,0.0,0.0,0.0,0.0,-13.6484,-13.5586,-13.4609,-13.4101,-13.4101,-13.3203,-13.2383,-13.1484,-13.0586,-12.9883,-12.9218,-12.8984,-12.8984,-12.9218,-12.9218,-12.9218,-12.9218,-13.0586,-13.0703,-12.9883,-12.8984,-12.8711,-12.8906,-12.8711,-12.8593,-12.8593,-12.8593,-12.8593,-12.8593,-12.8593,-12.8593,-12.8593,-12.8593,-12.8593,-12.8593,-12.8593,-12.8593,-12.8593,-12.8593,-12.8593,-12.8593,-12.8593,-12.8593,-12.8593,-12.8593,-12.8593,-12.8593,-12.8593,-12.8593,-12.8593,-12.8515,-12.8281,-12.8016,-12.7626,-12.7303,-12.7294,-12.7794,-12.8602,-12.9717,-13.1179,-13.1602,-13.1679,-13.1679,-13.1679,-13.1679,-13.1679,-13.1679,-13.1679,-13.1679,-13.1487,-13.1102,-13.0294,-12.9217,-12.7986,-12.6486,-12.3985,-12.2216,-12.1293,-12.0074,-11.8511,-11.6507,-11.5893,-11.4619,-11.2509,-11.2311,-11.1412,-9.1679,0.0,0.0,-10.75,0.0,-12.289,-12.5898,-12.7617,-12.8593,-12.8593,0.0,0.0,0.0,0.0,0.0,0.0,0.0,0.0,0.0,0.0,0.0,0.0,0.0,0.0,0.0,-13.6406,-13.5508,-13.5,-13.4297,-13.3593,-13.3203,-13.2695,-13.1914,-13.0586,-13.0117,-12.9492,-12.8593,-12.8593,-12.8593,-12.8593,-12.8593,-12.8593,-12.8593,-12.9492,-12.9687,-12.9297,-12.8789,-12.8593,-12.8593,-12.8593,-12.8593,-12.8593,-12.8593,-12.8593,-12.8593,-12.8593,-12.8593,-12.8593,-12.8593,-12.8593,-12.8593,-12.8593,-12.8593,-12.8593,-12.8593,-12.8593,-12.8593,-12.8593,-12.8593,-12.8593,-12.8593,-12.8593,-12.8593,-12.8593,-12.8593,-12.8593,-12.8593,-12.8515,-12.8198,-12.7915,-12.7599,-12.7371,-12.7486,-12.8486,-12.9602,-13.091,-13.1487,-13.1679,-13.1679,-13.1679,-13.1679,-13.1679,-13.1679,-13.1679,-13.1679,-13.1679,-13.141,-13.0602,-12.9717,-12.8602,-12.7294,-12.5216,-12.3485,-12.2216,-12.0985,-11.9498,-11.7732,-11.6903,-11.5605,-11.3806,-11.3432,-11.2476,-8.8984,0.0,-10.1289,-11.2812,-11.9609,0.0,-12.6718,-12.8008,-12.8789,0.0,0.0,0.0,0.0,0.0,0.0,0.0,0.0,0.0,0.0,0.0,0.0,0.0,0.0,0.0,0.0,-13.5781,-13.4883,-13.4609,-13.3984,-13.3203,-13.2304,-13.2109,-13.1406,-12.9883,-12.9804,-12.9297,-12.8593,-12.8593,-12.8593,-12.8593,-12.8593,-12.8593,-12.8593,-12.8593,-12.8593,-12.8593,-12.8593,-12.8593,-12.8593,-12.8593,-12.8593,-12.8593,-12.8593,-12.8593,-12.8593,-12.8593,-12.8593,-12.8593,-12.8593,-12.8593,-12.8593,-12.8593,-12.8593,-12.8593,-12.8593,-12.8593,-12.8593,-12.8593,-12.8593,-12.8593,-12.8593,-12.8593,-12.8593,-12.8593,-12.8593,-12.8593,-12.8593,-12.8593,-12.8494,-12.8193,-12.7793,-12.7535,-12.7294,-12.8179,-12.9294,-13.0294,-13.1102,-13.1487,-13.1679,-13.1679,-13.1679,-13.1679,-13.1679,-13.1679,-13.1679,-13.1679,-13.141,-13.0718,-12.991,-12.8986,-12.8217,-12.6486,-12.4793,-12.3101,-12.16,-12.0216,-11.91,-11.7681,-11.6275,-11.521,-11.4526,-11.3496,-9.3203,0.0,-10.8008,0.0,-11.9687,-12.4218,0.0,0.0,0.0,0.0,0.0,0.0,0.0,0.0,0.0,0.0,0.0,0.0,0.0,0.0,0.0,0.0,0.0,0.0,-13.539,-13.5117,-13.4414,-13.289,-13.2695,-13.2304,-13.1406,-13.0703,-13.0117,-12.9883,-12.9218,-12.8711,-12.8593,-12.8593,-12.8593,-12.8593,-12.8593,-12.8593,-12.8593,-12.8593,-12.8593,-12.8593,-12.8593,-12.8593,-12.8593,-12.8593,-12.8593,-12.8593,-12.8593,-12.8593,-12.8593,-12.8593,-12.8593,-12.8593,-12.8593,-12.8593,-12.8593,-12.8593,-12.8593,-12.8593,-12.8593,-12.8593,-12.8593,-12.8593,-12.8593,-12.8593,-12.8593,-12.8593,-12.8593,-12.8593,-12.8593,-12.8593,-12.8593,-12.8593,-12.8491,-12.8206,-12.7613,-12.7294,-12.7717,-12.7909,-12.8602,-13.0294,-13.0602,-13.091,-13.1602,-13.1679,-13.1679,-13.1679,-13.1679,-13.1679,-13.1679,-13.1679,-13.1679,-13.1487,-13.0794,-12.991,-12.9102,-12.7409,-12.5678,-12.3985,-12.3024,-12.1408,-11.91,-11.8892,-11.7527,-11.521,-11.5098,-11.4097,-9.6875,-10.1914,-10.7383,0.0,-11.8203,-12.2109,-12.5195,0.0,0.0,0.0,0.0,0.0,0.0,0.0,0.0,0.0,0.0,0.0,0.0,0.0,0.0,0.0,0.0,0.0,-13.3008,-13.289,-13.2617,-13.1797,-13.1797,-13.1406,-13.0508,-13.0117,-12.9687,-12.9218,-12.8789,-12.8593,-12.8593,-12.8593,-12.8593,-12.8593,-12.8593,-12.8593,-12.8593,-12.8593,-12.8593,-12.8593,-12.8593,-12.8593,-12.8593,-12.8593,-12.8593,-12.8593,-12.8593,-12.8593,-12.8593,-12.8593,-12.8593,-12.8593,-12.8593,-12.8593,-12.8593,-12.8593,-12.8593,-12.8593,-12.8593,-12.8593,-12.8593,-12.8593,-12.8593,-12.8593,-12.8593,-12.8593,-12.8593,-12.8593,-12.8593,-12.8593,-12.8593,-12.8593,-12.8513,-12.8212,-12.7721,-12.7371,-12.7409,-12.7717,-12.8294,-12.9602,-13.0217,-13.0794,-13.1602,-13.1679,-13.1679,-13.1679,-13.1679,-13.1679,-13.1679,-13.1679,-13.1679,-13.1679,-13.091,-13.0102,-12.9217,-12.7986,-12.6601,-12.4909,-12.3601,-12.1908,-11.9792,-11.9292,-11.8307,-11.6595,-11.6173,-11.5003,-9.8711,0.0,-10.5586,-11.1406,-11.5781,-11.9492,0.0,0.0,0.0,0.0,0.0,0.0,0.0,0.0,0.0,0.0,0.0,0.0,0.0,0.0,0.0,0.0,0.0,-13.1914,-13.1289,-13.1211,-13.1093,-13.0898,-13.0898,-13.0508,-12.9609,-12.9609,-12.9297,-12.8593,-12.8593,-12.8593,-12.8593,-12.8593,-12.8593,-12.8593,-12.8593,-12.8593,-12.8593,-12.8593,-12.8593,-12.8593,-12.8593,-12.8593,-12.8593,-12.8593,-12.8593,-12.8593,-12.8593,-12.8593,-12.8593,-12.8593,-12.8593,-12.8593,-12.8593,-12.8593,-12.8593,-12.8593,-12.8593,-12.8593,-12.8593,-12.8593,-12.8593,-12.8593,-12.8593,-12.8593,-12.8593,-12.8593,-12.8593,-12.8593,-12.8593,-12.8593,-12.8593,-12.8593,-12.8515,-12.8203,-12.7801,-12.7473,-12.7237,-12.7409,-12.7986,-12.8986,-12.9794,-13.0487,-13.1602,-13.1679,-13.1679,-13.1679,-13.1679,-13.1679,-13.1679,-13.1679,-13.1679,-13.1679,-13.1102,-13.041,-12.9602,-12.8717,-12.7409,-12.5794,-12.4293,-12.2601,-12.06,-11.9792,-11.8908,-11.7792,-11.71,-11.5906,-9.7578,-10.1015,0.0,-10.7617,0.0,0.0,0.0,0.0,0.0,0.0,0.0,0.0,0.0,0.0,0.0,0.0,0.0,0.0,0.0,0.0,0.0,0.0,0.0,-13.1211,-13.1211,-13.1211,-13.0898,-13.0,-13.0,-12.9609,-12.8711,-12.8711,-12.8593,-12.8593,-12.8593,-12.8593,-12.8593,-12.8593,-12.8593,-12.8593,-12.8593,-12.8593,-12.8593,-12.8593,-12.8593,-12.8593,-12.8593,-12.8593,-12.8593,-12.8593,-12.8593,-12.8593,-12.8593,-12.8593,-12.8593,-12.8593,-12.8593,-12.8593,-12.8593,-12.8593,-12.8593,-12.8593,-12.8593,-12.8593,-12.8593,-12.8593,-12.8593,-12.8593,-12.8593,-12.8593,-12.8593,-12.8593,-12.8593,-12.8593,-12.8593,-12.8593,-12.8593,-12.8593,-12.8515,-12.8203,-12.7807,-12.7518,-12.7223,-12.6871,-12.7294,-12.8986,-12.9217,-12.991,-13.1487,-13.1679,-13.1679,-13.1679,-13.1679,-13.1679,-13.1679,-13.1679,-13.1679,-13.1679,-13.1679,-13.1295,-13.0487,-12.9602,-12.8294,-12.6678,-12.5678,-12.3985,-12.1485,-12.0677,-11.9408,-11.7792,-11.7792,-11.6809,-9.8164,-10.0898,0.0,-10.7187,-11.0703,0.0,0.0,0.0,0.0,0.0,0.0,0.0,0.0,0.0,0.0,0.0,0.0,0.0,0.0,0.0,0.0,0.0,0.0,-12.9492,-12.9492,-12.9492,-12.9414,-12.9101,-12.9101,-12.8906,-12.8593,-12.8593,-12.8593,-12.8593,-12.8593,-12.8593,-12.8593,-12.8593,-12.8593,-12.8593,-12.8593,-12.8593,-12.8593,-12.8593,-12.8593,-12.8593,-12.8593,-12.8593,-12.8593,-12.8593,-12.8593,-12.8593,-12.8593,-12.8593,-12.8593,-12.8593,-12.8593,-12.8593,-12.8593,-12.8593,-12.8593,-12.8593,-12.8593,-12.8593,-12.8593,-12.8593,-12.8593,-12.8593,-12.8593,-12.8593,-12.8593,-12.8593,-12.8593,-12.8593,-12.8593,-12.8593,-12.8593,-12.8593,-12.8593,-12.8398,-12.7977,-12.7587,-12.7415,-12.6986,-12.7101,-12.8217,-12.8794,-12.9602,-13.0794,-13.141,-13.1679,-13.1679,-13.1679,-13.1679,-13.1679,-13.1679,-13.1679,-13.1679,-13.1679,-13.1295,-13.0487,-13.0217,-12.9217,-12.7486,-12.6678,-12.4986,-12.2408,-12.16,-12.0485,-11.9408,-11.8908,-11.7998,-9.9062,-10.0898,-10.3203,0.0,0.0,0.0,0.0,0.0,0.0,0.0,0.0,0.0,0.0,0.0,0.0,0.0,0.0,0.0,0.0,0.0,0.0,0.0,-12.8593,-12.8593,-12.8593,-12.8593,-12.8593,-12.8593,-12.8593,-12.8593,-12.8593,-12.8593,-12.8593,-12.8593,-12.8593,-12.8593,-12.8593,-12.8593,-12.8593,-12.8593,-12.8593,-12.8593,-12.8593,-12.8593,-12.8593,-12.8593,-12.8593,-12.8593,-12.8593,-12.8593,-12.8593,-12.8593,-12.8593,-12.8593,-12.8593,-12.8593,-12.8593,-12.8593,-12.8593,-12.8593,-12.8593,-12.8593,-12.8593,-12.8593,-12.8593,-12.8593,-12.8593,-12.8593,-12.8593,-12.8593,-12.8593,-12.8593,-12.8593,-12.8593,-12.8593,-12.8593,-12.8593,-12.8593,-12.8593,-12.8593,-12.8104,-12.7685,-12.7622,-12.7178,-12.7101,-12.7794,-12.8409,-12.9217,-13.041,-13.0987,-13.141,-13.1679,-13.1679,-13.1679,-13.1679,-13.1679,-13.1679,-13.1679,-13.1679,-13.1487,-13.091,-13.0602,-12.9987,-12.8794,-12.7717,-12.5986,-12.3716,-12.2601,-12.1408,-12.0292,-11.9792,-11.8689,0.0,0.0,0.0,-10.4804,0.0,0.0,0.0,0.0,0.0,0.0,0.0,0.0,0.0,0.0,0.0,0.0,0.0,0.0,0.0,0.0,0.0,0.0,-12.8593,-12.8593,-12.8593,-12.8593,-12.8593,-12.8593,-12.8593,-12.8593,-12.8593,-12.8593,-12.8593,-12.8593,-12.8593,-12.8593,-12.8593,-12.8593,-12.8593,-12.8593,-12.8593,-12.8593,-12.8593,-12.8593,-12.8593,-12.8593,-12.8593,-12.8593,-12.8593,-12.8593,-12.8593,-12.8593,-12.8593,-12.8593,-12.8593,-12.8593,-12.8593,-12.8593,-12.8593,-12.8593,-12.8593,-12.8593,-12.8593,-12.8593,-12.8593,-12.8593,-12.8593,-12.8593,-12.8593,-12.8593,-12.8593,-12.8593,-12.8593,-12.8593,-12.8593,-12.8593,-12.8593,-12.8593,-12.8593,-12.8593,-12.8281,-12.7998,-12.7718,-12.7304,-12.7294,-12.7794,-12.7909,-12.8525,-13.0217,-13.0487,-13.0794,-13.1602,-13.1679,-13.1679,-13.1679,-13.1602,-13.1602,-13.1602,-13.1602,-13.1602,-13.1602,-13.091,-13.041,-13.041,-12.8794,-12.7101,-12.5409,-12.3716,-12.1985,-12.0292,-12.0292,-11.8995,-10.0195,0.0,0.0,0.0,0.0,0.0,-10.9101,-10.9804,0.0,0.0,0.0,0.0,0.0,0.0,0.0,0.0,0.0,0.0,0.0,0.0,0.0,0.0,-12.8593,-12.8593,-12.8593,-12.8593,-12.8593,0.0,-12.8593,-12.8593,-12.8593,-12.8593,-12.8593,-12.8593,-12.8593,-12.8593,-12.8593,-12.8593,-12.8593,-12.8593,-12.8593,-12.8593,-12.8593,-12.8593,-12.8593,-12.8593,-12.8593,-12.8593,-12.8593,-12.8593,-12.8593,-12.8593,-12.8593,-12.8593,-12.8593,-12.8593,-12.8593,-12.8593,-12.8593,-12.8593,-12.8593,-12.8593,-12.8593,-12.8593,-12.8593,-12.8593,-12.8593,-12.8593,-12.8593,-12.8593,-12.8593,-12.8593,-12.8593,-12.8593,-12.8593,-12.8593,-12.8593,-12.8593,-12.8593,-12.8593,-12.8281,-12.801,-12.7702,-12.7299,-12.7101,-12.6986,-12.7486,-12.8294,-12.941,-13.0102,-13.0794,-13.1602,-13.1179,-13.0794,-13.0794,-13.0294,-12.991,-12.991,-12.991,-12.991,-12.991,-12.9717,-12.9294,-12.8602,-12.8102,-12.6794,-12.4486,-12.3985,-12.2908,-12.1177,-12.1177,-12.0199,-10.1406,-10.1601,-10.2109,-10.3281,0.0,0.0,-10.6289,-10.7187,-10.8008,0.0,0.0,0.0,0.0,0.0,0.0,0.0,0.0,0.0,0.0,0.0,0.0,0.0,-12.75,-12.7695,-12.8008,-12.8086,-12.8203,-12.8593,-12.8593,-12.8593,-12.8593,-12.8593,-12.8593,-12.8593,-12.8593,-12.8593,-12.8593,-12.8593,-12.8593,-12.8593,-12.8593,-12.8593,-12.8593,-12.8593,-12.8593,-12.8593,-12.8593,-12.8593,-12.8593,-12.8593,-12.8593,-12.8593,-12.8593,-12.8593,-12.8593,-12.8593,-12.8593,-12.8593,-12.8593,-12.8593,-12.8593,-12.8593,-12.8593,-12.8593,-12.8593,-12.8593,-12.8593,-12.8593,-12.8593,-12.8593,-12.8593,-12.8593,-12.8593,-12.8593,-12.8593,-12.8593,-12.8593,-12.8593,-12.8593,-12.8593,-12.8398,-12.8195,-12.7912,-12.7475,-12.7063,-12.6486,-12.6601,-12.7217,-12.7986,-12.8602,-12.941,-13.0487,-13.0217,-12.9987,-12.9987,-12.9487,-12.9217,-12.9217,-12.9217,-12.9217,-12.9217,-12.9217,-12.8986,-12.8486,-12.8102,-12.6601,-12.4101,-12.4101,-12.3216,-12.16,-12.16,-12.0908,-10.3008,-10.1797,-10.1015,-10.2304,-10.2695,0.0,-10.289,-10.4219,-10.539,0.0,0.0,0.0,0.0,0.0,0.0,0.0,0.0,0.0,0.0,0.0,0.0,0.0,-12.6015,-12.6289,-12.7109,-12.7187,-12.7617,-12.8398,-12.8515,-12.8593,-12.8593,-12.8593,-12.8593,-12.8593,-12.8593,-12.8593,-12.8593,-12.8593,-12.8593,-12.8593,-12.8593,-12.8593,-12.8593,-12.8593,-12.8593,-12.8593,-12.8593,-12.8593,-12.8593,-12.8593,-12.8593,-12.8593,-12.8593,-12.8593,-12.8593,-12.8593,-12.8593,-12.8593,-12.8593,-12.8593,-12.8593,-12.8593,-12.8593,-12.8593,-12.8593,-12.8593,-12.8593,-12.8593,-12.8593,-12.8593,-12.8593,-12.8593,-12.8593,-12.8593,-12.8593,-12.8593,-12.8593,-12.8593,-12.8593,-12.8593,-12.8593,-12.8515,-12.8203,-12.7782,-12.7215,-12.6111,-12.5601,-12.5678,-12.6486,-12.6601,-12.7294,-12.8909,-12.9102,-12.9102,-12.9102,-12.8986,-12.8909,-12.8909,-12.8909,-12.8909,-12.8909,-12.8909,-12.8909,-12.8909,-12.7986,-12.6409,-12.4101,-12.3909,-12.3101,-12.16,-12.16,-12.11,-10.3281,-10.3203,-10.3008,-10.1211,-10.1289,0.0,-10.2695,-10.3711,-10.4804,0.0,0.0,0.0,0.0,0.0,0.0,0.0,0.0,0.0,0.0,0.0,0.0,0.0,-12.6015,-12.6093,-12.6211,-12.6914,-12.7383,-12.75,-12.8203,-12.8593,-12.8593,-12.8593,-12.8593,-12.8593,-12.8593,-12.8593,-12.8593,-12.8593,-12.8593,-12.8593,-12.8593,-12.8593,-12.8593,-12.8593,-12.8593,-12.8593,-12.8593,-12.8593,-12.8593,-12.8593,-12.8593,-12.8593,-12.8593,-12.8593,-12.8593,-12.8593,-12.8593,-12.8593,-12.8593,-12.8593,-12.8593,-12.8593,-12.8593,-12.8593,-12.8593,-12.8593,-12.8593,-12.8593,-12.8593,-12.8593,-12.8593,-12.8593,-12.8593,-12.8593,-12.8593,-12.8593,-12.8593,-12.8593,-12.8593,-12.8593,-12.8593,-12.8515,-12.8203,-12.7786,-12.7203,-12.6098,-12.5601,-12.5486,-12.5601,-12.6294,-12.7101,-12.8025,-12.8217,-12.8217,-12.8217,-12.7602,-12.7178,-12.7178,-12.7178,-12.7178,-12.7178,-12.7178,-12.7178,-12.7178,-12.5601,-12.4601,-12.4101,-12.2716,-12.1908,-12.16,-12.16,-12.11,-10.5781,-10.5195,-10.4297,-10.2109,-10.1601,0.0,0.0,-10.1601,-10.25,0.0,0.0,0.0,0.0,0.0,0.0,0.0,0.0,0.0,0.0,0.0,0.0,0.0,-12.4804,-12.4883,-12.539,-12.5781,-12.6211,-12.6601,-12.7109,-12.7304,-12.7304,-12.7304,-12.75,-12.789,-12.8008,-12.8203,-12.8593,-12.8593,-12.8593,-12.8593,-12.8593,-12.8593,-12.8593,-12.8593,-12.8593,-12.8593,-12.8593,-12.8593,-12.8593,-12.8593,-12.8593,-12.8593,-12.8593,-12.8593,-12.8593,-12.8593,-12.8593,-12.8593,-12.8593,-12.8593,-12.8593,-12.8593,-12.8593,-12.8593,-12.8593,-12.8593,-12.8593,-12.8593,-12.8593,-12.8593,-12.8593,-12.8593,-12.8593,-12.8593,-12.8593,-12.8593,-12.8593,-12.8593,-12.8593,-12.8593,-12.8593,-12.8515,-12.8398,-12.7899,-12.7083,-12.572,-12.5101,-12.4601,-12.4216,-12.4486,-12.5293,-12.6486,-12.6717,-12.6794,-12.7294,-12.6909,-12.6678,-12.6678,-12.6678,-12.6678,-12.6678,-12.6678,-12.6678,-12.6678,-12.5409,-12.4486,-12.4101,-12.2908,-12.1985,-12.16,-12.16,-12.1408,-10.8711,-10.7304,-10.5586,-10.3789,-10.2617,-10.1484,0.0,0.0,0.0,0.0,0.0,0.0,0.0,0.0,0.0,0.0,0.0,0.0,0.0,0.0,0.0,-12.3515,-12.3203,-12.3281,-12.4218,-12.4609,-12.5117,-12.5898,-12.6211,-12.6211,-12.6015,-12.6015,-12.6289,-12.6992,-12.6992,-12.75,-12.8281,-12.8281,-12.8398,-12.8593,-12.8593,-12.8593,-12.8593,-12.8593,-12.8593,-12.8593,-12.8593,-12.8593,-12.8593,-12.8593,-12.8593,-12.8593,-12.8593,-12.8593,-12.8593,-12.8593,-12.8593,-12.8593,-12.8593,-12.8593,-12.8593,-12.8593,-12.8593,-12.8593,-12.8593,-12.8593,-12.8593,-12.8593,-12.8593,-12.8593,-12.8593,-12.8593,-12.8593,-12.8593,-12.8593,-12.8593,-12.8593,-12.8593,-12.8593,-12.8593,-12.8593,-12.8593,-12.8593,-12.7987,-12.69,-12.5296,-12.4409,-12.3601,-12.2793,-12.2793,-12.3485,-12.4986,-12.5293,-12.5794,-12.6601,-12.6678,-12.6678,-12.6678,-12.6678,-12.6678,-12.6678,-12.6678,-12.6678,-12.6678,-12.5794,-12.4986,-12.4101,-12.3293,-12.2485,-12.16,-12.16,-12.16,-11.0312,-10.8984,-10.7304,-10.5586,-10.3984,-10.2695,-10.25,0.0,-10.1719,-10.2383,0.0,0.0,0.0,0.0,0.0,0.0,0.0,0.0,0.0,0.0,0.0,-12.3281,-12.2109,-12.1484,-12.2383,-12.3906,-12.5117,-12.5898,-12.6718,-12.6797,-12.6015,-12.6015,-12.6015,-12.6093,-12.6093,-12.6601,-12.7383,-12.7383,-12.7812,-12.8593,-12.8593,-12.8593,-12.8593,-12.8593,-12.8593,-12.8593,-12.8593,-12.8593,-12.8593,-12.8593,-12.8593,-12.8593,-12.8593,-12.8593,-12.8593,-12.8593,-12.8593,-12.8593,-12.8593,-12.8593,-12.8593,-12.8593,-12.8593,-12.8593,-12.8593,-12.8593,-12.8593,-12.8593,-12.8593,-12.8593,-12.8593,-12.8593,-12.8593,-12.8593,-12.8593,-12.8593,-12.8593,-12.8593,-12.8593,-12.8593,-12.8593,-12.8593,-12.8593,-12.7614,-12.6494,-12.5313,-12.4101,-12.2985,-12.1908,-12.2408,-12.3216,-12.4216,-12.4909,-12.5794,-12.6601,-12.6678,-12.6678,-12.6678,-12.6678,-12.6678,-12.6678,-12.6678,-12.6678,-12.6678,-12.5794,-12.4986,-12.4101,-12.3293,-12.2485,-12.16,-12.16,-12.16,-11.3086,-11.1601,-11.0,-10.8789,-10.6406,-10.4414,-10.4414,-10.3008,-10.1797,-10.2695,0.0,0.0,0.0,0.0,0.0,0.0,-11.289,0.0,0.0,0.0,-11.8906,0.0,0.0,0.0,-12.1406,-12.2617,-12.3203,-12.3086,-12.3789,-12.4218,-12.3789,-12.3789,-12.4297,-12.5312,-12.5312,-12.5703,-12.6484,-12.6992,-12.75,-12.789,-12.8398,-12.8593,-12.8593,-12.8593,-12.8593,-12.8593,-12.8593,-12.8593,-12.8593,-12.8593,-12.8593,-12.8593,-12.8593,-12.8593,-12.8593,-12.8593,-12.8593,-12.8593,-12.8593,-12.8593,-12.8593,-12.8593,-12.8593,-12.8593,-12.8593,-12.8593,-12.8593,-12.8593,-12.8593,-12.8593,-12.8593,-12.8593,-12.8593,-12.8593,-12.8593,-12.8593,-12.8593,-12.8593,-12.8593,-12.8593,-12.8593,-12.8398,-12.789,-12.7304,-12.6394,-12.5305,-12.4085,-12.2908,-12.1677,-12.1908,-12.2485,-12.3293,-12.4101,-12.4986,-12.5909,-12.6409,-12.6678,-12.6678,-12.6678,-12.6678,-12.6678,-12.6678,-12.6678,-12.6678,-12.6294,-12.5678,-12.4909,-12.3985,-12.3216,-12.2293,-12.1793,-12.16,-11.5703,-11.4101,-11.25,-11.2109,-10.9414,-10.6914,-10.6914,-10.4883,-10.3008,-10.3203,-10.2812,0.0,0.0,0.0,-10.5508,-10.7617,0.0,-11.1289,0.0,-11.4414,0.0,0.0,0.0,0.0,0.0,-12.1211,-12.1484,-12.0586,-12.1601,-12.1992,-12.1484,-12.1914,-12.2812,-12.3984,-12.4297,-12.4804,-12.5703,-12.6289,-12.6718,-12.6992,-12.7812,-12.8203,-12.8281,-12.8515,-12.8593,-12.8593,-12.8593,-12.8593,-12.8593,-12.8593,-12.8593,-12.8593,-12.8593,-12.8593,-12.8593,-12.8593,-12.8593,-12.8593,-12.8593,-12.8593,-12.8593,-12.8593,-12.8593,-12.8593,-12.8593,-12.8593,-12.8593,-12.8593,-12.8593,-12.8593,-12.8593,-12.8398,-12.8203,-12.8203,-12.8203,-12.8203,-12.8203,-12.8398,-12.8593,-12.8593,-12.8593,-12.8281,-12.75,-12.6914,-12.6186,-12.4908,-12.3819,-12.2678,-12.1677,-12.16,-12.1908,-12.2793,-12.3601,-12.4486,-12.5293,-12.6178,-12.6678,-12.6678,-12.6678,-12.6678,-12.6678,-12.6678,-12.6678,-12.6678,-12.6678,-12.6294,-12.5409,-12.4486,-12.3716,-12.2908,-12.1985,-12.16,-11.7695,-11.6289,-11.4609,-11.5312,-11.3008,-11.039,-11.039,-10.8398,-10.6093,-10.4492,-10.4101,-10.3398,-10.0898,-10.1797,-10.3281,-10.4219,-10.5781,0.0,0.0,0.0,0.0,0.0,0.0,0.0,0.0,-11.9883,-12.0586,0.0,-12.1211,-12.1484,-11.9804,-12.1289,-12.2187,-12.2304,-12.3086,-12.3984,-12.4804,-12.4883,-12.5312,-12.6093,-12.6914,-12.7304,-12.7383,-12.8203,-12.8593,-12.8593,-12.8593,-12.8593,-12.8593,-12.8593,-12.8593,-12.8593,-12.8593,-12.8593,-12.8593,-12.8593,-12.8593,-12.8593,-12.8593,-12.8593,-12.8593,-12.8593,-12.8593,-12.8593,-12.8593,-12.8593,-12.8593,-12.8593,-12.8593,-12.8593,-12.8593,-12.8008,-12.7304,-12.7304,-12.7304,-12.7304,-12.7304,-12.8008,-12.8593,-12.8593,-12.8593,-12.8281,-12.75,-12.6601,-12.5483,-12.409,-12.3123,-12.2301,-12.1677,-12.16,-12.1908,-12.2793,-12.3601,-12.4486,-12.5293,-12.6178,-12.6678,-12.6678,-12.6678,-12.6678,-12.6678,-12.6678,-12.6678,-12.6678,-12.6678,-12.6294,-12.5409,-12.4486,-12.3716,-12.2908,-12.1985,-12.16,-11.9297,-11.7695,-11.6406,-11.7187,-11.4804,-11.2617,-11.3711,-11.1484,-10.8984,-10.7812,-10.6211,-10.4609,-10.3203,-10.289,-10.3008,-10.3281,-10.3789,-10.4609,0.0,-10.7383,0.0,0.0,0.0,0.0,0.0,0.0,0.0,-11.7109,-11.8086,-11.8789,-11.8711,-11.9297,-12.039,-12.2109,-12.25,-12.3086,-12.3906,-12.4492,-12.4883,-12.5195,-12.6015,-12.6718,-12.7304,-12.7617,-12.8086,-12.8593,-12.8593,-12.8593,-12.8593,-12.8593,-12.8593,-12.8593,-12.8593,-12.8593,-12.8593,-12.8593,-12.8593,-12.8593,-12.8593,-12.8593,-12.8593,-12.8593,-12.8593,-12.8593,-12.8593,-12.8593,-12.8593,-12.8593,-12.8593,-12.8593,-12.8593,-12.8008,-12.7304,-12.7304,-12.6914,-12.6406,-12.6406,-12.6718,-12.6992,-12.7617,-12.7695,-12.75,-12.6601,-12.6211,-12.5483,-12.4012,-12.3123,-12.2301,-12.1677,-12.16,-12.1677,-12.1985,-12.2793,-12.3601,-12.4486,-12.5909,-12.6678,-12.6678,-12.6678,-12.6678,-12.6678,-12.6678,-12.6678,-12.6678,-12.6678,-12.6601,-12.6294,-12.4793,-12.3985,-12.3716,-12.2293,-12.16,-12.0696,-11.9414,-11.8398,-11.9414,-11.7304,-11.5312,-11.6406,-11.4218,-11.1601,-11.0117,-10.8515,-10.6601,-10.4219,-10.3515,-10.3203,-10.25,-10.2383,-10.2695,0.0,-10.4687,-10.6015,-10.7695,-11.1015,0.0,0.0,0.0,-11.5703,-11.4883,-11.5586,-11.6406,-11.6914,-11.7187,-11.8281,-12.0312,-12.1015,-12.1718,-12.2617,-12.3398,-12.3984,-12.4297,-12.5195,-12.6015,-12.6797,-12.7187,-12.7812,-12.8593,-12.8593,-12.8593,-12.8593,-12.8593,-12.8593,-12.8593,-12.8593,-12.8593,-12.8593,-12.8593,-12.8593,-12.8593,-12.8593,-12.8593,-12.8593,-12.8593,-12.8593,-12.8593,-12.8593,-12.8593,-12.8593,-12.8593,-12.8593,-12.8593,-12.8593,-12.7695,-12.6797,-12.6797,-12.6211,-12.5586,-12.5586,-12.5781,-12.6211,-12.6718,-12.6797,-12.6601,-12.5703,-12.5586,-12.5093,-12.3602,-12.2929,-12.2301,-12.1677,-12.16,-12.16,-12.16,-12.2408,-12.3408,-12.4486,-12.5909,-12.6678,-12.6678,-12.6678,-12.6678,-12.6678,-12.6678,-12.6678,-12.6678,-12.6678,-12.6678,-12.6678,-12.4986,-12.4101,-12.4101,-12.2408,-12.16]}]]